[[{"header":{"parameterUnit":"m.s-1","parameterCategory":1,"la1":31.0,"la2":29.5877,"lo1":-88.7671,"lo2":-86.6584,"dy":0.0162,"dx":0.0185,"nx":115,"ny":88,"refTime":"2023-06-08T00:00:00:Z","depth":0,"parameterNumber":2,"parameterNumberName":"U-component_of_WINDS"},"data":[0.0,0.0,0.0,0.0,0.0,0.0,0.0,0.0,0.0,0.0,0.0,0.0,0.0,0.0,0.0,0.0,0.0,0.0,0.0,0.0,0.0,0.0,0.0,0.0,0.0,0.0,0.0,0.0,0.0,0.0,0.0,0.0,0.0,0.0,0.0,0.0,0.0,0.0,0.0,0.0,0.0,0.0,0.0,0.0,0.0,0.0,0.0,0.0,0.0,0.0,0.0,0.0,0.0,0.0,0.0,0.0,0.0,0.0,0.0,0.0,0.0,0.0,0.0,0.0,0.0,0.0,0.0,0.0,0.0,0.0,0.0,0.0,0.0,0.0,0.0,0.0,0.0,0.0,0.0,0.0,0.0,0.0,0.0,0.0,0.0,0.0,0.0,0.0,0.0,0.0,0.0,0.0,0.0,0.0,0.0,0.0,0.0,0.0,0.0,0.0,0.0,0.0,0.0,0.0,0.0,0.0,0.0,0.0,0.0,0.0,0.0,0.0,0.0,0.0,0.0,0.0,0.0,0.0,0.0,0.0,0.0,0.0,0.0,0.0,0.0,0.0,0.0,0.0,0.0,0.0,0.0,0.0,0.0,0.0,0.0,0.0,0.0,0.0,0.0,0.0,0.0,0.0,0.0,0.0,0.0,0.0,0.0,0.0,0.0,0.0,0.0,0.0,0.0,0.0,0.0,0.0,0.0,0.0,0.0,0.0,0.0,0.0,0.0,0.0,0.0,0.0,0.0,0.0,0.0,0.0,0.0,0.0,0.0,0.0,0.0,0.0,0.0,0.0,0.0,0.0,0.0,0.0,0.0,0.0,0.0,0.0,0.0,0.0,0.0,0.0,0.0,0.0,0.0,0.0,0.0,0.0,0.0,0.0,0.0,0.0,0.0,0.0,0.0,0.0,0.0,0.0,0.0,0.0,0.0,0.0,0.0,0.0,0.0,0.0,0.0,0.0,0.0,0.0,0.0,0.0,0.0,0.0,0.0,0.0,0.0,0.0,0.0,0.0,0.0,0.0,0.0,0.0,0.0,0.0,0.0,0.0,0.0,0.0,0.0,0.0,0.0,0.0,0.0,0.0,0.0,0.0,0.0,0.0,0.0,0.0,0.0,0.0,0.0,0.0,0.0,0.0,0.0,0.0,0.0,0.0,0.0,0.0,0.0,0.0,0.0,0.0,0.0,0.0,0.0,0.0,0.0,0.0,0.0,0.0,0.0,0.0,0.0,0.0,0.0,0.0,0.0,0.0,0.0,0.0,0.0,0.0,0.0,0.0,0.0,0.0,0.0,0.0,0.0,0.0,0.0,0.0,0.0,0.0,0.0,0.0,0.0,0.0,0.0,0.0,0.0,0.0,0.0,0.0,0.0,0.0,0.0,0.0,0.0,0.0,0.0,0.0,0.0,0.0,0.0,0.0,0.0,0.0,0.0,0.0,0.0,0.0,0.0,0.0,0.0,0.0,0.0,0.0,0.0,0.0,0.0,0.0,0.0,0.0,0.0,0.0,0.0,0.0,0.0,0.0,0.0,0.0,0.0,0.0,0.0,0.0,0.0,0.0,0.0,0.0,0.0,0.0,0.0,0.0,0.0,0.0,0.0,0.0,0.0,0.0,0.0,0.0,0.0,0.0,0.0,0.0,0.0,0.0,0.0,0.0,0.0,0.0,0.0,0.0,0.0,0.0,0.0,0.0,0.0,0.0,0.0,0.0,0.0,0.0,0.0,0.0,0.0,0.0,0.0,0.0,0.0,0.0,0.0,0.0,0.0,0.0,0.0,0.0,0.0,0.0,0.0,0.0,0.0,0.0,0.0,0.0,0.0,0.0,0.0,0.0,0.0,0.0,0.0,0.0,0.0,0.0,0.0,0.0,0.0,0.0,0.0,0.0,0.0,0.0,0.0,0.0,0.0,0.0,0.0,0.0,0.0,0.0,0.0,0.0,0.0,0.0,0.0,0.0,0.0,0.0,0.0,0.0,0.0,0.0,0.0,0.0,0.0,0.0,0.0,0.0,0.0,0.0,0.0,0.0,0.0,0.0,0.0,0.0,0.0,0.0,0.0,0.0,0.0,0.0,0.0,0.0,0.0,0.0,0.0,0.0,0.0,0.0,0.0,0.0,0.0,0.0,0.0,0.0,0.0,0.0,0.0,0.0,0.0,0.0,0.0,0.0,0.0,0.0,0.0,0.0,0.0,0.0,0.0,0.0,0.0,0.0,0.0,0.0,0.0,0.0,0.0,0.0,0.0,0.0,0.0,0.0,0.0,0.0,0.0,0.0,0.0,0.0,0.0,0.0,0.0,0.0,0.0,0.0,0.0,0.0,0.0,0.0,0.0,0.0,0.0,0.0,0.0,0.0,0.0,0.0,0.0,0.0,0.0,0.0,0.0,0.0,0.0,0.0,0.0,0.0,0.0,0.0,0.0,0.0,0.0,0.0,0.0,0.0,0.0,0.0,0.0,0.0,0.0,0.0,0.0,0.0,0.0,0.0,0.0,0.0,0.0,0.0,0.0,0.0,0.0,0.0,0.0,0.0,0.0,0.0,0.0,0.0,0.0,0.0,0.0,0.0,0.0,0.0,0.0,0.0,0.0,0.0,0.0,0.0,0.0,0.0,0.0,0.0,0.0,0.0,0.0,0.0,0.0,0.0,0.0,0.0,0.0,0.0,0.0,0.0,0.0,0.0,0.0,0.0,0.0,0.0,0.0,0.0,0.0,0.0,0.0,0.0,0.0,0.0,0.0,0.0,0.0,0.0,0.0,0.0,0.0,0.0,0.0,0.0,0.0,0.0,0.0,0.0,0.0,0.0,0.0,0.0,0.0,0.0,0.0,0.0,0.0,0.0,0.0,0.0,0.0,0.0,0.0,0.0,0.0,0.0,0.0,0.0,0.0,0.0,0.0,0.0,0.0,0.0,0.0,0.0,0.0,0.0,0.0,0.0,0.0,0.0,0.0,0.0,0.0,0.0,0.0,0.0,0.0,0.0,0.0,0.0,0.0,0.0,0.0,0.0,0.0,0.0,0.0,0.0,0.0,0.0,0.0,0.0,0.0,0.0,0.0,0.0,0.0,0.0,0.0,0.0,0.0,0.0,0.0,0.0,0.0,0.0,0.0,0.0,0.0,0.0,0.0,0.0,0.0,0.0,0.0,0.0,0.0,0.0,0.0,0.0,0.0,0.0,0.0,0.0,0.0,0.0,0.0,0.0,0.0,0.0,0.0,0.0,0.0,0.0,0.0,0.0,0.0,0.0,0.0,0.0,0.0,0.0,0.0,0.0,0.0,0.0,0.0,0.0,0.0,0.0,0.0,0.0,0.0,0.0,0.0,0.0,0.0,0.0,0.0,0.0,0.0,0.0,0.0,0.0,0.0,0.0,0.0,0.0,0.0,0.0,0.0,0.0,0.0,0.0,0.0,0.0,0.0,0.0,0.0,0.0,0.0,0.0,0.0,0.0,0.0,0.0,0.0,0.0,0.0,0.0,0.0,0.0,0.0,0.0,0.0,0.0,0.0,0.0,0.0,0.0,0.0,0.0,0.0,0.0,0.0,0.0,0.0,0.0,0.0,0.0,0.0,0.0,0.0,0.0,0.0,0.0,0.0,0.0,0.0,0.0,0.0,0.0,0.0,0.0,0.0,0.0,0.0,0.0,0.0,0.0,0.0,0.0,0.0,0.0,0.0,0.0,0.0,0.0,0.0,0.0,0.0,0.0,0.0,0.0,0.0,0.0,0.0,0.0,0.0,0.0,0.0,0.0,0.0,0.0,0.0,0.0,0.0,0.0,0.0,0.0,0.0,0.0,0.0,0.0,0.0,0.0,0.0,0.0,0.0,0.0,0.0,0.0,0.0,0.0,0.0,0.0,0.0,0.0,0.0,0.0,0.0,0.0,0.0,0.0,0.0,0.0,0.0,0.0,0.0,0.0,0.0,0.0,0.0,0.0,0.0,0.0,0.0,0.0,0.0,0.0,0.0,0.0,0.0,0.0,0.0,0.0,0.0,0.0,0.0,0.0,0.0,0.0,0.0,0.0,0.0,0.0,0.0,0.0,0.0,0.0,0.0,0.0,0.0,0.0,0.0,0.0,0.0,0.0,0.0,0.0,0.0,0.0,0.0,0.0,0.0,0.0,0.0,0.0,0.0,0.0,0.0,0.0,0.0,0.0,0.0,0.0,0.0,0.0,0.0,0.0,0.0,0.0,0.0,0.0,0.0,0.0,0.0,0.0,0.0,0.0,0.0,0.0,0.0,0.0,0.0,0.0,0.0,0.0,0.0,0.0,-2.0779,0.0,0.0,0.0,0.0,0.0,0.0,0.0,0.0,0.0,0.0,0.0,0.0,0.0,0.0,0.0,0.0,0.0,0.0,0.0,0.0,0.0,0.0,0.0,0.0,0.0,0.0,0.0,0.0,0.0,0.0,0.0,0.0,0.0,0.0,0.0,0.0,0.0,0.0,0.0,0.0,0.0,0.0,0.0,0.0,0.0,0.0,0.0,0.0,0.0,0.0,0.0,0.0,0.0,0.0,0.0,0.0,0.0,0.0,0.0,0.0,0.0,0.0,0.0,0.0,0.0,0.0,0.0,0.0,0.0,0.0,0.0,0.0,0.0,0.0,0.0,0.0,0.0,0.0,0.0,0.0,0.0,0.0,0.0,0.0,0.0,0.0,0.0,0.0,0.0,0.0,0.0,0.0,0.0,0.0,0.0,0.0,0.0,0.0,0.0,0.0,0.0,0.0,0.0,0.0,0.0,0.0,0.0,0.0,0.0,0.0,-1.8315,-1.8789,-1.8994,-1.9453,-2.0209,0.0,0.0,0.0,0.0,0.0,0.0,0.0,0.0,0.0,0.0,0.0,0.0,0.0,0.0,0.0,0.0,0.0,0.0,0.0,0.0,0.0,0.0,0.0,0.0,0.0,0.0,0.0,0.0,0.0,0.0,0.0,0.0,0.0,0.0,0.0,0.0,0.0,0.0,0.0,0.0,0.0,0.0,0.0,0.0,0.0,0.0,0.0,0.0,0.0,0.0,0.0,0.0,0.0,0.0,0.0,0.0,0.0,0.0,0.0,0.0,0.0,0.0,0.0,0.0,0.0,0.0,0.0,0.0,0.0,0.0,0.0,0.0,0.0,0.0,0.0,0.0,0.0,0.0,0.0,0.0,0.0,0.0,0.0,0.0,0.0,0.0,0.0,0.0,0.0,0.0,0.0,0.0,0.0,0.0,0.0,0.0,0.0,0.0,0.0,0.0,0.0,0.0,0.0,0.0,0.0,0.0,0.0,0.0,0.0,0.0,0.0,0.0,-1.8073,-1.8684,-1.9515,0.0,0.0,0.0,0.0,0.0,0.0,0.0,0.0,0.0,0.0,0.0,0.0,0.0,0.0,0.0,0.0,0.0,0.0,0.0,0.0,0.0,0.0,0.0,0.0,0.0,0.0,0.0,0.0,0.0,0.0,0.0,0.0,0.0,0.0,0.0,0.0,0.0,0.0,0.0,0.0,0.0,0.0,0.0,0.0,0.0,0.0,0.0,0.0,0.0,0.0,0.0,0.0,0.0,0.0,0.0,0.0,0.0,0.0,0.0,0.0,0.0,0.0,0.0,0.0,0.0,0.0,0.0,0.0,0.0,0.0,0.0,0.0,0.0,0.0,0.0,0.0,0.0,0.0,0.0,0.0,0.0,0.0,0.0,0.0,0.0,0.0,0.0,0.0,0.0,0.0,0.0,0.0,0.0,0.0,0.0,0.0,0.0,0.0,0.0,0.0,0.0,0.0,0.0,0.0,0.0,0.0,0.0,0.0,0.0,0.0,-1.7029,-1.751,-1.7619,0.0,-1.8741,0.0,0.0,0.0,0.0,0.0,0.0,0.0,0.0,0.0,0.0,0.0,0.0,0.0,0.0,0.0,0.0,0.0,0.0,0.0,0.0,0.0,0.0,0.0,0.0,0.0,0.0,0.0,0.0,0.0,0.0,0.0,0.0,0.0,0.0,0.0,0.0,0.0,0.0,0.0,0.0,0.0,0.0,0.0,0.0,0.0,0.0,0.0,0.0,0.0,0.0,0.0,0.0,0.0,0.0,0.0,0.0,0.0,0.0,0.0,0.0,0.0,0.0,0.0,0.0,0.0,0.0,0.0,0.0,0.0,0.0,0.0,0.0,0.0,0.0,0.0,0.0,0.0,0.0,0.0,0.0,0.0,0.0,0.0,0.0,0.0,0.0,0.0,0.0,0.0,0.0,0.0,0.0,0.0,0.0,0.0,0.0,0.0,0.0,0.0,0.0,0.0,0.0,0.0,0.0,0.0,0.0,0.0,0.0,0.0,0.0,-1.6575,-1.686,-1.7336,-1.7507,0.0,0.0,0.0,0.0,0.0,0.0,0.0,0.0,0.0,0.0,0.0,0.0,0.0,0.0,0.0,0.0,0.0,0.0,0.0,0.0,0.0,0.0,0.0,0.0,0.0,0.0,0.0,0.0,0.0,0.0,0.0,0.0,0.0,0.0,0.0,0.0,0.0,0.0,0.0,0.0,0.0,0.0,0.0,0.0,0.0,0.0,0.0,0.0,0.0,0.0,0.0,0.0,0.0,0.0,0.0,0.0,0.0,0.0,0.0,0.0,0.0,0.0,0.0,0.0,0.0,0.0,0.0,0.0,0.0,0.0,0.0,0.0,0.0,0.0,0.0,0.0,0.0,0.0,0.0,0.0,0.0,0.0,0.0,0.0,0.0,0.0,0.0,0.0,0.0,0.0,0.0,0.0,0.0,0.0,0.0,0.0,0.0,0.0,0.0,0.0,0.0,0.0,0.0,0.0,0.0,0.0,0.0,0.0,0.0,0.0,-1.6287,-1.6303,-1.6359,-1.691,-1.6926,-1.6316,0.0,0.0,0.0,0.0,0.0,0.0,0.0,0.0,0.0,0.0,0.0,0.0,0.0,0.0,0.0,0.0,0.0,0.0,0.0,0.0,0.0,0.0,0.0,0.0,0.0,0.0,0.0,0.0,0.0,0.0,0.0,0.0,0.0,0.0,0.0,0.0,0.0,0.0,0.0,0.0,0.0,0.0,0.0,0.0,0.0,0.0,0.0,0.0,0.0,0.0,0.0,0.0,0.0,0.0,0.0,0.0,0.0,0.0,0.0,0.0,0.0,0.0,0.0,0.0,0.0,0.0,0.0,0.0,0.0,0.0,0.0,0.0,0.0,0.0,0.0,0.0,0.0,0.0,0.0,0.0,0.0,0.0,0.0,0.0,0.0,0.0,0.0,0.0,0.0,0.0,0.0,0.0,0.0,0.0,0.0,0.0,0.0,0.0,0.0,0.0,0.0,0.0,0.0,0.0,0.0,0.0,0.0,0.0,-1.6208,-1.6208,-1.6208,-1.6193,-1.6223,-1.628,0.0,0.0,0.0,0.0,0.0,0.0,0.0,0.0,0.0,0.0,0.0,0.0,0.0,0.0,0.0,0.0,0.0,0.0,0.0,0.0,0.0,0.0,0.0,0.0,0.0,0.0,0.0,0.0,0.0,0.0,0.0,0.0,0.0,0.0,0.0,0.0,0.0,0.0,0.0,0.0,0.0,0.0,0.0,0.0,0.0,0.0,0.0,0.0,0.0,0.0,0.0,0.0,0.0,0.0,0.0,0.0,0.0,0.0,0.0,0.0,0.0,0.0,0.0,0.0,0.0,0.0,0.0,0.0,0.0,0.0,0.0,0.0,0.0,0.0,0.0,0.0,0.0,0.0,0.0,0.0,0.0,0.0,0.0,0.0,0.0,0.0,0.0,0.0,0.0,0.0,0.0,0.0,0.0,0.0,0.0,0.0,0.0,0.0,0.0,0.0,0.0,0.0,0.0,0.0,0.0,0.0,0.0,0.0,0.0,-1.6081,-1.6066,-1.6067,-1.6081,-1.6109,-1.6165,0.0,0.0,0.0,0.0,0.0,0.0,0.0,0.0,0.0,0.0,0.0,0.0,0.0,0.0,0.0,0.0,0.0,0.0,0.0,0.0,0.0,0.0,0.0,0.0,0.0,0.0,0.0,0.0,0.0,0.0,0.0,0.0,0.0,0.0,0.0,0.0,0.0,0.0,0.0,0.0,0.0,0.0,0.0,0.0,0.0,0.0,0.0,0.0,0.0,0.0,0.0,0.0,0.0,0.0,0.0,0.0,0.0,0.0,0.0,0.0,0.0,0.0,0.0,0.0,0.0,0.0,0.0,0.0,0.0,0.0,0.0,0.0,0.0,0.0,0.0,0.0,0.0,0.0,0.0,0.0,0.0,0.0,0.0,0.0,0.0,0.0,0.0,0.0,0.0,0.0,0.0,0.0,0.0,0.0,0.0,0.0,0.0,0.0,0.0,0.0,0.0,0.0,0.0,0.0,0.0,0.0,0.0,0.0,0.0,-1.5868,0.0,-1.5941,-1.584,-1.5984,-1.6069,0.0,0.0,0.0,0.0,0.0,0.0,0.0,0.0,0.0,0.0,0.0,0.0,0.0,0.0,0.0,0.0,0.0,0.0,0.0,0.0,0.0,0.0,0.0,0.0,0.0,0.0,0.0,0.0,0.0,0.0,0.0,0.0,0.0,0.0,0.0,0.0,0.0,0.0,0.0,0.0,0.0,0.0,0.0,0.0,0.0,0.0,0.0,0.0,0.0,0.0,0.0,0.0,0.0,0.0,0.0,0.0,0.0,0.0,0.0,0.0,0.0,0.0,0.0,0.0,0.0,0.0,0.0,0.0,0.0,0.0,0.0,0.0,0.0,0.0,0.0,0.0,0.0,0.0,0.0,0.0,0.0,0.0,0.0,0.0,0.0,0.0,0.0,0.0,0.0,0.0,0.0,0.0,0.0,0.0,0.0,0.0,0.0,0.0,0.0,0.0,0.0,0.0,0.0,0.0,0.0,0.0,0.0,0.0,-1.5883,-1.5638,-1.5812,-1.5784,-1.5522,-1.577,-1.5927,0.0,0.0,0.0,0.0,0.0,0.0,0.0,0.0,0.0,0.0,0.0,0.0,0.0,0.0,0.0,0.0,0.0,0.0,0.0,0.0,0.0,0.0,0.0,0.0,0.0,0.0,0.0,0.0,0.0,0.0,0.0,0.0,0.0,0.0,0.0,0.0,0.0,0.0,0.0,0.0,0.0,0.0,0.0,0.0,0.0,0.0,0.0,0.0,0.0,0.0,0.0,0.0,0.0,0.0,0.0,0.0,0.0,0.0,0.0,0.0,0.0,0.0,0.0,0.0,0.0,0.0,0.0,0.0,0.0,0.0,0.0,0.0,0.0,0.0,0.0,0.0,0.0,0.0,0.0,0.0,0.0,0.0,0.0,0.0,0.0,0.0,0.0,0.0,0.0,0.0,0.0,0.0,0.0,0.0,0.0,0.0,0.0,0.0,0.0,0.0,0.0,0.0,0.0,0.0,0.0,0.0,0.0,0.0,0.0,-1.574,-1.5813,-1.5799,-1.5726,-1.5827,-1.5927,0.0,0.0,0.0,0.0,0.0,0.0,0.0,0.0,0.0,0.0,0.0,0.0,0.0,0.0,0.0,0.0,0.0,0.0,0.0,0.0,0.0,0.0,0.0,0.0,0.0,0.0,0.0,0.0,0.0,0.0,0.0,0.0,0.0,0.0,0.0,0.0,0.0,0.0,0.0,0.0,0.0,0.0,0.0,0.0,0.0,0.0,0.0,0.0,0.0,0.0,0.0,0.0,0.0,0.0,0.0,0.0,0.0,0.0,0.0,0.0,0.0,0.0,0.0,0.0,0.0,0.0,0.0,0.0,0.0,0.0,0.0,0.0,0.0,0.0,0.0,0.0,0.0,0.0,0.0,0.0,0.0,0.0,0.0,0.0,0.0,0.0,0.0,0.0,0.0,0.0,0.0,0.0,0.0,0.0,0.0,0.0,0.0,0.0,0.0,0.0,0.0,0.0,0.0,0.0,0.0,0.0,0.0,0.0,0.0,-1.6582,-1.6469,-1.6367,-1.632,-1.6204,-1.6111,-1.5982,0.0,0.0,0.0,0.0,0.0,0.0,0.0,0.0,0.0,0.0,0.0,0.0,0.0,0.0,0.0,0.0,0.0,0.0,0.0,0.0,0.0,0.0,0.0,0.0,0.0,0.0,0.0,0.0,0.0,0.0,0.0,0.0,0.0,0.0,0.0,0.0,0.0,0.0,0.0,0.0,0.0,0.0,0.0,0.0,0.0,0.0,0.0,0.0,0.0,0.0,0.0,0.0,0.0,0.0,0.0,0.0,0.0,0.0,0.0,0.0,0.0,0.0,0.0,0.0,0.0,0.0,0.0,0.0,0.0,0.0,0.0,0.0,0.0,0.0,0.0,0.0,0.0,0.0,0.0,0.0,0.0,0.0,0.0,0.0,0.0,0.0,0.0,0.0,0.0,0.0,0.0,0.0,0.0,0.0,0.0,0.0,0.0,0.0,0.0,0.0,0.0,0.0,0.0,0.0,0.0,0.0,0.0,0.0,-1.8053,-1.7728,-1.7464,-1.7243,-1.6862,-1.6428,0.0,0.0,0.0,0.0,0.0,0.0,0.0,0.0,0.0,0.0,0.0,0.0,0.0,0.0,0.0,0.0,0.0,0.0,0.0,0.0,0.0,0.0,0.0,0.0,0.0,0.0,0.0,0.0,0.0,0.0,0.0,0.0,0.0,0.0,0.0,0.0,0.0,0.0,0.0,0.0,0.0,0.0,0.0,0.0,0.0,0.0,0.0,0.0,0.0,0.0,0.0,0.0,0.0,0.0,0.0,0.0,0.0,0.0,0.0,0.0,0.0,0.0,0.0,0.0,0.0,0.0,0.0,0.0,0.0,0.0,0.0,0.0,0.0,0.0,0.0,0.0,0.0,0.0,0.0,0.0,0.0,0.0,0.0,0.0,0.0,0.0,0.0,0.0,0.0,0.0,0.0,0.0,0.0,0.0,0.0,0.0,0.0,0.0,0.0,0.0,0.0,0.0,0.0,0.0,0.0,0.0,0.0,0.0,0.0,-1.995,-1.9703,-1.9007,-1.7919,-1.7524,-1.686,0.0,0.0,0.0,0.0,0.0,0.0,0.0,0.0,0.0,0.0,0.0,0.0,0.0,0.0,0.0,0.0,0.0,0.0,0.0,0.0,0.0,0.0,0.0,0.0,0.0,0.0,0.0,0.0,0.0,0.0,0.0,0.0,0.0,0.0,0.0,0.0,0.0,0.0,0.0,0.0,0.0,0.0,0.0,0.0,0.0,0.0,0.0,0.0,0.0,0.0,0.0,0.0,0.0,0.0,0.0,0.0,0.0,0.0,0.0,0.0,0.0,0.0,0.0,0.0,0.0,0.0,0.0,0.0,0.0,0.0,0.0,0.0,0.0,0.0,0.0,0.0,0.0,0.0,0.0,0.0,0.0,0.0,0.0,0.0,0.0,0.0,0.0,0.0,0.0,0.0,0.0,0.0,0.0,0.0,0.0,0.0,0.0,0.0,0.0,0.0,0.0,0.0,0.0,0.0,0.0,0.0,0.0,0.0,-1.8932,-2.0703,-2.0857,-2.0472,-1.9522,-1.8184,-1.6984,0.0,0.0,0.0,0.0,0.0,0.0,0.0,0.0,0.0,0.0,0.0,0.0,0.0,0.0,0.0,0.0,0.0,0.0,0.0,0.0,0.0,0.0,0.0,0.0,0.0,0.0,0.0,0.0,0.0,0.0,0.0,0.0,0.0,0.0,0.0,0.0,0.0,0.0,0.0,0.0,0.0,0.0,0.0,0.0,0.0,0.0,0.0,0.0,0.0,0.0,0.0,0.0,0.0,0.0,0.0,0.0,0.0,0.0,0.0,0.0,0.0,0.0,0.0,0.0,0.0,0.0,0.0,0.0,0.0,0.0,0.0,0.0,0.0,0.0,0.0,0.0,0.0,0.0,0.0,0.0,0.0,0.0,0.0,0.0,0.0,0.0,0.0,0.0,0.0,0.0,0.0,0.0,0.0,0.0,0.0,0.0,0.0,0.0,0.0,0.0,0.0,0.0,0.0,0.0,0.0,0.0,0.0,0.0,-1.8891,-2.0813,-2.1588,-2.1808,-2.1502,-1.9003,-1.7183,0.0,0.0,0.0,0.0,0.0,0.0,0.0,0.0,0.0,0.0,0.0,0.0,0.0,0.0,0.0,0.0,0.0,0.0,0.0,0.0,0.0,0.0,0.0,0.0,0.0,0.0,0.0,0.0,0.0,0.0,0.0,0.0,0.0,0.0,0.0,0.0,0.0,0.0,0.0,0.0,0.0,0.0,0.0,0.0,0.0,0.0,0.0,0.0,0.0,0.0,0.0,0.0,0.0,0.0,0.0,0.0,0.0,0.0,0.0,0.0,0.0,0.0,0.0,0.0,0.0,0.0,0.0,0.0,0.0,0.0,0.0,0.0,0.0,0.0,0.0,0.0,0.0,0.0,0.0,0.0,0.0,0.0,0.0,0.0,0.0,0.0,0.0,0.0,0.0,0.0,0.0,0.0,0.0,0.0,0.0,0.0,0.0,0.0,0.0,0.0,0.0,0.0,0.0,0.0,0.0,0.0,0.0,0.0,-1.9985,-2.1816,-2.2539,-2.2782,-2.2487,-2.0665,-1.8753,0.0,0.0,0.0,0.0,0.0,0.0,0.0,0.0,0.0,0.0,0.0,0.0,0.0,0.0,0.0,0.0,0.0,0.0,0.0,0.0,0.0,0.0,0.0,0.0,0.0,0.0,0.0,0.0,0.0,0.0,0.0,0.0,0.0,0.0,0.0,0.0,0.0,0.0,0.0,0.0,0.0,0.0,0.0,0.0,0.0,0.0,0.0,0.0,-1.6428,0.0,0.0,0.0,0.0,0.0,0.0,0.0,0.0,0.0,0.0,0.0,0.0,0.0,0.0,0.0,0.0,0.0,0.0,0.0,0.0,0.0,0.0,0.0,0.0,0.0,0.0,0.0,0.0,0.0,0.0,0.0,0.0,0.0,0.0,0.0,0.0,0.0,0.0,0.0,0.0,0.0,0.0,0.0,0.0,0.0,0.0,0.0,0.0,0.0,0.0,0.0,0.0,0.0,0.0,0.0,0.0,0.0,0.0,0.0,-1.9957,-2.1752,-2.2469,-2.2591,-2.2163,-2.0675,-1.9031,0.0,0.0,0.0,0.0,0.0,0.0,0.0,0.0,0.0,0.0,0.0,0.0,0.0,0.0,0.0,0.0,0.0,0.0,0.0,0.0,0.0,0.0,0.0,0.0,0.0,0.0,0.0,0.0,0.0,0.0,0.0,0.0,0.0,0.0,0.0,0.0,0.0,0.0,0.0,0.0,0.0,0.0,0.0,0.0,0.0,0.0,0.0,0.0,0.0,0.0,0.0,0.0,0.0,0.0,0.0,0.0,0.0,0.0,0.0,0.0,0.0,0.0,0.0,0.0,0.0,0.0,0.0,0.0,0.0,0.0,0.0,0.0,0.0,0.0,0.0,0.0,0.0,0.0,0.0,0.0,0.0,0.0,0.0,0.0,0.0,0.0,0.0,0.0,0.0,0.0,0.0,0.0,0.0,0.0,0.0,0.0,0.0,0.0,0.0,0.0,0.0,0.0,0.0,0.0,0.0,0.0,0.0,-1.8173,-1.953,-2.1393,-2.2051,-2.2133,-2.1628,-2.0102,-1.8824,-1.7856,0.0,0.0,0.0,0.0,0.0,0.0,0.0,0.0,0.0,0.0,0.0,0.0,0.0,0.0,0.0,0.0,0.0,0.0,0.0,0.0,0.0,0.0,0.0,0.0,0.0,0.0,0.0,0.0,0.0,0.0,0.0,0.0,0.0,0.0,0.0,0.0,0.0,0.0,-1.5948,-1.5844,0.0,0.0,0.0,0.0,0.0,0.0,0.0,0.0,-1.6413,0.0,0.0,0.0,0.0,0.0,0.0,0.0,0.0,0.0,0.0,0.0,0.0,0.0,0.0,0.0,0.0,0.0,0.0,0.0,0.0,0.0,0.0,0.0,0.0,0.0,0.0,0.0,0.0,0.0,0.0,0.0,0.0,0.0,0.0,0.0,0.0,0.0,0.0,0.0,0.0,0.0,0.0,0.0,0.0,0.0,0.0,0.0,0.0,0.0,0.0,0.0,0.0,0.0,0.0,0.0,0.0,-1.7098,-1.8052,-1.9562,-2.167,-2.2265,-2.247,-2.2206,-2.022,-1.8927,-1.8412,0.0,0.0,0.0,0.0,0.0,0.0,0.0,0.0,0.0,0.0,0.0,0.0,0.0,0.0,0.0,0.0,0.0,0.0,0.0,0.0,0.0,0.0,0.0,0.0,0.0,0.0,0.0,0.0,0.0,0.0,0.0,0.0,0.0,0.0,0.0,0.0,0.0,0.0,0.0,-1.6129,-1.6009,0.0,0.0,0.0,0.0,0.0,0.0,0.0,0.0,-1.7414,0.0,0.0,0.0,0.0,0.0,0.0,0.0,0.0,0.0,0.0,0.0,0.0,0.0,0.0,0.0,0.0,0.0,0.0,0.0,0.0,0.0,0.0,0.0,0.0,0.0,0.0,0.0,0.0,0.0,0.0,0.0,0.0,0.0,0.0,0.0,0.0,0.0,0.0,0.0,0.0,0.0,0.0,0.0,0.0,0.0,0.0,0.0,0.0,0.0,0.0,0.0,0.0,0.0,0.0,0.0,-1.6837,-1.7646,-1.8913,-2.0857,-2.133,-2.1338,-2.082,-1.9006,-1.7969,0.0,0.0,0.0,0.0,0.0,0.0,0.0,0.0,0.0,0.0,0.0,0.0,0.0,0.0,0.0,0.0,0.0,0.0,0.0,0.0,0.0,0.0,0.0,0.0,0.0,0.0,0.0,0.0,0.0,0.0,0.0,0.0,0.0,0.0,0.0,0.0,0.0,0.0,0.0,0.0,-1.6667,-1.6622,-1.7609,0.0,0.0,0.0,0.0,0.0,0.0,-1.7923,-1.7818,0.0,0.0,0.0,0.0,0.0,0.0,0.0,0.0,0.0,0.0,0.0,0.0,0.0,0.0,0.0,0.0,0.0,0.0,0.0,0.0,0.0,0.0,0.0,0.0,0.0,0.0,0.0,0.0,0.0,0.0,0.0,0.0,0.0,0.0,0.0,0.0,0.0,0.0,0.0,0.0,0.0,0.0,0.0,0.0,0.0,0.0,0.0,0.0,0.0,0.0,0.0,0.0,0.0,0.0,0.0,-1.6879,-1.7249,-1.8292,-2.0102,-2.0281,-2.0034,-1.9398,-1.7836,-1.7054,0.0,0.0,0.0,0.0,0.0,0.0,0.0,0.0,0.0,0.0,0.0,0.0,0.0,0.0,0.0,0.0,0.0,0.0,0.0,0.0,0.0,0.0,0.0,0.0,0.0,0.0,0.0,0.0,0.0,0.0,0.0,0.0,0.0,0.0,0.0,0.0,0.0,0.0,0.0,0.0,0.0,-1.7189,-1.8489,-1.8115,0.0,0.0,0.0,0.0,-1.8625,-1.8599,0.0,0.0,0.0,0.0,0.0,0.0,0.0,0.0,0.0,0.0,0.0,0.0,0.0,0.0,0.0,0.0,0.0,0.0,0.0,0.0,0.0,0.0,0.0,0.0,0.0,0.0,0.0,0.0,0.0,0.0,0.0,0.0,0.0,0.0,0.0,0.0,0.0,0.0,0.0,0.0,0.0,0.0,0.0,0.0,0.0,0.0,0.0,0.0,0.0,0.0,0.0,0.0,0.0,0.0,0.0,0.0,-1.7162,-1.711,-1.8128,-2.0348,-1.9757,-1.9366,-1.9374,-1.7845,-1.7061,0.0,0.0,0.0,0.0,0.0,0.0,0.0,0.0,0.0,0.0,0.0,0.0,0.0,0.0,0.0,0.0,0.0,0.0,0.0,0.0,0.0,0.0,0.0,0.0,0.0,0.0,0.0,0.0,0.0,0.0,0.0,0.0,0.0,0.0,0.0,0.0,0.0,0.0,0.0,0.0,0.0,-1.7158,-1.8433,-1.808,-1.7681,0.0,0.0,-1.9286,-1.8777,-2.0172,0.0,0.0,0.0,0.0,0.0,0.0,0.0,0.0,0.0,0.0,0.0,0.0,0.0,0.0,0.0,0.0,0.0,0.0,0.0,0.0,0.0,0.0,0.0,0.0,0.0,0.0,0.0,0.0,0.0,0.0,0.0,0.0,0.0,0.0,0.0,0.0,0.0,0.0,0.0,0.0,0.0,0.0,0.0,0.0,0.0,0.0,0.0,0.0,0.0,0.0,0.0,0.0,0.0,0.0,0.0,-1.3476,-1.6625,-1.6696,-1.7568,-1.9328,-1.9191,-1.8816,-1.8291,-1.6986,-1.6382,0.0,0.0,0.0,0.0,0.0,0.0,0.0,0.0,0.0,0.0,0.0,0.0,0.0,0.0,0.0,0.0,0.0,0.0,0.0,0.0,0.0,0.0,0.0,0.0,0.0,0.0,0.0,0.0,0.0,0.0,0.0,0.0,0.0,0.0,0.0,0.0,0.0,0.0,0.0,0.0,0.0,0.0,-1.9143,-1.9325,0.0,0.0,0.0,-2.0454,-2.0025,0.0,0.0,0.0,0.0,0.0,0.0,0.0,0.0,0.0,0.0,0.0,0.0,0.0,0.0,0.0,0.0,0.0,0.0,0.0,0.0,0.0,0.0,0.0,0.0,0.0,0.0,0.0,0.0,0.0,0.0,0.0,0.0,0.0,0.0,0.0,0.0,0.0,0.0,0.0,0.0,0.0,0.0,0.0,0.0,0.0,0.0,0.0,0.0,0.0,0.0,0.0,0.0,0.0,0.0,0.0,0.0,0.0,-1.6158,-1.6401,-1.7128,-1.8376,-1.8678,-1.8343,-1.74,-1.622,0.0,0.0,0.0,0.0,0.0,0.0,0.0,0.0,0.0,0.0,0.0,0.0,0.0,0.0,0.0,0.0,0.0,0.0,0.0,0.0,0.0,0.0,0.0,0.0,0.0,0.0,0.0,-1.2523,0.0,0.0,0.0,0.0,0.0,0.0,0.0,0.0,0.0,0.0,0.0,0.0,0.0,0.0,-1.968,-1.9609,-2.0362,-2.0904,0.0,0.0,-2.1266,-2.0779,-2.0748,-2.0378,0.0,0.0,0.0,0.0,0.0,0.0,0.0,0.0,0.0,0.0,0.0,0.0,0.0,0.0,0.0,0.0,0.0,0.0,0.0,0.0,0.0,0.0,0.0,0.0,0.0,0.0,0.0,0.0,0.0,0.0,0.0,0.0,0.0,0.0,0.0,0.0,0.0,0.0,0.0,0.0,0.0,0.0,0.0,0.0,0.0,0.0,0.0,0.0,0.0,0.0,0.0,0.0,0.0,0.0,0.0,-1.5946,-1.633,-1.7074,-1.8177,-1.8242,-1.7978,-1.7398,-1.5814,-1.5292,0.0,0.0,0.0,0.0,0.0,0.0,0.0,0.0,0.0,0.0,0.0,0.0,0.0,0.0,0.0,0.0,0.0,0.0,0.0,0.0,0.0,0.0,0.0,0.0,0.0,0.0,0.0,0.0,0.0,0.0,0.0,0.0,0.0,0.0,0.0,0.0,0.0,0.0,0.0,0.0,0.0,-1.9623,-1.9355,-2.0644,-2.1401,0.0,0.0,-2.1467,-2.0326,-2.0831,-2.0643,-1.861,0.0,0.0,0.0,0.0,0.0,0.0,0.0,0.0,0.0,0.0,0.0,0.0,0.0,0.0,0.0,0.0,0.0,0.0,0.0,0.0,0.0,0.0,0.0,0.0,0.0,0.0,0.0,0.0,0.0,0.0,0.0,0.0,0.0,0.0,0.0,0.0,0.0,0.0,0.0,0.0,0.0,0.0,0.0,0.0,0.0,0.0,0.0,0.0,0.0,0.0,0.0,0.0,0.0,-1.3901,-1.6442,-1.6506,-1.7052,-1.8141,-1.8204,-1.7765,-1.6873,-1.5575,-1.5139,0.0,0.0,0.0,0.0,0.0,0.0,0.0,0.0,0.0,0.0,0.0,0.0,0.0,0.0,0.0,0.0,0.0,0.0,0.0,0.0,0.0,0.0,0.0,0.0,0.0,0.0,0.0,0.0,-1.4393,-1.505,-1.5724,0.0,0.0,0.0,0.0,0.0,0.0,0.0,0.0,0.0,0.0,-2.0352,-1.96,-2.0709,0.0,0.0,-2.1352,-2.136,-2.0486,-2.0461,-1.9974,-1.8398,-1.8113,0.0,0.0,0.0,0.0,0.0,0.0,0.0,0.0,0.0,0.0,0.0,0.0,0.0,0.0,0.0,0.0,0.0,0.0,0.0,0.0,0.0,0.0,0.0,0.0,0.0,0.0,0.0,0.0,0.0,0.0,0.0,0.0,0.0,0.0,0.0,0.0,0.0,0.0,0.0,0.0,0.0,0.0,0.0,0.0,0.0,0.0,0.0,0.0,0.0,0.0,0.0,0.0,-1.421,-1.6468,-1.6674,-1.7237,-1.8179,-1.8204,-1.7752,-1.6785,-1.5563,-1.5063,0.0,0.0,0.0,0.0,0.0,0.0,0.0,0.0,0.0,0.0,0.0,0.0,0.0,0.0,0.0,0.0,0.0,0.0,0.0,0.0,0.0,0.0,0.0,0.0,0.0,0.0,0.0,0.0,-1.4691,-1.5289,-1.5739,0.0,0.0,0.0,0.0,0.0,0.0,0.0,0.0,0.0,0.0,-2.0415,-1.9531,-2.0655,-2.1492,-2.1231,-2.1362,-2.1196,-2.0374,-1.993,-1.9258,-1.8031,0.0,0.0,0.0,0.0,0.0,0.0,0.0,0.0,0.0,0.0,0.0,0.0,0.0,0.0,0.0,0.0,0.0,0.0,0.0,0.0,0.0,0.0,0.0,0.0,0.0,0.0,0.0,0.0,0.0,0.0,-1.2525,0.0,0.0,0.0,0.0,0.0,0.0,0.0,0.0,0.0,0.0,0.0,0.0,0.0,0.0,0.0,0.0,0.0,0.0,0.0,0.0,0.0,0.0,-1.4714,-1.584,-1.6854,-1.7662,-1.8179,-1.8204,-1.7928,-1.7348,-1.5776,-1.5082,-1.5446,0.0,0.0,0.0,0.0,0.0,0.0,0.0,0.0,0.0,0.0,0.0,0.0,0.0,0.0,0.0,0.0,0.0,0.0,0.0,0.0,0.0,0.0,0.0,0.0,0.0,0.0,-1.4721,-1.5379,-1.5754,0.0,0.0,0.0,0.0,0.0,0.0,0.0,0.0,0.0,0.0,-1.8955,-1.9447,-1.902,-2.0454,-2.1457,-2.1223,-2.131,-2.0992,-1.9899,-1.9305,-1.8532,0.0,0.0,0.0,0.0,0.0,0.0,0.0,0.0,0.0,0.0,0.0,0.0,0.0,0.0,0.0,0.0,0.0,0.0,0.0,0.0,0.0,0.0,0.0,0.0,0.0,0.0,0.0,-1.3385,-1.327,0.0,0.0,0.0,0.0,0.0,0.0,0.0,0.0,0.0,0.0,0.0,-1.6522,-1.6702,0.0,0.0,0.0,0.0,0.0,0.0,0.0,0.0,0.0,0.0,0.0,0.0,-1.5107,-1.6853,-1.7232,-1.7639,-1.8179,-1.8204,-1.7765,-1.6835,-1.5906,-1.5082,-1.4332,0.0,0.0,0.0,0.0,0.0,0.0,0.0,0.0,0.0,0.0,0.0,0.0,0.0,0.0,0.0,0.0,0.0,0.0,0.0,0.0,0.0,0.0,0.0,0.0,0.0,-1.4736,0.0,0.0,0.0,0.0,0.0,0.0,0.0,0.0,0.0,0.0,0.0,-1.7603,-1.8086,-1.8706,-1.9002,-1.8623,-1.9755,-2.0572,0.0,0.0,0.0,0.0,0.0,0.0,0.0,0.0,0.0,0.0,0.0,0.0,0.0,0.0,-1.8562,-1.7747,-1.7557,-1.7536,-1.7601,0.0,0.0,0.0,0.0,0.0,0.0,0.0,0.0,0.0,0.0,0.0,0.0,0.0,0.0,0.0,0.0,-1.3361,0.0,0.0,0.0,0.0,0.0,0.0,0.0,0.0,-1.6846,-1.7314,-1.7954,-1.7921,-1.7884,0.0,-1.7124,-1.6688,0.0,0.0,0.0,0.0,0.0,0.0,0.0,0.0,-1.5942,-1.768,-1.7876,-1.8317,-1.9007,-1.8681,-1.8118,-1.7378,-1.6523,-1.5457,-1.4156,-1.3509,-1.3111,0.0,0.0,0.0,0.0,0.0,0.0,0.0,0.0,0.0,0.0,0.0,0.0,0.0,0.0,0.0,0.0,0.0,0.0,0.0,0.0,0.0,0.0,0.0,-1.5253,0.0,0.0,0.0,0.0,0.0,0.0,0.0,0.0,0.0,-1.683,-1.7124,-1.7427,-1.7754,-1.8132,-1.8419,-1.8522,0.0,0.0,0.0,0.0,0.0,0.0,0.0,-1.9807,-1.9292,-1.9381,-1.9708,-2.0222,-2.0732,-2.0914,-2.0475,0.0,0.0,-1.8741,-1.8627,-1.8743,-1.873,-1.8461,-1.827,-1.8461,-1.8311,-1.8225,0.0,0.0,0.0,0.0,0.0,0.0,0.0,0.0,-1.4097,-1.3955,0.0,-1.3843,0.0,0.0,0.0,0.0,0.0,0.0,0.0,0.0,-1.7997,-1.8616,-1.9204,-1.8692,-1.8555,-1.8808,-1.8362,-1.8267,-1.8374,-1.6116,0.0,0.0,0.0,0.0,0.0,0.0,-1.7213,-1.8242,-1.8744,-1.956,-2.0578,-1.9585,-1.8983,-1.8907,-1.753,-1.6189,-1.5011,-1.431,-1.3838,-1.3632,-1.3235,0.0,0.0,0.0,0.0,0.0,0.0,0.0,0.0,0.0,0.0,0.0,0.0,0.0,0.0,0.0,0.0,0.0,0.0,0.0,0.0,-1.5507,0.0,0.0,0.0,0.0,0.0,0.0,0.0,0.0,0.0,0.0,-1.6784,-1.723,-1.7391,-1.7104,0.0,0.0,0.0,0.0,-1.9675,-2.0566,-2.0738,-2.0556,-1.9995,-2.0386,-2.0556,-1.9995,0.0,0.0,-2.129,-2.1806,-2.2113,-2.1952,-2.1924,-2.1244,-1.8986,-1.9014,-1.9331,-1.9306,-1.9319,-1.9446,-1.9915,-2.0067,-2.0182,-1.8111,0.0,0.0,0.0,0.0,-1.6162,-1.6129,-1.6421,-1.6125,-1.5781,-1.5381,-1.5026,0.0,0.0,0.0,0.0,0.0,0.0,-1.8439,-1.909,-1.957,-2.0099,-2.0758,-2.0449,-2.0112,-1.9789,-1.9396,-1.918,-1.9044,-1.8215,-1.7302,-1.6355,0.0,0.0,0.0,0.0,-1.7911,-1.9258,-1.9472,-1.9936,-2.0679,-1.9597,-1.8807,-1.8431,-1.7232,-1.6456,-1.6195,-1.5152,-1.4534,-1.438,-1.3812,0.0,0.0,0.0,0.0,0.0,0.0,0.0,0.0,0.0,0.0,0.0,0.0,0.0,0.0,0.0,0.0,0.0,0.0,0.0,-1.5418,-1.5584,-1.5538,0.0,0.0,0.0,0.0,0.0,0.0,0.0,0.0,0.0,-1.7515,-1.7695,-1.777,0.0,0.0,-1.8567,-1.8839,-1.9701,-2.0406,-2.0646,-2.138,0.0,0.0,-2.1786,-2.1852,-2.1681,-2.2126,-2.2517,-2.2618,-2.3139,-2.3301,-2.2673,-2.2872,-2.2598,-2.1174,-2.0866,-2.0953,-2.0858,-2.0832,-2.0896,-2.1156,-2.1317,-2.1437,-2.0257,-1.8899,-1.8033,-1.7848,-1.8038,-1.751,-1.7295,-1.7318,-1.6992,-1.6595,-1.6197,-1.5821,-1.5881,-1.6256,-1.6478,0.0,0.0,0.0,-1.9878,-2.0661,-2.0942,-2.1496,-2.2207,-2.1967,-2.162,-2.1162,-2.1051,-2.0875,-2.059,-2.0189,-1.954,-1.8648,0.0,0.0,-1.8002,-1.85,-1.9309,-2.0401,-2.0476,-2.0779,-2.132,-2.0238,-1.9309,-1.8543,-1.7697,-1.7153,-1.6973,-1.5888,-1.5146,-1.4782,-1.4315,-1.3789,0.0,0.0,0.0,0.0,0.0,0.0,0.0,0.0,0.0,0.0,0.0,-1.2636,-1.2856,0.0,0.0,0.0,-1.506,-1.5379,-1.5415,-1.5308,0.0,0.0,0.0,0.0,0.0,0.0,0.0,-1.6718,-1.711,-1.7557,-1.8055,-1.8384,-1.8517,-1.8364,-1.8656,-1.9081,-1.9562,0.0,-2.0869,-2.1302,-2.1969,-2.2414,-2.2414,-2.2597,-2.2792,-2.3054,-2.3341,-2.3535,-2.3504,-2.3774,-2.3807,-2.3415,-2.3498,-2.3482,-2.2716,-2.2575,-2.2429,-2.2096,-2.1961,-2.2024,-2.2312,-2.2477,-2.2606,-2.2556,-2.2267,-2.0897,-2.0107,-1.9723,-1.892,-1.8392,-1.803,-1.7253,-1.6917,-1.6939,-1.6551,-1.7276,-1.8763,-1.9371,0.0,-1.9396,-2.0159,-2.1057,-2.2029,-2.2153,-2.2696,-2.351,-2.3245,-2.295,-2.2666,-2.2927,-2.2948,-2.2653,-2.2031,-2.1729,-2.1719,-2.081,-2.0231,-2.0091,-2.0571,-2.1073,-2.1571,-2.1556,-2.1782,-2.2221,-2.1255,-2.02,-1.9096,-1.8625,-1.8042,-1.7348,-1.6389,-1.5562,-1.4865,-1.4696,-1.4111,-1.3027,0.0,0.0,0.0,0.0,0.0,0.0,0.0,0.0,0.0,0.0,0.0,0.0,0.0,0.0,0.0,-1.6055,0.0,-1.5459,-1.4976,0.0,0.0,0.0,-1.5792,-1.5534,-1.6314,-1.6867,-1.6935,0.0,0.0,-1.8484,-1.9216,-1.9466,-1.8887,-1.8962,-1.9447,-2.0595,-2.0764,-2.1171,-2.2269,-2.2479,-2.2477,-2.2648,-2.3014,-2.3446,-2.3887,-2.4125,-2.4028,-2.394,-2.3894,-2.392,-2.3865,-2.3891,-2.3878,-2.3891,-2.3783,-2.368,-2.3007,-2.2773,-2.284,-2.3259,-2.3479,-2.3513,-2.5255,-2.5034,-2.467,-2.3349,-2.1495,-2.1167,-2.0517,-1.9642,-1.944,-1.9016,-1.8509,-1.8802,-1.9321,-1.9965,-2.0019,-2.0361,-2.0892,-2.1408,-2.2162,-2.3098,-2.3218,-2.3528,-2.4,-2.3955,-2.3665,-2.3271,-2.3587,-2.3649,-2.3462,-2.358,-2.3753,-2.396,-2.3369,-2.2216,-2.0605,-2.1071,-2.1597,-2.2108,-2.2121,-2.197,-2.1694,-2.1458,-2.0752,-1.9635,-1.8718,-1.7762,-1.676,-1.6078,-1.5293,-1.4368,-1.4638,-1.4315,-1.3196,-1.3413,0.0,0.0,0.0,0.0,0.0,0.0,0.0,0.0,0.0,-1.3104,-1.3714,0.0,-1.4628,0.0,-1.5318,-1.579,-1.6321,-1.6329,0.0,0.0,-1.6499,-1.6699,-1.6502,-1.6973,-1.7517,-1.8037,-1.8539,-1.8886,-1.9026,-1.9757,-2.019,-1.9898,-2.0083,-2.053,-2.1211,-2.1315,-2.1707,-2.274,-2.2988,-2.3169,-2.3537,-2.3783,-2.3887,-2.4057,-2.4112,-2.4096,-2.4067,-2.4054,-2.4024,-2.392,-2.3891,-2.3891,-2.3891,-2.3891,-2.3881,-2.3797,-2.3554,-2.3445,-2.3747,-2.3789,-2.3832,-2.633,-2.6411,-2.6411,-2.5445,-2.3846,-2.3123,-2.2243,-2.1317,-2.0925,-2.0354,-1.9768,-2.033,-2.0733,-2.0958,-2.1423,-2.1699,-2.1862,-2.2457,-2.311,-2.3798,-2.3988,-2.4223,-2.4502,-2.5037,-2.4884,-2.4036,-2.4809,-2.501,-2.4696,-2.4842,-2.4983,-2.5126,-2.4632,-2.3753,-2.256,-2.2322,-2.2343,-2.2631,-2.2644,-2.241,-2.187,-2.1619,-2.0953,-1.9836,-1.8756,-1.7654,-1.6525,-1.5994,-1.5237,-1.427,-1.4467,-1.4239,-1.3454,-1.351,-1.3382,0.0,0.0,0.0,0.0,0.0,0.0,0.0,0.0,0.0,0.0,0.0,-1.4988,-1.508,-1.5627,-1.6016,-1.606,-1.6547,-1.6722,-1.6468,-1.7132,-1.7597,-1.7517,-1.8152,-1.8684,-1.8878,-1.9328,-1.966,-1.966,-2.0129,-2.0461,-2.0347,-2.0524,-2.0883,-2.1381,-2.1472,-2.1812,-2.2701,-2.2858,-2.2962,-2.3302,-2.355,-2.3707,-2.3704,-2.3913,-2.4125,-2.4125,-2.4125,-2.4067,-2.4008,-2.3979,-2.3979,-2.4008,-2.3966,-2.4008,-2.4028,-2.3745,-2.3564,-2.3839,-2.3891,-2.3891,-2.6683,-2.6959,-2.6972,-2.6746,-2.6264,-2.4881,-2.3723,-2.2733,-2.1868,-2.129,-2.0991,-2.1577,-2.1852,-2.193,-2.2996,-2.3104,-2.2542,-2.3323,-2.3881,-2.4223,-2.4594,-2.4828,-2.4919,-2.6058,-2.6033,-2.5003,-2.6062,-2.6349,-2.5886,-2.5781,-2.5711,-2.5674,-2.5172,-2.4888,-2.4838,-2.3847,-2.3321,-2.3321,-2.3321,-2.3045,-2.2535,-2.1907,-2.1016,-1.9836,-1.8769,-1.7601,-1.6358,-1.5864,-1.5214,-1.4379,-1.4366,-1.4228,-1.3856,-1.3947,-1.3864,0.0,-1.3535,0.0,0.0,0.0,0.0,0.0,0.0,0.0,0.0,-1.4937,-1.5234,-1.5777,-1.6278,-1.6303,-1.5633,-1.6416,-1.6955,-1.6928,-1.7867,-1.8499,-1.8521,-1.9382,-1.9877,-1.9529,-1.9913,-2.0195,-2.0182,-2.0372,-2.0524,-2.0486,-2.0599,-2.0844,-2.1263,-2.1355,-2.1603,-2.2269,-2.2413,-2.2492,-2.2545,-2.2831,-2.3132,-2.325,-2.3587,-2.3992,-2.4083,-2.4125,-2.4125,-2.4096,-2.4096,-2.4096,-2.4125,-2.4112,-2.4125,-2.4112,-2.3717,-2.3532,-2.3836,-2.3816,-2.3842,-2.7308,-2.7386,-2.7399,-2.7333,-2.7168,-2.6199,-2.4848,-2.3287,-2.2413,-2.2293,-2.2728,-2.2947,-2.3128,-2.3237,-2.3504,-2.3541,-2.3382,-2.3899,-2.4171,-2.4223,-2.5001,-2.5298,-2.5228,-2.5887,-2.5985,-2.5634,-2.5895,-2.6015,-2.591,-2.618,-2.6323,-2.6311,-2.5724,-2.546,-2.5423,0.0,0.0,0.0,-2.4474,-2.4243,-2.3678,-2.2673,-2.1393,-1.9849,-1.8769,0.0,-1.5423,-1.5137,-1.4841,-1.4428,-1.47,0.0,0.0,0.0,0.0,0.0,0.0,0.0,0.0,0.0,0.0,0.0,-1.584,-1.5484,-1.5293,-1.5218,-1.5369,-1.5904,-1.5967,-1.625,-1.6957,-1.7569,-1.7937,-1.7951,-1.8869,-1.9371,-1.8982,-1.9548,-1.9965,-1.9902,-2.008,-2.0195,-2.022,-2.0372,-2.0524,-2.0524,-2.0612,-2.0751,-2.0831,-2.0883,-2.125,-2.2152,-2.2296,-2.2374,-2.24,-2.248,-2.2727,-2.308,-2.3248,-2.3548,-2.3965,-2.4099,-2.4083,-2.4112,-2.4125,-2.4125,-2.4125,-2.4125,-2.4112,-2.4112,-2.3979,-2.3952,-2.4057,-2.3663,-2.3451,-2.7503,0.0,-2.7503,-2.7503,0.0,-2.637,-2.5383,-2.4462,-2.3622,-2.3376,-2.358,-2.3498,-2.3514,-2.3626,-2.3893,-2.3838,-2.3626,-2.4333,-2.4622,-2.459,-2.5753,-2.6191,-2.5981,-2.6867,-2.7017,-2.6396,-2.6627,-2.6542,-2.6223,-2.6396,-2.6487,-2.6487,-2.6197,-2.6059,-2.6047,-2.5762,-2.5372,-2.48,-2.4556,-2.428,-2.3979,-2.2899,-2.1656,-2.0275,0.0,0.0,0.0,0.0,0.0,0.0,0.0,0.0,0.0,0.0,0.0,-1.6156,-1.634,-1.6866,-1.7694,-1.7496,-1.7436,-1.7746,-1.7217,-1.6483,-1.5665,-1.5738,-1.6076,-1.6646,-1.686,-1.7206,-1.775,-1.8518,-1.8882,-1.8694,-1.9334,-1.9736,-1.9649,-1.9877,-2.0182,-2.0322,-2.0423,-2.0448,-2.0448,-2.0524,-2.0574,-2.0612,-2.0662,-2.0699,-2.0699,-2.0699,-2.0961,-2.1485,-2.1551,-2.1551,-2.1603,-2.2086,-2.2309,-2.2439,-2.2804,-2.3289,-2.3616,-2.3668,-2.3731,-2.4005,-2.4125,-2.4125,-2.4125,-2.4125,-2.4005,-2.3691,-2.3446,-2.3289,-2.3276,-2.3208,-2.3261,-2.7581,-2.7516,-2.7628,-2.7594,-2.743,-2.6408,-2.5996,-2.5852,0.0,0.0,0.0,-2.3982,-2.3888,-2.3884,-2.4249,-2.4216,-2.3932,-2.4728,-2.5099,-2.5209,-2.648,-2.7029,-2.6968,-2.795,-2.799,-2.7253,-2.7483,-2.7275,-2.6719,-2.6706,-2.6694,-2.6694,-2.6571,-2.6487,-2.6487,-2.6487,-2.6047,-2.5134,-2.4669,-2.4381,-2.4255,-2.3188,-2.2083,-2.1006,-1.9798,-1.8393,-1.6873,-1.6283,-1.5863,-1.5599,-1.602,-1.615,-1.5937,-1.6365,-1.6632,-1.6603,-1.6629,-1.7213,-1.8462,-1.8147,-1.8271,-1.9117,-1.8255,-1.7264,-1.614,-1.643,-1.6911,-1.7498,-1.7953,-1.8191,-1.8216,-1.907,-1.9497,-1.9045,-1.9484,-1.9939,-2.0131,-2.0233,-2.0347,-2.0599,-2.0649,-2.0699,-2.0674,-2.0674,-2.0699,-2.0699,-2.0699,-2.0699,-2.0699,-2.0699,-2.0712,-2.0804,-2.0856,-2.0751,-2.0843,-2.142,-2.189,-2.1668,-2.2295,-2.2882,-2.3013,-2.3067,-2.3263,-2.36,-2.377,-2.3759,-2.3772,-2.372,-2.3642,-2.3158,-2.2727,-2.24,-2.2426,-2.2662,-2.2882,-2.7968,-2.7529,-2.8059,-2.7981,-2.7496,-2.7503,-2.7389,-2.7114,-2.5765,-2.5206,-2.5305,-2.5381,-2.5179,-2.487,-2.4887,-2.4876,-2.492,-2.5313,-2.5731,0.0,-2.68,-2.7424,-2.8032,-2.7778,-2.7767,-2.7922,-2.7708,-2.7548,-2.7459,-2.7424,-2.7424,-2.7326,-2.6829,-2.6487,-2.6487,-2.6487,-2.6424,-2.626,-2.6185,-2.5908,-2.5372,-2.4318,-2.3226,-2.2083,-2.0526,-1.9183,-1.8086,-1.7471,-1.721,-1.7332,-1.7317,-1.7565,-1.819,-1.852,-1.8796,-1.8856,-1.9093,-1.9359,-1.9573,-1.9497,-1.9359,-1.902,-1.8479,-1.7838,-1.7234,-1.7247,-1.7488,-1.8028,-1.8179,-1.8204,-1.8242,-1.8807,-1.9171,-1.907,-1.9598,-1.999,-2.0054,-2.0296,-2.0486,-2.0537,-2.0624,-2.0699,-2.0699,-2.0699,-2.0699,-2.0699,-2.0699,-2.0699,-2.0699,-2.0699,-2.0699,-2.0699,-2.0699,-2.0699,-2.0738,-2.0804,-2.1171,-2.1472,-2.1642,-2.2021,-2.2453,-2.2506,-2.2597,-2.2675,-2.2753,-2.2728,-2.2715,-2.2624,-2.265,-2.2532,-2.2388,-2.2349,-2.2283,-2.2034,-2.1943,-2.8229,-2.8085,-2.8621,-2.8413,-2.7631,-2.7344,-2.7371,-2.7562,-2.6914,-2.6475,-2.6237,-2.6171,-2.589,-2.5479,-2.5706,-2.5554,-2.5072,-2.6007,-2.6395,-2.6442,-2.7612,-2.8387,-2.8713,-2.895,-2.9062,-2.9003,-2.8454,-2.7997,-2.7621,-2.7177,-2.7015,-2.699,-2.6647,-2.6487,-2.6487,-2.6487,-2.6487,-2.6487,-2.6185,-2.5862,-2.5586,-2.4556,-2.3602,-2.2744,-2.1418,-2.02,-1.9157,-1.858,-1.8199,-1.8081,-1.8232,-1.8407,-1.852,-1.8888,-1.9094,-1.9143,-1.9333,-1.9611,-1.9875,-1.9965,-1.9737,-1.9045,-1.8903,-1.8735,-1.8387,-1.8107,-1.817,-1.8677,-1.88,-1.8975,-1.9242,-1.9509,-1.9661,-1.9661,-1.994,-2.0131,-2.0246,-2.0385,-2.0537,-2.0612,-2.0662,-2.0699,-2.0699,-2.0699,-2.0699,-2.0699,-2.0699,-2.0699,-2.0699,-2.0699,-2.0699,-2.0699,-2.0699,-2.0699,-2.0725,-2.0962,-2.1106,-2.1093,-2.1315,-2.159,-2.1877,-2.1904,-2.2034,-2.2335,-2.2387,-2.2387,-2.2401,-2.24,-2.2269,-2.1943,-2.193,-2.1838,-2.1524,-2.1223,-2.1197,-2.842,-2.8472,-2.9061,-2.8866,-2.8132,-2.7465,-2.7519,-2.7965,-2.7804,-2.745,-2.7098,-2.6889,-2.6574,-2.6223,-2.6426,-2.6171,-2.5847,-2.6655,-2.6929,-2.6881,-2.8192,-2.8911,-2.8918,-2.9517,-2.9699,-2.9535,-2.8911,-2.8382,-2.8033,-2.7259,-2.6716,-2.6512,-2.6487,-2.6487,-2.6487,-2.6487,-2.6487,-2.6461,-2.6047,-2.582,-2.5762,-2.4845,-2.4092,-2.3459,-2.2406,-2.1393,-2.0413,-1.9848,-1.9384,-1.9027,-1.9384,-1.9371,-1.8885,-1.9231,-1.9409,-1.9308,-1.9345,-1.956,-1.9953,-2.0131,-1.9952,-1.9346,-1.9469,-1.953,-1.9406,-1.905,-1.8949,-1.9318,-1.9456,-1.9684,-1.9965,-2.0105,-2.0156,-2.0156,-2.0233,-2.0322,-2.0461,-2.0537,-2.0574,-2.0674,-2.0699,-2.0699,-2.0699,-2.0699,-2.0699,-2.0699,-2.0699,-2.0699,-2.0699,-2.0699,-2.0699,-2.0699,-2.0699,-2.0699,-2.07,-2.1014,-2.1093,-2.0726,-2.1002,-2.1237,-2.1315,-2.1315,-2.1446,-2.1838,-2.1943,-2.1904,-2.1982,-2.1969,-2.1773,-2.1394,-2.1341,-2.1185,-2.0895,-2.0909,-2.0896,-2.842,-2.8512,-2.9074,-2.9333,-2.9218,-2.8799,-2.8697,-2.878,-2.8089,-2.7666,-2.7567,-2.7747,-2.7659,-2.7561,-2.6759,-2.6759,-2.7375,-2.7195,-2.7203,-2.7538,-2.805,-2.8274,-2.8211,-2.7963,-2.8234,-2.8938,-2.8498,-2.8621,-2.9292,-2.8238,-2.7325,-2.6584,-2.6487,-2.6487,-2.6487,-2.6487,-2.6487,-2.6487,-2.6436,-2.6411,-2.6373,-2.5762,-2.5197,-2.4669,-2.3547,-2.2681,-2.2033,-2.1556,-2.1085,-2.0751,-2.1132,-2.0982,-2.022,-2.0578,-2.0642,-2.0131,-1.9978,-1.9952,-2.0016,-2.0144,-2.0156,-2.0118,-2.008,-2.0105,-2.008,-2.0029,-1.9978,-1.9965,-1.994,-1.9953,-1.985,-1.9965,-2.0054,-2.0118,-2.0296,-2.0499,-2.0511,-2.0612,-2.0687,-2.0699,-2.0699,-2.0699,-2.0699,-2.0699,-2.0699,-2.0699,-2.0699,-2.0699,-2.0699,-2.0699,-2.0699,-2.0699,-2.0699,-2.0699,-2.0712,-2.0725,-2.0766,-2.0725,-2.0738,-2.0818,-2.0857,-2.0844,-2.0856,-2.1106,-2.0988,-2.1014,-2.0962,-2.0869,-2.0935,-2.0936,-2.0857,-2.0804,-2.0777,-2.1053,-2.1315,-2.842,-2.8425,-2.9061,-2.9034,-2.8619,-2.7914,-2.768,-2.7766,-2.7394,-2.721,-2.7208,-2.7014,-2.6847,-2.6588,-2.664,-2.6547,-2.6239,-2.6705,-2.7033,-2.7236,-2.784,-2.8224,-2.8399,-2.853,-2.8805,-2.909,-2.8429,-2.8355,-2.8531,-2.7729,-2.6942,-2.6559,-2.6589,-2.6589,-2.6533,-2.6589,-2.6602,-2.6487,-2.6589,-2.6589,-2.6436,-2.5933,-2.5564,-2.5411,-2.4678,-2.3844,-2.306,-2.2836,-2.24,-2.1572,-2.1339,-2.1226,-2.1206,-2.1077,-2.091,-2.0732,-2.0438,-2.0296,-2.0296,-2.0347,-2.0309,-2.0207,-2.0322,-2.0372,-2.0372,-2.0448,-2.0448,-2.0309,-2.0296,-2.0296,-2.0309,-2.0359,-2.041,-2.0423,-2.0524,-2.0599,-2.0599,-2.0662,-2.0699,-2.0699,-2.0699,-2.0699,-2.0699,-2.0699,-2.0699,-2.0699,-2.0699,-2.0699,-2.0699,-2.0699,-2.0699,-2.0699,-2.0699,-2.0699,-2.0699,-2.0699,-2.0699,-2.0699,-2.0699,-2.0699,-2.0699,-2.0699,-2.0699,-2.0699,-2.0699,-2.0699,-2.0751,-2.0699,-2.0699,-2.0699,-2.0725,-2.0766,-2.1106,-2.1342,-2.1694,-2.8242,-2.8486,-2.9061,-2.8905,-2.823,-2.7713,-2.7373,-2.7304,-2.7303,-2.7143,-2.6848,-2.6417,-2.6019,-2.5788,-2.6285,-2.6115,-2.572,-2.6752,-2.7144,-2.7136,-2.7987,-2.842,-2.8433,-2.885,-2.9131,-2.9196,-2.8716,-2.8313,-2.8088,-2.7639,-2.7112,-2.6721,-2.6692,-2.6645,-2.6602,-2.6624,-2.6624,-2.6555,-2.6624,-2.6645,-2.6641,-2.6186,-2.5895,-2.5876,-2.5574,-2.4931,-2.4002,-2.3936,-2.3456,-2.2493,-2.1961,-2.1809,-2.1982,-2.1695,-2.149,-2.1403,-2.1186,-2.0926,-2.0732,-2.077,-2.0642,-2.0398,-2.0473,-2.0562,-2.0549,-2.0612,-2.0612,-2.0562,-2.0498,-2.0537,-2.0549,-2.0599,-2.0649,-2.0649,-2.0662,-2.0699,-2.0699,-2.0699,-2.0699,-2.0699,-2.0699,-2.0699,-2.0699,-2.0699,-2.0699,-2.0699,-2.0699,-2.0699,-2.0699,-2.0699,-2.0699,-2.0699,-2.0699,-2.0699,-2.0699,-2.0699,-2.0699,-2.0699,-2.0699,-2.0699,-2.0699,-2.0699,-2.0699,-2.0699,-2.0699,-2.0699,-2.0699,-2.0699,-2.0699,-2.0699,-2.0725,-2.0792,-2.1053,-2.142,-2.2021,-2.7889,-2.8446,-2.9061,-2.8986,-2.8679,-2.903,-2.885,-2.8058,-2.8157,-2.7685,-2.6863,-2.6381,-2.5897,-2.5575,-2.5791,-2.6138,-2.6832,-2.7674,-2.7865,-2.7521,-2.8602,-2.8701,-2.7905,-2.8252,-2.876,-2.9248,-2.9209,-2.8803,-2.8174,-2.854,-2.8225,-2.7041,-2.6794,-2.6726,-2.6692,-2.6589,-2.6602,-2.6658,-2.6602,-2.6726,-2.71,-2.6824,-2.6396,-2.6057,-2.6087,-2.5845,-2.523,-2.4723,-2.4262,-2.3813,-2.3641,-2.3288,-2.2543,-2.2789,-2.2734,-2.2237,-2.2215,-2.1955,-2.1354,-2.1329,-2.1185,-2.0753,-2.0649,-2.07,-2.0727,-2.0613,-2.0613,-2.0713,-2.0613,-2.0461,-2.0334,-2.0473,-2.0537,-2.0549,-2.0637,-2.0699,-2.0699,-2.0699,-2.0699,-2.0699,-2.0699,-2.0699,-2.0699,-2.0699,-2.0699,-2.0699,-2.0699,-2.0699,-2.0699,-2.0699,-2.0699,-2.0699,-2.0699,-2.0699,-2.0699,-2.0699,-2.0699,-2.0699,-2.0699,-2.0699,-2.0699,-2.0699,-2.0699,-2.0699,-2.0699,-2.0699,-2.0699,-2.0699,-2.0699,-2.0699,-2.0699,-2.0792,-2.1093,-2.1786,-2.2309,-2.7607,-2.7855,-2.82,-2.8257,-2.8155,-2.8196,-2.8052,-2.7791,-2.7502,-2.7024,-2.6465,-2.6278,-2.6066,-2.5756,-2.6005,-2.623,-2.6598,-2.7311,-2.7528,-2.7401,-2.8007,-2.8291,-2.8226,-2.8338,-2.8734,-2.9244,-2.9274,-2.8917,-2.8187,-2.8342,-2.7893,-2.7037,-2.6998,-2.6964,-2.6748,-2.6807,-2.6773,-2.6714,-2.6773,-2.6841,-2.6964,-2.7121,-2.7064,-2.6817,-2.6871,-2.6613,-2.6046,-2.556,-2.5052,-2.4434,-2.3722,-2.3337,-2.3342,-2.3245,-2.3117,-2.2854,-2.2556,-2.2112,-2.1524,-2.1485,-2.1263,-2.0766,-2.0699,-2.0857,-2.108,-2.0872,-2.0781,-2.1054,-2.0832,-2.0587,-2.0536,-2.0599,-2.0637,-2.0637,-2.0649,-2.0699,-2.0699,-2.0699,-2.0699,-2.0699,-2.0699,-2.0699,-2.0699,-2.0699,-2.0699,-2.0699,-2.0699,-2.0699,-2.0699,-2.0699,-2.0699,-2.0699,-2.0699,-2.0699,-2.0699,-2.0699,-2.0699,-2.0699,-2.0699,-2.0699,-2.0699,-2.0699,-2.0699,-2.0699,-2.0699,-2.0699,-2.0699,-2.0699,-2.0699,-2.0699,-2.0699,-2.0818,-2.1132,-2.1825,-2.2204,-2.7641,-2.7782,-2.792,-2.8017,-2.8081,-2.8134,-2.799,-2.7766,-2.7648,-2.7253,-2.6767,-2.6856,-2.6696,-2.6384,-2.6809,-2.7019,-2.704,-2.7569,-2.7868,-2.7999,-2.8369,-2.8688,-2.8913,-2.8948,-2.9144,-2.9549,-2.9758,-2.9451,-2.8776,-2.8555,-2.8062,-2.7327,-2.7304,-2.7167,-2.6964,-2.6977,-2.6943,-2.693,-2.6977,-2.6977,-2.6998,-2.7268,-2.7436,-2.7369,-2.7356,-2.72,-2.6765,-2.6134,-2.5592,-2.4992,-2.3962,-2.3521,-2.3888,-2.3647,-2.3511,-2.3459,-2.3143,-2.2582,-2.1903,-2.1799,-2.1472,-2.0779,-2.087,-2.1145,-2.1459,-2.1341,-2.1459,-2.1577,-2.1276,-2.0962,-2.0909,-2.0792,-2.0699,-2.0699,-2.0699,-2.0699,-2.0699,-2.0699,-2.0699,-2.0699,-2.0699,-2.0699,-2.0699,-2.0699,-2.0699,-2.0699,-2.0699,-2.0699,-2.0699,-2.0699,-2.0699,-2.0699,-2.0699,-2.0699,-2.0699,-2.0699,-2.0699,-2.0699,-2.0699,-2.0699,-2.0699,-2.0699,-2.0699,-2.0699,-2.0699,-2.0699,-2.0699,-2.0699,-2.0699,-2.0699,-2.0712,-2.0791,-2.1263,-2.1852,-2.2152,-2.7863,-2.832,-2.8399,-2.8546,-2.8777,-2.9108,-2.8963,-2.852,-2.8797,-2.8431,-2.7779,-2.8078,-2.7698,-2.7297,-2.8001,-2.8461,-2.8399,-2.8775,-2.9098,-2.9393,-2.9762,-2.992,-2.9944,-2.9918,-2.997,-3.0127,-3.0673,-3.0607,-2.9944,-2.9409,-2.8873,-2.8338,-2.766,-2.7419,-2.7307,-2.7203,-2.7151,-2.718,-2.7113,-2.718,-2.7436,-2.7369,-2.7403,-2.7469,-2.7503,-2.7443,-2.7438,-2.6419,-2.5845,-2.5688,-2.4696,-2.4138,-2.4096,-2.4047,-2.4086,-2.4047,-2.4018,-2.3483,-2.2583,-2.2334,-2.1825,-2.1066,-2.1185,-2.1472,-2.1642,-2.1995,-2.227,-2.2283,-2.1799,-2.1446,-2.1355,-2.1001,-2.0699,-2.0699,-2.0699,-2.0699,-2.0699,-2.0699,-2.0699,-2.0699,-2.0699,-2.0699,-2.0699,-2.0699,-2.0699,-2.0699,-2.0699,-2.0699,-2.0699,-2.0699,-2.0699,-2.0699,-2.0699,-2.0699,-2.0699,-2.0699,-2.0699,-2.0699,-2.0699,-2.0699,-2.0699,-2.0699,-2.0699,-2.0699,-2.0699,-2.0699,-2.0699,-2.0699,-2.0699,-2.0699,-2.0712,-2.0738,-2.1092,-2.1538,-2.1982,-2.8229,-2.8456,-2.8964,-2.9354,-2.96,-2.9378,-2.9388,-2.9656,-2.9342,-2.8901,-2.8684,-2.8751,-2.8572,-2.8313,-2.875,-2.9202,-2.955,-2.9819,-2.9819,-2.9661,-2.9954,-3.0113,-3.0113,-3.0113,-3.0346,-3.0686,-3.0895,-3.0699,-3.01,-2.9575,-2.9121,-2.8755,-2.8295,-2.8001,-2.7825,-2.7782,-2.7627,-2.7307,-2.7248,-2.7268,-2.7369,-2.7403,-2.7469,-2.7503,-2.7503,-2.7503,-2.7464,-2.6804,-2.6425,-2.6373,-2.5315,-2.453,-2.4204,-2.4125,-2.4125,-2.4125,-2.4125,-2.3783,-2.3067,-2.2596,-2.2113,-2.1446,-2.1433,-2.1721,-2.206,-2.231,-2.2597,-2.2766,-2.21,-2.1472,-2.1407,-2.1014,-2.0751,-2.0699,-2.0699,-2.0699,-2.0699,-2.0699,-2.0699,-2.0699,-2.0699,-2.0699,-2.0699,-2.0699,-2.0699,-2.0699,-2.0699,-2.0699,-2.0699,-2.0699,-2.0699,-2.0699,-2.0699,-2.0699,-2.0699,-2.0699,-2.0699,-2.0699,-2.0699,-2.0699,-2.0699,-2.0699,-2.0699,-2.0699,-2.0699,-2.0699,-2.0699,-2.0699,-2.0699,-2.0725,-2.0751,-2.0777,-2.0804,-2.1276,-2.1995,-2.883,-2.9069,-2.9533,-3.001,-3.0353,-2.9808,-2.9857,-3.0254,-2.9613,-2.9297,-2.9302,-2.9501,-2.9302,-2.9035,-2.9505,-2.9796,-2.9958,-3.0376,-3.0403,-3.0156,-3.029,-3.0414,-3.0451,-3.0451,-3.0607,-3.0908,-3.1024,-3.0803,-3.0451,-2.9902,-2.9552,-2.934,-2.8965,-2.8547,-2.8252,-2.82,-2.7928,-2.7447,-2.7369,-2.7369,-2.7403,-2.7469,-2.7503,-2.7503,-2.7503,-2.7503,-2.7464,-2.717,-2.6883,-2.6562,-2.5607,-2.4835,-2.4452,-2.4256,-2.4125,-2.4125,-2.4073,-2.3809,-2.3248,-2.2897,-2.2439,-2.1995,-2.1994,-2.2256,-2.2647,-2.2844,-2.321,-2.3328,-2.2712,-2.2112,-2.206,-2.1407,-2.104,-2.1001,-2.083,-2.0712,-2.0699,-2.0699,-2.0699,-2.0699,-2.0699,-2.0699,-2.0699,-2.0699,-2.0699,-2.0699,-2.0699,-2.0699,-2.0699,-2.0699,-2.0699,-2.0699,-2.0699,-2.0699,-2.0699,-2.0699,-2.0699,-2.0699,-2.0699,-2.0699,-2.0699,-2.0699,-2.0699,-2.0699,-2.0699,-2.0699,-2.0699,-2.0699,-2.0699,-2.0738,-2.0817,-2.104,-2.1263,-2.1877,-2.2518,-2.964,-3.0074,-3.0179,-3.0518,-3.0897,-3.0547,-3.0432,-3.0368,-2.996,-2.9768,-2.9884,-3.0139,-2.9935,-2.9541,-3.0302,-3.04,-2.9977,-3.0563,-3.0963,-3.0988,-3.1039,-3.1039,-3.1039,-3.1026,-3.1117,-3.1209,-3.1143,-3.1065,-3.0999,-3.0359,-3.0127,-3.0074,-2.9601,-2.9078,-2.8726,-2.849,-2.8229,-2.7712,-2.7542,-2.749,-2.749,-2.7503,-2.7503,-2.7503,-2.7503,-2.7503,-2.749,-2.7425,-2.721,-2.6621,-2.5685,-2.507,-2.4887,-2.4426,-2.4125,-2.4125,-2.4125,-2.3822,-2.3391,-2.3184,-2.2921,-2.2544,-2.2805,-2.3182,-2.3171,-2.3535,-2.3903,-2.3968,-2.342,-2.3067,-2.2831,-2.2073,-2.1511,-2.142,-2.1093,-2.0844,-2.0805,-2.0843,-2.0831,-2.0779,-2.0751,-2.0699,-2.0699,-2.0699,-2.0699,-2.0699,-2.0699,-2.0699,-2.0699,-2.0699,-2.0699,-2.0699,-2.0699,-2.0699,-2.0699,-2.0699,-2.0699,-2.0699,-2.0699,-2.0699,-2.0699,-2.0699,-2.0699,-2.0699,-2.0699,-2.0699,-2.0699,-2.0699,-2.0699,-2.0712,-2.0936,-2.1342,-2.1733,-2.223,-2.2712,-2.9957,-3.0179,-3.1001,-3.1235,-3.104,-3.0984,-3.0932,-3.0773,-3.0394,-3.0355,-3.0583,-3.0432,-3.043,-3.0478,-3.0506,-3.0544,-3.0654,-3.0884,-3.1248,-3.1575,-3.1588,-3.1588,-3.1575,-3.1575,-3.1823,-3.2084,-3.1744,-3.1575,-3.1497,-3.0596,-3.0348,-3.0725,-3.0176,-2.9836,-2.9653,-2.9222,-2.8752,-2.8177,-2.7673,-2.7503,-2.7516,-2.7503,-2.7503,-2.7503,-2.7503,-2.7503,-2.7503,-2.7503,-2.7262,-2.6719,-2.6007,-2.5393,-2.5044,-2.4452,-2.4125,-2.4125,-2.4112,-2.4073,-2.3809,-2.3443,-2.313,-2.3041,-2.3171,-2.3182,-2.3223,-2.3744,-2.4073,-2.4021,-2.3576,-2.308,-2.2609,-2.1995,-2.1603,-2.1472,-2.1433,-2.1485,-2.1708,-2.1577,-2.1289,-2.1263,-2.0936,-2.0738,-2.0699,-2.0699,-2.0699,-2.0699,-2.0699,-2.0699,-2.0699,-2.0699,-2.0699,-2.0699,-2.0699,-2.0699,-2.0699,-2.0699,-2.0699,-2.0699,-2.0699,-2.0699,-2.0699,-2.0699,-2.0699,-2.0699,-2.0699,-2.0699,-2.0699,-2.0699,-2.0699,-2.0751,-2.1197,-2.1616,-2.1734,-2.2073,-2.2714,-3.0777,-3.1235,-3.1641,-3.1615,-3.1354,-3.1435,-3.1279,-3.0989,-3.0748,-3.0748,-3.0898,-3.0748,-3.0785,-3.0949,-3.0761,-3.0785,-3.1013,-3.1235,-3.1484,-3.1771,-3.2032,-3.2137,-3.2189,-3.2163,-3.2372,-3.2581,-3.2098,-3.1823,-3.1641,-3.0871,-3.0738,-3.0856,-3.066,-3.0348,-3.0022,-2.9575,-2.9131,-2.866,-2.8007,-2.7594,-2.7863,-2.7641,-2.7503,-2.7503,-2.7503,-2.7503,-2.7503,-2.7503,-2.732,-2.6948,-2.6295,-2.5636,-2.5315,-2.4543,-2.4138,-2.4125,-2.4125,-2.4112,-2.406,-2.3731,-2.3587,-2.3574,-2.3574,-2.3574,-2.3626,-2.3942,-2.4125,-2.406,-2.3744,-2.3472,-2.3106,-2.2583,-2.2283,-2.2283,-2.223,-2.2269,-2.2441,-2.1825,-2.1551,-2.1381,-2.1053,-2.0699,-2.0699,-2.0712,-2.0699,-2.0699,-2.0699,-2.0699,-2.0699,-2.0699,-2.0699,-2.0699,-2.0699,-2.0699,-2.0699,-2.0699,-2.0699,-2.0699,-2.0699,-2.0699,-2.0699,-2.0699,-2.0699,-2.0699,-2.0699,-2.0699,-2.0699,-2.0751,-2.087,-2.108,-2.1498,-2.193,-2.2165,-2.2439,-2.3001,-3.1705,-3.2633,-3.2176,-3.1941,-3.1915,-3.1967,-3.1719,-3.1169,-3.1092,-3.1065,-3.0999,-3.0986,-3.0986,-3.1024,-3.0949,-3.1026,-3.1117,-3.1523,-3.1876,-3.2228,-3.2646,-3.2947,-3.296,-3.2829,-3.2894,-3.2934,-3.228,-3.2124,-3.2019,-3.1535,-3.1143,-3.1169,-3.1104,-3.0764,-3.0333,-2.9719,-2.9454,-2.9196,-2.8412,-2.8137,-2.836,-2.8124,-2.7902,-2.7719,-2.7529,-2.7503,-2.7503,-2.7503,-2.7464,-2.749,-2.6459,-2.5936,-2.572,-2.4723,-2.423,-2.4125,-2.4125,-2.4125,-2.4125,-2.4073,-2.4073,-2.4047,-2.406,-2.4125,-2.406,-2.4099,-2.4125,-2.4125,-2.4125,-2.3942,-2.3733,-2.3406,-2.3119,-2.3027,-2.3117,-2.3041,-2.2624,-2.2034,-2.1694,-2.1655,-2.1237,-2.0923,-2.0779,-2.0752,-2.0766,-2.0699,-2.0699,-2.0699,-2.0699,-2.0699,-2.0699,-2.0699,-2.0699,-2.0699,-2.0699,-2.0699,-2.0699,-2.0699,-2.0699,-2.0699,-2.0699,-2.0699,-2.0699,-2.0699,-2.0699,-2.0699,-2.0699,-2.0792,-2.0949,-2.1342,-2.176,-2.24,-2.2975,-2.3289,-2.3759,-3.2071,-3.2725,-3.3064,-3.2947,-3.2633,-3.2973,-3.2607,-3.1588,-3.1588,-3.1339,-3.1065,-3.1024,-3.1024,-3.1024,-3.1039,-3.1222,-3.1562,-3.185,-3.2254,-3.3273,-3.3783,-3.4005,-3.3914,-3.3587,-3.3626,-3.3718,-3.3456,-3.3195,-3.3025,-3.245,-3.2071,-3.1641,-3.1523,-3.1378,-3.083,-3.0333,-2.9918,-2.98,-2.9235,-2.8935,-2.9013,-2.8943,-2.8582,-2.819,-2.7785,-2.7516,-2.7503,-2.7503,-2.7503,-2.7333,-2.6896,-2.6321,-2.585,-2.5197,-2.4622,-2.4269,-2.4164,-2.4151,-2.4125,-2.4125,-2.4125,-2.4125,-2.4125,-2.4125,-2.4125,-2.4125,-2.4125,-2.4125,-2.4112,-2.3926,-2.3574,-2.3341,-2.3248,-2.3354,-2.3616,-2.3825,-2.3655,-2.3143,-2.2752,-2.2634,-2.2283,-2.1838,-2.1381,-2.1263,-2.1106,-2.0805,-2.0699,-2.0699,-2.0699,-2.0699,-2.0699,-2.0699,-2.0699,-2.0699,-2.0699,-2.0699,-2.0699,-2.0699,-2.0699,-2.0699,-2.0699,-2.0699,-2.0699,-2.0699,-2.0699,-2.0699,-2.0699,-2.0738,-2.0882,-2.1433,-2.2021,-2.2622,-2.3223,-2.3772,-2.4125,-3.2685,-3.3483,-3.3574,-3.3247,-3.2803,-3.3012,-3.2515,-3.1588,-3.1444,-3.1274,-3.1039,-3.1024,-3.1024,-3.1013,-3.1261,-3.1588,-3.1902,-3.2424,-3.313,-3.3875,-3.4267,-3.4371,-3.4371,-3.4149,-3.4149,-3.4306,-3.3835,-3.3613,-3.3378,-3.2829,-3.2228,-3.2163,-3.1967,-3.1888,-3.1718,-3.1196,-3.0949,-3.074,-3.0061,-2.968,-2.9666,-2.9428,-2.9022,-2.8525,-2.8072,-2.7837,-2.7529,-2.7503,-2.7503,-2.7411,-2.719,-2.6804,-2.6255,-2.568,-2.5105,-2.4648,-2.4517,-2.4347,-2.4217,-2.4125,-2.4125,-2.4125,-2.4125,-2.4125,-2.4125,-2.4125,-2.4125,-2.4125,-2.4099,-2.3968,-2.3652,-2.3642,-2.3629,-2.3652,-2.3916,-2.4112,-2.3992,-2.3561,-2.3182,-2.3106,-2.2662,-2.21,-2.176,-2.1681,-2.1263,-2.0857,-2.0738,-2.0738,-2.0699,-2.0699,-2.0699,-2.0699,-2.0699,-2.0699,-2.0699,-2.0699,-2.0699,-2.0699,-2.0699,-2.0699,-2.0699,-2.0699,-2.0699,-2.0699,-2.0699,-2.0699,-2.0699,-2.0751,-2.104,-2.176,-2.2361,-2.2844,-2.3341,-2.3903,-2.4125,-3.3352,-3.4332,-3.3718,-3.3208,-3.2842,-3.2751,-3.215,-3.1248,-3.1117,-3.1156,-3.1024,-3.1024,-3.1052,-3.1222,-3.1562,-3.1836,-3.2359,-3.313,-3.3953,-3.4267,-3.4358,-3.4397,-3.4384,-3.4358,-3.4332,-3.4332,-3.3992,-3.3783,-3.3509,-3.2829,-3.2751,-3.2738,-3.2411,-3.2333,-3.2489,-3.2084,-3.1654,-3.1484,-3.0701,-3.0268,-3.0228,-2.9849,-2.9392,-2.8895,-2.8399,-2.8137,-2.7785,-2.7594,-2.7503,-2.7503,-2.7503,-2.7262,-2.6817,-2.6255,-2.5694,-2.5188,-2.5092,-2.4844,-2.4465,-2.4308,-2.4269,-2.4164,-2.4125,-2.4125,-2.4125,-2.4125,-2.4125,-2.4125,-2.4112,-2.4112,-2.4083,-2.4034,-2.406,-2.4086,-2.4099,-2.4125,-2.4034,-2.3655,-2.3472,-2.3367,-2.3197,-2.2779,-2.2296,-2.2008,-2.1446,-2.0975,-2.0844,-2.0726,-2.0725,-2.0699,-2.0699,-2.0699,-2.0699,-2.0699,-2.0699,-2.0699,-2.0699,-2.0699,-2.0699,-2.0725,-2.0712,-2.0699,-2.0699,-2.0699,-2.0699,-2.0699,-2.0791,-2.0909,-2.138,-2.2139,-2.2676,-2.3067,-2.3537,-2.4034,-2.4125,-3.3352,-3.4306,-3.3287,-3.3051,-3.3313,-3.2894,-3.228,-3.1732,-3.1588,-3.1418,-3.1039,-3.1037,-3.13,-3.1615,-3.1732,-3.2319,-3.3234,-3.3901,-3.4267,-3.4397,-3.4397,-3.4397,-3.4397,-3.4397,-3.4397,-3.4384,-3.4241,-3.4201,-3.4201,-3.4058,-3.3535,-3.3443,-3.326,-3.313,-3.2698,-3.2189,-3.2019,-3.1954,-3.1326,-3.096,-3.0803,-3.062,-3.0255,-2.964,-2.8974,-2.8477,-2.8224,-2.7798,-2.7503,-2.7503,-2.7503,-2.7425,-2.7262,-2.6804,-2.6282,-2.5837,-2.568,-2.5432,-2.4936,-2.4861,-2.457,-2.4269,-2.4178,-2.4109,-2.4096,-2.4125,-2.4125,-2.4125,-2.4125,-2.4125,-2.4125,-2.4125,-2.4125,-2.4125,-2.4125,-2.4125,-2.4057,-2.3965,-2.3877,-2.3812,-2.3694,-2.3459,-2.2897,-2.2347,-2.1877,-2.1368,-2.1066,-2.0857,-2.0687,-2.0699,-2.0699,-2.0699,-2.0699,-2.0699,-2.0699,-2.0699,-2.0699,-2.0699,-2.0712,-2.0777,-2.0764,-2.0712,-2.0699,-2.0818,-2.0791,-2.0699,-2.0818,-2.1014,-2.1564,-2.2192,-2.2714,-2.3237,-2.3707,-2.4125,-2.4125,-3.33,-3.3456,-3.2908,-3.2855,-3.2999,-3.2502,-3.2058,-3.1784,-3.1497,-3.1431,-3.1431,-3.1457,-3.1744,-3.2228,-3.2646,-3.3247,-3.3901,-3.4241,-3.4397,-3.4397,-3.4397,-3.4397,-3.4397,-3.4397,-3.4397,-3.4397,-3.4397,-3.4397,-3.4358,-3.4045,-3.4018,-3.3979,-3.3757,-3.3548,-3.3548,-3.3391,-3.2947,-3.2672,-3.215,-3.1692,-3.1392,-3.1182,-3.0699,-3.0111,-2.964,-2.9183,-2.88,-2.8268,-2.7994,-2.7928,-2.7659,-2.7529,-2.7411,-2.7249,-2.6844,-2.6386,-2.6269,-2.602,-2.5537,-2.5393,-2.5145,-2.4691,-2.4543,-2.4387,-2.4204,-2.4125,-2.4125,-2.4125,-2.4125,-2.4125,-2.4125,-2.4125,-2.4125,-2.4125,-2.4125,-2.4125,-2.4125,-2.4125,-2.4125,-2.4125,-2.3981,-2.3668,-2.3182,-2.2699,-2.2282,-2.1812,-2.1355,-2.1041,-2.0818,-2.0766,-2.0792,-2.0725,-2.0738,-2.0751,-2.0777,-2.0779,-2.0725,-2.0699,-2.0738,-2.0817,-2.0896,-2.0896,-2.1014,-2.1171,-2.1027,-2.0922,-2.0764,-2.0935,-2.1577,-2.2231,-2.2676,-2.3158,-2.3759,-2.4125,-2.4125,-3.313,-3.2672,-3.245,-3.2411,-3.2411,-3.1876,-3.1706,-3.1693,-3.1378,-3.1522,-3.1928,-3.2006,-3.2333,-3.2894,-3.3456,-3.3992,-3.4397,-3.4397,-3.4397,-3.4397,-3.4397,-3.4397,-3.4397,-3.4397,-3.4397,-3.4397,-3.4397,-3.4397,-3.4332,-3.4071,-3.4084,-3.4149,-3.3901,-3.3927,-3.4201,-3.3979,-3.3927,-3.343,-3.2973,-3.2424,-3.1823,-3.1392,-3.0882,-3.0283,-3.0166,-2.9826,-2.9444,-2.8869,-2.8477,-2.8268,-2.7968,-2.7633,-2.7529,-2.7503,-2.7281,-2.6948,-2.6857,-2.653,-2.6164,-2.5981,-2.568,-2.4992,-2.4979,-2.4678,-2.4295,-2.4125,-2.4125,-2.4125,-2.4125,-2.4125,-2.4125,-2.4125,-2.4125,-2.4125,-2.4125,-2.4125,-2.4125,-2.4125,-2.4125,-2.4125,-2.4125,-2.3916,-2.3496,-2.33,-2.2934,-2.2374,-2.189,-2.1511,-2.1289,-2.1066,-2.1001,-2.0818,-2.0766,-2.083,-2.0844,-2.0936,-2.0818,-2.0712,-2.0777,-2.0856,-2.1014,-2.1146,-2.1355,-2.159,-2.1524,-2.1406,-2.1105,-2.1157,-2.2022,-2.2637,-2.2767,-2.3173,-2.3864,-2.4125,-2.4125,-3.2751,-3.2594,-3.1601,-3.147,-3.1823,-3.1405,-3.1418,-3.181,-3.1732,-3.2019,-3.2515,-3.2607,-3.2881,-3.3496,-3.4018,-3.4306,-3.4384,-3.4397,-3.4397,-3.4397,-3.4397,-3.4397,-3.4397,-3.4397,-3.4397,-3.4397,-3.4397,-3.4397,-3.4371,-3.428,-3.428,-3.4345,-3.4319,-3.4332,-3.4332,-3.411,-3.3378,-3.2921,-3.2738,-3.2424,-3.1928,-3.1757,-3.1378,-3.0934,-3.0464,-3.0163,-2.998,-2.947,-2.9048,-2.8529,-2.8394,-2.802,-2.7607,-2.7503,-2.749,-2.7425,-2.7379,-2.7183,-2.6687,-2.6556,-2.6099,-2.5371,-2.5083,-2.4717,-2.4308,-2.4125,-2.4125,-2.4125,-2.4125,-2.4125,-2.4125,-2.4125,-2.4125,-2.4125,-2.4125,-2.4125,-2.4125,-2.4125,-2.4125,-2.4125,-2.4125,-2.4125,-2.3929,-2.3799,-2.3602,-2.3001,-2.2453,-2.2022,-2.1603,-2.125,-2.1172,-2.104,-2.1066,-2.1106,-2.1302,-2.1341,-2.1263,-2.1013,-2.104,-2.1119,-2.1485,-2.1786,-2.1904,-2.21,-2.2035,-2.2139,-2.2152,-2.2361,-2.2831,-2.3041,-2.3199,-2.3563,-2.406,-2.4151,-2.4125,-3.2019,-3.1679,-3.1196,-3.1509,-3.2202,-3.1705,-3.2006,-3.2568,-3.2098,-3.2124,-3.2607,-3.2685,-3.3182,-3.394,-3.4332,-3.4397,-3.4397,-3.4397,-3.4397,-3.4397,-3.4397,-3.4397,-3.4397,-3.4397,-3.4397,-3.4397,-3.4397,-3.4397,-3.4397,-3.4397,-3.4397,-3.4397,-3.4397,-3.4371,-3.4397,-3.4175,-3.3757,-3.33,-3.2908,-3.2594,-3.2346,-3.2161,-3.191,-3.1457,-3.1106,-3.0819,-3.0501,-3.0035,-2.9693,-2.9248,-2.8856,-2.8294,-2.7981,-2.7745,-2.749,-2.749,-2.749,-2.7359,-2.7196,-2.7144,-2.6491,-2.5785,-2.538,-2.5079,-2.44,-2.4125,-2.4125,-2.4125,-2.4125,-2.4125,-2.4125,-2.4125,-2.4125,-2.4125,-2.4125,-2.4125,-2.4125,-2.4125,-2.4125,-2.4125,-2.4125,-2.4125,-2.406,-2.3827,-2.35,-2.2898,-2.2296,-2.1839,-2.1393,-2.0949,-2.104,-2.125,-2.1355,-2.1485,-2.1786,-2.1956,-2.1995,-2.1825,-2.1773,-2.1943,-2.2269,-2.2531,-2.2648,-2.2818,-2.2951,-2.3041,-2.3197,-2.3093,-2.308,-2.3328,-2.3616,-2.3916,-2.4178,-2.4138,-2.4125,-3.1365,-3.0999,-3.113,-3.1705,-3.2437,-3.2124,-3.2529,-3.3169,-3.245,-3.2398,-3.2842,-3.3104,-3.3652,-3.4228,-3.4384,-3.4397,-3.4397,-3.4397,-3.4397,-3.4397,-3.4397,-3.4397,-3.4397,-3.4397,-3.4397,-3.4397,-3.4397,-3.4397,-3.4397,-3.4397,-3.4397,-3.4397,-3.4397,-3.4397,-3.4397,-3.4332,-3.411,-3.3796,-3.3247,-3.2986,-3.2869,-3.2619,-3.2225,-3.1845,-3.1566,-3.131,-3.0996,-3.062,-3.0309,-2.9852,-2.917,-2.8608,-2.8294,-2.7824,-2.7529,-2.7503,-2.7503,-2.749,-2.7425,-2.7333,-2.6929,-2.6302,-2.5641,-2.5145,-2.457,-2.4256,-2.4125,-2.4125,-2.4125,-2.4125,-2.4125,-2.4125,-2.4125,-2.4125,-2.4125,-2.4125,-2.4125,-2.4125,-2.4125,-2.4125,-2.4125,-2.4125,-2.4024,-2.378,-2.336,-2.2741,-2.2205,-2.1734,-2.1419,-2.113,-2.1328,-2.1707,-2.2021,-2.2178,-2.2361,-2.2584,-2.2596,-2.2597,-2.2572,-2.2624,-2.2885,-2.3171,-2.3393,-2.3576,-2.3827,-2.4181,-2.4472,-2.384,-2.333,-2.389,-2.4308,-2.4138,-2.4148,-2.4164,-2.4256,-3.1026,-3.1026,-3.1523,-3.1797,-3.1967,-3.245,-3.2685,-3.2908,-3.2725,-3.2947,-3.347,-3.3953,-3.4136,-3.4384,-3.4397,-3.4397,-3.4397,-3.4397,-3.4397,-3.4397,-3.4397,-3.4397,-3.4397,-3.4397,-3.4397,-3.4397,-3.4397,-3.4397,-3.4397,-3.4397,-3.4397,-3.4397,-3.4397,-3.4397,-3.4358,-3.4293,-3.4319,-3.4071,-3.3666,-3.3483,-3.3353,-3.3027,-3.245,-3.1888,-3.139,-3.1024,-3.1024,-3.0869,-3.0673,-3.0205,-2.9497,-2.8935,-2.8516,-2.7842,-2.7542,-2.7503,-2.7503,-2.7503,-2.7503,-2.7464,-2.7196,-2.6517,-2.5816,-2.521,-2.4936,-2.4426,-2.4217,-2.4243,-2.4282,-2.4148,-2.4164,-2.4125,-2.4125,-2.4125,-2.4125,-2.4125,-2.4125,-2.4125,-2.4125,-2.4125,-2.4125,-2.4125,-2.4141,-2.395,-2.3555,-2.3003,-2.2719,-2.2286,-2.2247,-2.2049,-2.2101,-2.2388,-2.2766,-2.2975,-2.308,-2.3171,-2.3212,-2.3204,-2.3127,-2.3218,-2.3345,-2.3686,-2.4292,-2.4541,-2.4846,-2.5275,-2.552,-2.4926,-2.4596,-2.487,-2.4953,-2.4564,-2.4442,-2.4488,-2.4635,-3.1024,-3.1078,-3.1967,-3.2359,-3.2424,-3.2986,-3.3247,-3.3247,-3.3247,-3.3352,-3.36,-3.3822,-3.4084,-3.4319,-3.4397,-3.4397,-3.4397,-3.4397,-3.4397,-3.4397,-3.4397,-3.4397,-3.4397,-3.4397,-3.4397,-3.4397,-3.4397,-3.4397,-3.4397,-3.4397,-3.4397,-3.4397,-3.4397,-3.4397,-3.4345,-3.4162,-3.4149,-3.4214,-3.3953,-3.3731,-3.3903,-3.3409,-3.283,-3.2359,-3.1668,-3.1264,-3.1061,-3.1024,-3.0843,-3.049,-2.9745,-2.9235,-2.8765,-2.802,-2.7555,-2.7503,-2.7503,-2.7503,-2.7503,-2.7464,-2.7262,-2.6687,-2.5981,-2.5497,-2.5497,-2.5236,-2.4949,-2.4818,-2.4635,-2.457,-2.4164,-2.4125,-2.4125,-2.4125,-2.4125,-2.4125,-2.4125,-2.4125,-2.4171,-2.4157,-2.4141,-2.4125,-2.4141,-2.4131,-2.371,-2.3276,-2.306,-2.288,-2.2829,-2.2748,-2.2718,-2.2831,-2.321,-2.3576,-2.3694,-2.3762,-2.3804,-2.38,-2.3753,-2.3874,-2.4074,-2.4822,-2.5365,-2.5581,-2.5608,-2.5757,-2.5814,-2.5777,-2.5602,-2.5227,-2.5004,-2.4764,-2.4771,-2.4739,-2.4857,-3.1024,-3.1142,-3.2019,-3.2542,-3.279,-3.3509,-3.3731,-3.36,-3.3574,-3.3587,-3.36,-3.3744,-3.4018,-3.4319,-3.4397,-3.4397,-3.4397,-3.4397,-3.4397,-3.4397,-3.4397,-3.4397,-3.4397,-3.4397,-3.4397,-3.4397,-3.4397,-3.4397,-3.4397,-3.4397,-3.4397,-3.4397,-3.4397,-3.4397,-3.4319,-3.4097,-3.4031,-3.4188,-3.4123,-3.3966,-3.4256,-3.3514,-3.3014,-3.2516,-3.1828,-3.1301,-3.1061,-3.1024,-3.1024,-3.0594,-3.0006,-2.9379,-2.8869,-2.832,-2.7633,-2.7503,-2.7503,-2.7503,-2.7503,-2.7451,-2.732,-2.6987,-2.6438,-2.6138,-2.6046,-2.5942,-2.5484,-2.5288,-2.5197,-2.4988,-2.4465,-2.4439,-2.4269,-2.4243,-2.4138,-2.4125,-2.4125,-2.4112,-2.4187,-2.4232,-2.4245,-2.4245,-2.4216,-2.4205,-2.3887,-2.3476,-2.3201,-2.3117,-2.3147,-2.3105,-2.3083,-2.325,-2.355,-2.3887,-2.4243,-2.4176,-2.4202,-2.4567,-2.4563,-2.4637,-2.4993,-2.5654,-2.59,-2.5784,-2.5818,-2.5993,-2.5999,-2.5884,-2.5524,-2.5114,-2.4859,-2.4629,-2.4518,-2.4475,-2.4805,-3.1024,-3.1065,-3.1615,-3.2176,-3.279,-3.3901,-3.4045,-3.3613,-3.3587,-3.3626,-3.3731,-3.411,-3.4319,-3.4397,-3.4397,-3.4397,-3.4397,-3.4397,-3.4397,-3.4397,-3.4397,-3.4397,-3.4397,-3.4397,-3.4397,-3.4397,-3.4397,-3.4397,-3.4397,-3.4397,-3.4397,-3.4439,-3.4481,-3.4439,-3.4397,-3.4384,-3.4384,-3.4397,-3.4345,-3.4441,-3.426,-3.3488,-3.3014,-3.2594,-3.1841,-3.1286,-3.1161,-3.1198,-3.1198,-3.0939,-3.0007,-2.9433,-2.9144,-2.815,-2.7555,-2.7503,-2.7503,-2.7503,-2.7503,-2.7503,-2.7438,-2.7366,-2.6857,-2.6719,-2.6575,-2.6269,-2.5955,-2.585,-2.5798,-2.5524,-2.5227,-2.4953,-2.4674,-2.4517,-2.4439,-2.4282,-2.4308,-2.4112,-2.4187,-2.4305,-2.4408,-2.4465,-2.4392,-2.4281,-2.3986,-2.3653,-2.3373,-2.3324,-2.3478,-2.3487,-2.3461,-2.3664,-2.3927,-2.4211,-2.4493,-2.4516,-2.4658,-2.5063,-2.5273,-2.5245,-2.5385,-2.5757,-2.5918,-2.5867,-2.5827,-2.5778,-2.5878,-2.5968,-2.5349,-2.4747,-2.4573,-2.4364,-2.4256,-2.4413,-2.4857,-3.1024,-3.1065,-3.2006,-3.2515,-3.2803,-3.3509,-3.3757,-3.3613,-3.3613,-3.3783,-3.4097,-3.4358,-3.4397,-3.4397,-3.4397,-3.4397,-3.4397,-3.4397,-3.4397,-3.4397,-3.4397,-3.4397,-3.4397,-3.4397,-3.4397,-3.4397,-3.4397,-3.4397,-3.4397,-3.4397,-3.4397,-3.4439,-3.4605,-3.466,-3.4494,-3.4397,-3.4397,-3.4439,-3.4647,-3.4881,-3.4762,-3.398,-3.334,-3.3118,-3.2182,-3.1659,-3.1421,-3.1519,-3.1482,-3.1214,-3.0249,-2.9566,-2.9188,-2.8203,-2.7555,-2.7503,-2.7503,-2.7503,-2.7503,-2.7503,-2.7503,-2.7411,-2.7353,-2.7183,-2.717,-2.7059,-2.6804,-2.6491,-2.6399,-2.6086,-2.5694,-2.5563,-2.538,-2.5288,-2.5145,-2.4831,-2.4674,-2.4295,-2.4171,-2.4363,-2.4494,-2.4523,-2.4465,-2.429,-2.4006,-2.3953,-2.371,-2.3824,-2.3995,-2.396,-2.3948,-2.4136,-2.4341,-2.4589,-2.4756,-2.479,-2.492,-2.525,-2.5486,-2.5601,-2.5766,-2.5917,-2.5796,-2.5718,-2.5598,-2.552,-2.5418,-2.5233,-2.4794,-2.4367,-2.4393,-2.4468,-2.4478,-2.4779,-2.5262,-3.1024,-3.1078,-3.1784,-3.2346,-3.2777,-3.3535,-3.3875,-3.3875,-3.3875,-3.4084,-3.4345,-3.4397,-3.4397,-3.4397,-3.4397,-3.4397,-3.4397,-3.4397,-3.4397,-3.4397,-3.4397,-3.4397,-3.4397,-3.4397,-3.4397,-3.4397,-3.4397,-3.4397,-3.4397,-3.4397,-3.4397,-3.4481,-3.4688,-3.4743,-3.4701,-3.4784,-3.4936,-3.5018,-3.5223,-3.5304,-3.5076,-3.4604,-3.3995,-3.3461,-3.2826,-3.2239,-3.194,-3.1836,-3.1836,-3.1322,-3.0635,-2.9729,-2.9123,-2.8477,-2.7758,-2.7581,-2.7503,-2.7503,-2.7503,-2.7503,-2.7503,-2.7477,-2.7503,-2.7503,-2.7503,-2.7385,-2.7275,-2.7066,-2.6961,-2.6634,-2.6255,-2.6151,-2.602,-2.5916,-2.5628,-2.5315,-2.4979,-2.4583,-2.4474,-2.4638,-2.4593,-2.4551,-2.4534,-2.429,-2.4076,-2.4073,-2.4086,-2.4245,-2.4363,-2.4274,-2.4245,-2.445,-2.4637,-2.4818,-2.4959,-2.5102,-2.5257,-2.548,-2.5647,-2.5772,-2.5799,-2.584,-2.5708,-2.5515,-2.5275,-2.5034,-2.4728,-2.4446,-2.4498,-2.4553,-2.4603,-2.4662,-2.4717,-2.5001,-2.5367,-3.1024,-3.1024,-3.0999,-3.1692,-3.2725,-3.3718,-3.4228,-3.4319,-3.4332,-3.4293,-3.428,-3.4254,-3.4267,-3.4332,-3.4371,-3.4397,-3.4397,-3.4397,-3.4397,-3.4397,-3.4397,-3.4397,-3.4397,-3.4397,-3.4397,-3.4397,-3.4397,-3.4397,-3.4397,-3.4397,-3.4397,-3.4439,-3.4577,-3.4743,-3.5031,-3.5277,-3.5426,-3.5507,-3.5507,-3.5642,-3.5573,-3.5056,-3.4456,-3.3873,-3.3309,-3.2672,-3.2241,-3.1946,-3.1776,-3.1306,-3.0679,-2.9945,-2.9287,-2.8699,-2.8124,-2.7706,-2.7503,-2.7503,-2.7503,-2.7503,-2.7503,-2.7503,-2.7503,-2.7503,-2.7503,-2.7503,-2.7411,-2.7372,-2.7294,-2.7066,-2.6804,-2.6661,-2.653,-2.6282,-2.5976,-2.5654,-2.5319,-2.5086,-2.5007,-2.4956,-2.4801,-2.4719,-2.4654,-2.4464,-2.4171,-2.4125,-2.4125,-2.4112,-2.4245,-2.4305,-2.4347,-2.4593,-2.4765,-2.4977,-2.5146,-2.5383,-2.5467,-2.5647,-2.5757,-2.5882,-2.5854,-2.5744,-2.5547,-2.5291,-2.4887,-2.466,-2.4678,-2.4686,-2.4702,-2.4742,-2.4771,-2.4553,-2.4531,-2.4809,-2.5066,-3.1024,-3.1026,-3.1431,-3.1758,-3.2124,-3.2881,-3.3404,-3.3796,-3.3822,-3.3613,-3.3208,-3.3639,-3.3875,-3.3849,-3.4214,-3.4358,-3.4397,-3.4397,-3.4397,-3.4397,-3.4397,-3.4397,-3.4397,-3.4397,-3.4397,-3.4397,-3.4397,-3.4397,-3.4397,-3.4397,-3.4397,-3.4397,-3.466,-3.4908,-3.5154,-3.548,-3.5588,-3.571,-3.575,-3.5884,-3.5798,-3.5235,-3.4753,-3.4272,-3.3624,-3.2964,-3.2341,-3.2264,-3.2032,-3.1499,-3.0924,-3.0187,-2.9336,-2.8747,-2.8124,-2.7594,-2.7503,-2.7503,-2.7503,-2.7503,-2.7503,-2.7503,-2.7503,-2.7503,-2.7503,-2.7503,-2.7503,-2.7503,-2.7503,-2.7255,-2.7183,-2.7092,-2.6981,-2.6824,-2.6569,-2.6287,-2.5957,-2.5721,-2.5631,-2.5418,-2.5237,-2.4936,-2.4885,-2.4553,-2.4274,-2.4171,-2.4138,-2.4178,-2.4226,-2.4358,-2.4478,-2.4708,-2.502,-2.523,-2.5508,-2.5729,-2.5757,-2.5811,-2.5866,-2.5866,-2.5799,-2.5647,-2.5439,-2.5188,-2.4935,-2.489,-2.4914,-2.4995,-2.5116,-2.4941,-2.4914,-2.4574,-2.4408,-2.48,-2.4928,-3.1024,-3.1039,-3.1352,-3.1588,-3.1889,-3.245,-3.2816,-3.2947,-3.313,-3.2999,-3.2777,-3.3352,-3.3587,-3.3705,-3.4149,-3.4397,-3.4397,-3.4397,-3.4397,-3.4397,-3.4397,-3.4397,-3.4397,-3.4397,-3.4397,-3.4397,-3.4397,-3.4397,-3.4397,-3.4397,-3.4397,-3.4397,-3.4743,-3.4908,-3.5113,-3.5318,-3.5521,-3.5723,-3.5884,-3.6005,-3.5756,-3.5462,-3.5237,-3.4568,-3.3896,-3.3175,-3.2513,-3.255,-3.2009,-3.1593,-3.1043,-3.0349,-2.9327,-2.8529,-2.7994,-2.7516,-2.7503,-2.7503,-2.7503,-2.7503,-2.7503,-2.7503,-2.7503,-2.7503,-2.7503,-2.7503,-2.7503,-2.7503,-2.7503,-2.7477,-2.749,-2.749,-2.7477,-2.7451,-2.7229,-2.7007,-2.6701,-2.6383,-2.6169,-2.5991,-2.5697,-2.5314,-2.4996,-2.4651,-2.4466,-2.4528,-2.4616,-2.4675,-2.4678,-2.4696,-2.4759,-2.4892,-2.523,-2.5536,-2.5784,-2.5893,-2.5825,-2.5798,-2.5839,-2.5811,-2.5716,-2.5578,-2.5425,-2.5244,-2.509,-2.5074,-2.5101,-2.546,-2.5611,-2.5392,-2.5199,-2.5124,-2.5032,-2.5157,-2.5111,-3.1024,-3.1024,-3.1024,-3.13,-3.1771,-3.2267,-3.2228,-3.1823,-3.2306,-3.2542,-3.2594,-3.3156,-3.3365,-3.3456,-3.3953,-3.4293,-3.4358,-3.4397,-3.4397,-3.4397,-3.4397,-3.4397,-3.4397,-3.4397,-3.4397,-3.4397,-3.4397,-3.4397,-3.4397,-3.4397,-3.4397,-3.4397,-3.4439,-3.4605,-3.4908,-3.499,-3.5154,-3.5345,-3.5764,-3.6058,-3.5857,-3.5868,-3.5823,-3.4944,-3.4238,-3.3566,-3.2898,-3.228,-3.1609,-3.1434,-3.1022,-3.0278,-2.9183,-2.836,-2.7803,-2.7516,-2.7503,-2.7503,-2.7503,-2.7503,-2.7503,-2.7503,-2.7503,-2.7503,-2.7503,-2.7503,-2.7503,-2.7503,-2.7503,-2.7503,-2.7503,-2.7503,-2.7503,-2.7503,-2.7379,-2.7334,-2.7298,-2.7045,-2.6902,-2.6637,-2.6223,-2.5875,-2.5614,-2.5301,-2.5084,-2.5065,-2.5057,-2.5148,-2.5299,-2.5284,-2.5218,-2.5253,-2.5341,-2.5619,-2.5811,-2.588,-2.5757,-2.5757,-2.5812,-2.5743,-2.5619,-2.5536,-2.5425,-2.5355,-2.53,-2.523,-2.5298,-2.5645,-2.5812,-2.5562,-2.5493,-2.5685,-2.5708,-2.5656,-2.5322,-3.1024,-3.1024,-3.1024,-3.1078,-3.1196,-3.1326,-3.1352,-3.1196,-3.1313,-3.1444,-3.1509,-3.2019,-3.2568,-3.3038,-3.36,-3.4005,-3.4358,-3.4397,-3.4397,-3.4397,-3.4397,-3.4397,-3.4397,-3.4397,-3.4397,-3.4397,-3.4397,-3.4397,-3.4397,-3.4397,-3.4397,-3.4397,-3.4397,-3.4522,-3.4618,-3.4618,-3.4771,-3.5018,-3.548,-3.5844,-3.579,-3.5062,-3.4592,-3.4691,-3.4489,-3.3726,-3.3087,-3.2528,-3.1803,-3.1253,-3.0616,-2.9745,-2.866,-2.8355,-2.7954,-2.7641,-2.7503,-2.7503,-2.7503,-2.7503,-2.7503,-2.7503,-2.7503,-2.7503,-2.7503,-2.7503,-2.7503,-2.7503,-2.7503,-2.7503,-2.7503,-2.7503,-2.7503,-2.7503,-2.7556,-2.7703,-2.7845,-2.7736,-2.7619,-2.723,-2.6805,-2.6432,-2.6184,-2.5931,-2.5783,-2.5686,-2.5633,-2.5739,-2.6125,-2.6212,-2.5964,-2.5862,-2.5493,-2.5633,-2.5868,-2.5825,-2.5702,-2.573,-2.5813,-2.5702,-2.5578,-2.5592,-2.5647,-2.5592,-2.5536,-2.5605,-2.5702,-2.58,-2.5855,-2.573,-2.5908,-2.6154,-2.6073,-2.5984,-2.5596,-3.083,-3.066,-3.0882,-3.1024,-3.1024,-3.1024,-3.1024,-3.1024,-3.1024,-3.1024,-3.1078,-3.1549,-3.2111,-3.2725,-3.3313,-3.3849,-3.4293,-3.4397,-3.4397,-3.4397,-3.4397,-3.4397,-3.4397,-3.4397,-3.4397,-3.4397,-3.4397,-3.4397,-3.4397,-3.4397,-3.4397,-3.4397,-3.4397,-3.4439,-3.4397,-3.4439,-3.4564,-3.4784,-3.5277,-3.5535,-3.5696,-3.5317,-3.5075,-3.5321,-3.459,-3.381,-3.3338,-3.2812,-3.2061,-3.1415,-3.0867,-2.9968,-2.9105,-2.8564,-2.8072,-2.7673,-2.7503,-2.7503,-2.7503,-2.7503,-2.7503,-2.7503,-2.7503,-2.7503,-2.7503,-2.7503,-2.7503,-2.7503,-2.7503,-2.7503,-2.7503,-2.7503,-2.7503,-2.7503,-2.7769,-2.7999,-2.8251,-2.8377,-2.821,-2.7985,-2.7416,-2.6674,-2.636,-2.5999,-2.5988,-2.6529,-2.6456,-2.6676,-2.7004,-2.7162,-2.6905,-2.6628,-2.6325,-2.6119,-2.6316,-2.605,-2.5619,-2.5689,-2.5772,-2.605,-2.612,-2.5952,-2.5853,-2.6036,-2.6176,-2.6246,-2.6329,-2.6329,-2.6204,-2.6159,-2.6362,-2.6662,-2.6514,-2.6333,-2.6115,-3.0634,-3.0309,-3.0777,-3.1024,-3.1024,-3.1024,-3.1024,-3.1024,-3.1024,-3.1024,-3.1026,-3.1483,-3.2058,-3.262,-3.3091,-3.3705,-3.4097,-3.4123,-3.4214,-3.4384,-3.4397,-3.4397,-3.4397,-3.4397,-3.4397,-3.4397,-3.4397,-3.4397,-3.4397,-3.4397,-3.4397,-3.4439,-3.4481,-3.4522,-3.4577,-3.4647,-3.4812,-3.5113,-3.5413,-3.548,-3.5722,-3.5989,-3.5772,-3.5232,-3.4597,-3.3971,-3.3495,-3.2996,-3.2331,-3.1694,-3.1091,-3.0037,-2.921,-2.8556,-2.8085,-2.7693,-2.7503,-2.7503,-2.7503,-2.7503,-2.7503,-2.7503,-2.7503,-2.7503,-2.7503,-2.7503,-2.7503,-2.7503,-2.7503,-2.7503,-2.7503,-2.7503,-2.7503,-2.7636,-2.7967,-2.8327,-2.8598,-2.883,-2.8711,-2.8546,-2.7835,-2.7046,-2.6656,-2.628,-2.6551,-2.711,-2.7471,-2.78,-2.8019,-2.8085,-2.7977,-2.7686,-2.7371,-2.7181,-2.6806,-2.6329,-2.5785,-2.555,-2.5688,-2.6259,-2.668,-2.6624,-2.6638,-2.6764,-2.6905,-2.6807,-2.6891,-2.6932,-2.6803,-2.6533,-2.6488,-2.6634,-2.6723,-2.6612,-2.6708,-3.0516,-3.0843,-3.0947,-3.1024,-3.1024,-3.1024,-3.1024,-3.1024,-3.1024,-3.1024,-3.1013,-3.1091,-3.1457,-3.1967,-3.2032,-3.2725,-3.3796,-3.3849,-3.411,-3.4345,-3.4384,-3.4397,-3.4397,-3.4397,-3.4397,-3.4397,-3.4397,-3.4397,-3.4439,-3.4439,-3.4605,-3.4908,-3.4949,-3.5113,-3.5386,-3.5413,-3.5318,-3.5494,-3.5615,-3.5747,-3.5256,-3.5358,-3.5319,-3.4888,-3.4481,-3.3981,-3.354,-3.3145,-3.2612,-3.1969,-3.1186,-3.0078,-2.914,-2.8529,-2.8111,-2.7785,-2.7581,-2.7503,-2.7503,-2.7503,-2.7503,-2.7503,-2.7503,-2.7503,-2.7503,-2.7503,-2.7503,-2.7503,-2.7503,-2.7503,-2.7503,-2.7503,-2.7536,-2.7789,-2.8118,-2.8457,-2.8798,-2.887,-2.8857,-2.8541,-2.8082,-2.7542,-2.7223,-2.7085,-2.7262,-2.7708,-2.7921,-2.8256,-2.8628,-2.8795,-2.8952,-2.858,-2.824,-2.744,-2.6701,-2.6519,-2.6085,-2.5741,-2.5715,-2.6455,-2.7016,-2.7369,-2.7468,-2.7596,-2.737,-2.7145,-2.7257,-2.7509,-2.714,-2.6842,-2.649,-2.6454,-2.666,-2.7008,-2.722]},{"header":{"parameterUnit":"m.s-1","parameterCategory":1,"la1":31.0,"la2":29.5877,"lo1":-88.7671,"lo2":-86.6584,"dy":0.0162,"dx":0.0185,"nx":115,"ny":88,"refTime":"2023-06-08T00:00:00:Z","depth":0,"parameterNumber":3,"parameterNumberName":"V-component_of_WINDS"},"data":[0.0,0.0,0.0,0.0,0.0,0.0,0.0,0.0,0.0,0.0,0.0,0.0,0.0,0.0,0.0,0.0,0.0,0.0,0.0,0.0,0.0,0.0,0.0,0.0,0.0,0.0,0.0,0.0,0.0,0.0,0.0,0.0,0.0,0.0,0.0,0.0,0.0,0.0,0.0,0.0,0.0,0.0,0.0,0.0,0.0,0.0,0.0,0.0,0.0,0.0,0.0,0.0,0.0,0.0,0.0,0.0,0.0,0.0,0.0,0.0,0.0,0.0,0.0,0.0,0.0,0.0,0.0,0.0,0.0,0.0,0.0,0.0,0.0,0.0,0.0,0.0,0.0,0.0,0.0,0.0,0.0,0.0,0.0,0.0,0.0,0.0,0.0,0.0,0.0,0.0,0.0,0.0,0.0,0.0,0.0,0.0,0.0,0.0,0.0,0.0,0.0,0.0,0.0,0.0,0.0,0.0,0.0,0.0,0.0,0.0,0.0,0.0,0.0,0.0,0.0,0.0,0.0,0.0,0.0,0.0,0.0,0.0,0.0,0.0,0.0,0.0,0.0,0.0,0.0,0.0,0.0,0.0,0.0,0.0,0.0,0.0,0.0,0.0,0.0,0.0,0.0,0.0,0.0,0.0,0.0,0.0,0.0,0.0,0.0,0.0,0.0,0.0,0.0,0.0,0.0,0.0,0.0,0.0,0.0,0.0,0.0,0.0,0.0,0.0,0.0,0.0,0.0,0.0,0.0,0.0,0.0,0.0,0.0,0.0,0.0,0.0,0.0,0.0,0.0,0.0,0.0,0.0,0.0,0.0,0.0,0.0,0.0,0.0,0.0,0.0,0.0,0.0,0.0,0.0,0.0,0.0,0.0,0.0,0.0,0.0,0.0,0.0,0.0,0.0,0.0,0.0,0.0,0.0,0.0,0.0,0.0,0.0,0.0,0.0,0.0,0.0,0.0,0.0,0.0,0.0,0.0,0.0,0.0,0.0,0.0,0.0,0.0,0.0,0.0,0.0,0.0,0.0,0.0,0.0,0.0,0.0,0.0,0.0,0.0,0.0,0.0,0.0,0.0,0.0,0.0,0.0,0.0,0.0,0.0,0.0,0.0,0.0,0.0,0.0,0.0,0.0,0.0,0.0,0.0,0.0,0.0,0.0,0.0,0.0,0.0,0.0,0.0,0.0,0.0,0.0,0.0,0.0,0.0,0.0,0.0,0.0,0.0,0.0,0.0,0.0,0.0,0.0,0.0,0.0,0.0,0.0,0.0,0.0,0.0,0.0,0.0,0.0,0.0,0.0,0.0,0.0,0.0,0.0,0.0,0.0,0.0,0.0,0.0,0.0,0.0,0.0,0.0,0.0,0.0,0.0,0.0,0.0,0.0,0.0,0.0,0.0,0.0,0.0,0.0,0.0,0.0,0.0,0.0,0.0,0.0,0.0,0.0,0.0,0.0,0.0,0.0,0.0,0.0,0.0,0.0,0.0,0.0,0.0,0.0,0.0,0.0,0.0,0.0,0.0,0.0,0.0,0.0,0.0,0.0,0.0,0.0,0.0,0.0,0.0,0.0,0.0,0.0,0.0,0.0,0.0,0.0,0.0,0.0,0.0,0.0,0.0,0.0,0.0,0.0,0.0,0.0,0.0,0.0,0.0,0.0,0.0,0.0,0.0,0.0,0.0,0.0,0.0,0.0,0.0,0.0,0.0,0.0,0.0,0.0,0.0,0.0,0.0,0.0,0.0,0.0,0.0,0.0,0.0,0.0,0.0,0.0,0.0,0.0,0.0,0.0,0.0,0.0,0.0,0.0,0.0,0.0,0.0,0.0,0.0,0.0,0.0,0.0,0.0,0.0,0.0,0.0,0.0,0.0,0.0,0.0,0.0,0.0,0.0,0.0,0.0,0.0,0.0,0.0,0.0,0.0,0.0,0.0,0.0,0.0,0.0,0.0,0.0,0.0,0.0,0.0,0.0,0.0,0.0,0.0,0.0,0.0,0.0,0.0,0.0,0.0,0.0,0.0,0.0,0.0,0.0,0.0,0.0,0.0,0.0,0.0,0.0,0.0,0.0,0.0,0.0,0.0,0.0,0.0,0.0,0.0,0.0,0.0,0.0,0.0,0.0,0.0,0.0,0.0,0.0,0.0,0.0,0.0,0.0,0.0,0.0,0.0,0.0,0.0,0.0,0.0,0.0,0.0,0.0,0.0,0.0,0.0,0.0,0.0,0.0,0.0,0.0,0.0,0.0,0.0,0.0,0.0,0.0,0.0,0.0,0.0,0.0,0.0,0.0,0.0,0.0,0.0,0.0,0.0,0.0,0.0,0.0,0.0,0.0,0.0,0.0,0.0,0.0,0.0,0.0,0.0,0.0,0.0,0.0,0.0,0.0,0.0,0.0,0.0,0.0,0.0,0.0,0.0,0.0,0.0,0.0,0.0,0.0,0.0,0.0,0.0,0.0,0.0,0.0,0.0,0.0,0.0,0.0,0.0,0.0,0.0,0.0,0.0,0.0,0.0,0.0,0.0,0.0,0.0,0.0,0.0,0.0,0.0,0.0,0.0,0.0,0.0,0.0,0.0,0.0,0.0,0.0,0.0,0.0,0.0,0.0,0.0,0.0,0.0,0.0,0.0,0.0,0.0,0.0,0.0,0.0,0.0,0.0,0.0,0.0,0.0,0.0,0.0,0.0,0.0,0.0,0.0,0.0,0.0,0.0,0.0,0.0,0.0,0.0,0.0,0.0,0.0,0.0,0.0,0.0,0.0,0.0,0.0,0.0,0.0,0.0,0.0,0.0,0.0,0.0,0.0,0.0,0.0,0.0,0.0,0.0,0.0,0.0,0.0,0.0,0.0,0.0,0.0,0.0,0.0,0.0,0.0,0.0,0.0,0.0,0.0,0.0,0.0,0.0,0.0,0.0,0.0,0.0,0.0,0.0,0.0,0.0,0.0,0.0,0.0,0.0,0.0,0.0,0.0,0.0,0.0,0.0,0.0,0.0,0.0,0.0,0.0,0.0,0.0,0.0,0.0,0.0,0.0,0.0,0.0,0.0,0.0,0.0,0.0,0.0,0.0,0.0,0.0,0.0,0.0,0.0,0.0,0.0,0.0,0.0,0.0,0.0,0.0,0.0,0.0,0.0,0.0,0.0,0.0,0.0,0.0,0.0,0.0,0.0,0.0,0.0,0.0,0.0,0.0,0.0,0.0,0.0,0.0,0.0,0.0,0.0,0.0,0.0,0.0,0.0,0.0,0.0,0.0,0.0,0.0,0.0,0.0,0.0,0.0,0.0,0.0,0.0,0.0,0.0,0.0,0.0,0.0,0.0,0.0,0.0,0.0,0.0,0.0,0.0,0.0,0.0,0.0,0.0,0.0,0.0,0.0,0.0,0.0,0.0,0.0,0.0,0.0,0.0,0.0,0.0,0.0,0.0,0.0,0.0,0.0,0.0,0.0,0.0,0.0,0.0,0.0,0.0,0.0,0.0,0.0,0.0,0.0,0.0,0.0,0.0,0.0,0.0,0.0,0.0,0.0,0.0,0.0,0.0,0.0,0.0,0.0,0.0,0.0,0.0,0.0,0.0,0.0,0.0,0.0,0.0,0.0,0.0,0.0,0.0,0.0,0.0,0.0,0.0,0.0,0.0,0.0,0.0,0.0,0.0,0.0,0.0,0.0,0.0,0.0,0.0,0.0,0.0,0.0,0.0,0.0,0.0,0.0,0.0,0.0,0.0,0.0,0.0,0.0,0.0,0.0,0.0,0.0,0.0,0.0,0.0,0.0,0.0,0.0,0.0,0.0,0.0,0.0,0.0,0.0,0.0,0.0,0.0,0.0,0.0,0.0,0.0,0.0,0.0,0.0,0.0,0.0,0.0,0.0,0.0,0.0,0.0,0.0,0.0,0.0,0.0,0.0,0.0,0.0,0.0,0.0,0.0,0.0,0.0,0.0,0.0,0.0,0.0,0.0,0.0,0.0,0.0,0.0,0.0,0.0,0.0,0.0,0.0,0.0,0.0,0.0,0.0,0.0,0.0,0.0,0.0,0.0,0.0,0.0,0.0,0.0,0.0,0.0,0.0,0.0,0.0,0.0,0.0,0.0,0.0,0.0,0.0,0.0,0.0,0.0,0.0,0.0,0.0,0.0,0.0,0.0,0.0,0.0,0.0,0.0,0.0,0.0,0.0,0.0,0.0,0.0,0.0,0.0,0.0,0.0,0.0,0.0,0.0,0.0,0.0,0.0,0.0,0.0,0.0,0.0,0.0,0.0,0.0,-1.5062,0.0,0.0,0.0,0.0,0.0,0.0,0.0,0.0,0.0,0.0,0.0,0.0,0.0,0.0,0.0,0.0,0.0,0.0,0.0,0.0,0.0,0.0,0.0,0.0,0.0,0.0,0.0,0.0,0.0,0.0,0.0,0.0,0.0,0.0,0.0,0.0,0.0,0.0,0.0,0.0,0.0,0.0,0.0,0.0,0.0,0.0,0.0,0.0,0.0,0.0,0.0,0.0,0.0,0.0,0.0,0.0,0.0,0.0,0.0,0.0,0.0,0.0,0.0,0.0,0.0,0.0,0.0,0.0,0.0,0.0,0.0,0.0,0.0,0.0,0.0,0.0,0.0,0.0,0.0,0.0,0.0,0.0,0.0,0.0,0.0,0.0,0.0,0.0,0.0,0.0,0.0,0.0,0.0,0.0,0.0,0.0,0.0,0.0,0.0,0.0,0.0,0.0,0.0,0.0,0.0,0.0,0.0,0.0,0.0,0.0,-1.2558,-1.3279,-1.3831,-1.4329,-1.4717,0.0,0.0,0.0,0.0,0.0,0.0,0.0,0.0,0.0,0.0,0.0,0.0,0.0,0.0,0.0,0.0,0.0,0.0,0.0,0.0,0.0,0.0,0.0,0.0,0.0,0.0,0.0,0.0,0.0,0.0,0.0,0.0,0.0,0.0,0.0,0.0,0.0,0.0,0.0,0.0,0.0,0.0,0.0,0.0,0.0,0.0,0.0,0.0,0.0,0.0,0.0,0.0,0.0,0.0,0.0,0.0,0.0,0.0,0.0,0.0,0.0,0.0,0.0,0.0,0.0,0.0,0.0,0.0,0.0,0.0,0.0,0.0,0.0,0.0,0.0,0.0,0.0,0.0,0.0,0.0,0.0,0.0,0.0,0.0,0.0,0.0,0.0,0.0,0.0,0.0,0.0,0.0,0.0,0.0,0.0,0.0,0.0,0.0,0.0,0.0,0.0,0.0,0.0,0.0,0.0,0.0,0.0,0.0,0.0,0.0,0.0,0.0,-1.3435,-1.3857,-1.4211,0.0,0.0,0.0,0.0,0.0,0.0,0.0,0.0,0.0,0.0,0.0,0.0,0.0,0.0,0.0,0.0,0.0,0.0,0.0,0.0,0.0,0.0,0.0,0.0,0.0,0.0,0.0,0.0,0.0,0.0,0.0,0.0,0.0,0.0,0.0,0.0,0.0,0.0,0.0,0.0,0.0,0.0,0.0,0.0,0.0,0.0,0.0,0.0,0.0,0.0,0.0,0.0,0.0,0.0,0.0,0.0,0.0,0.0,0.0,0.0,0.0,0.0,0.0,0.0,0.0,0.0,0.0,0.0,0.0,0.0,0.0,0.0,0.0,0.0,0.0,0.0,0.0,0.0,0.0,0.0,0.0,0.0,0.0,0.0,0.0,0.0,0.0,0.0,0.0,0.0,0.0,0.0,0.0,0.0,0.0,0.0,0.0,0.0,0.0,0.0,0.0,0.0,0.0,0.0,0.0,0.0,0.0,0.0,0.0,0.0,-1.2316,-1.3046,-1.3097,0.0,-1.3647,0.0,0.0,0.0,0.0,0.0,0.0,0.0,0.0,0.0,0.0,0.0,0.0,0.0,0.0,0.0,0.0,0.0,0.0,0.0,0.0,0.0,0.0,0.0,0.0,0.0,0.0,0.0,0.0,0.0,0.0,0.0,0.0,0.0,0.0,0.0,0.0,0.0,0.0,0.0,0.0,0.0,0.0,0.0,0.0,0.0,0.0,0.0,0.0,0.0,0.0,0.0,0.0,0.0,0.0,0.0,0.0,0.0,0.0,0.0,0.0,0.0,0.0,0.0,0.0,0.0,0.0,0.0,0.0,0.0,0.0,0.0,0.0,0.0,0.0,0.0,0.0,0.0,0.0,0.0,0.0,0.0,0.0,0.0,0.0,0.0,0.0,0.0,0.0,0.0,0.0,0.0,0.0,0.0,0.0,0.0,0.0,0.0,0.0,0.0,0.0,0.0,0.0,0.0,0.0,0.0,0.0,0.0,0.0,0.0,0.0,-1.2405,-1.2676,-1.2887,-1.2984,0.0,0.0,0.0,0.0,0.0,0.0,0.0,0.0,0.0,0.0,0.0,0.0,0.0,0.0,0.0,0.0,0.0,0.0,0.0,0.0,0.0,0.0,0.0,0.0,0.0,0.0,0.0,0.0,0.0,0.0,0.0,0.0,0.0,0.0,0.0,0.0,0.0,0.0,0.0,0.0,0.0,0.0,0.0,0.0,0.0,0.0,0.0,0.0,0.0,0.0,0.0,0.0,0.0,0.0,0.0,0.0,0.0,0.0,0.0,0.0,0.0,0.0,0.0,0.0,0.0,0.0,0.0,0.0,0.0,0.0,0.0,0.0,0.0,0.0,0.0,0.0,0.0,0.0,0.0,0.0,0.0,0.0,0.0,0.0,0.0,0.0,0.0,0.0,0.0,0.0,0.0,0.0,0.0,0.0,0.0,0.0,0.0,0.0,0.0,0.0,0.0,0.0,0.0,0.0,0.0,0.0,0.0,0.0,0.0,0.0,-1.2526,-1.2538,-1.2496,-1.2772,-1.2784,-1.252,0.0,0.0,0.0,0.0,0.0,0.0,0.0,0.0,0.0,0.0,0.0,0.0,0.0,0.0,0.0,0.0,0.0,0.0,0.0,0.0,0.0,0.0,0.0,0.0,0.0,0.0,0.0,0.0,0.0,0.0,0.0,0.0,0.0,0.0,0.0,0.0,0.0,0.0,0.0,0.0,0.0,0.0,0.0,0.0,0.0,0.0,0.0,0.0,0.0,0.0,0.0,0.0,0.0,0.0,0.0,0.0,0.0,0.0,0.0,0.0,0.0,0.0,0.0,0.0,0.0,0.0,0.0,0.0,0.0,0.0,0.0,0.0,0.0,0.0,0.0,0.0,0.0,0.0,0.0,0.0,0.0,0.0,0.0,0.0,0.0,0.0,0.0,0.0,0.0,0.0,0.0,0.0,0.0,0.0,0.0,0.0,0.0,0.0,0.0,0.0,0.0,0.0,0.0,0.0,0.0,0.0,0.0,0.0,-1.2692,-1.2692,-1.2692,-1.268,-1.2704,-1.2663,0.0,0.0,0.0,0.0,0.0,0.0,0.0,0.0,0.0,0.0,0.0,0.0,0.0,0.0,0.0,0.0,0.0,0.0,0.0,0.0,0.0,0.0,0.0,0.0,0.0,0.0,0.0,0.0,0.0,0.0,0.0,0.0,0.0,0.0,0.0,0.0,0.0,0.0,0.0,0.0,0.0,0.0,0.0,0.0,0.0,0.0,0.0,0.0,0.0,0.0,0.0,0.0,0.0,0.0,0.0,0.0,0.0,0.0,0.0,0.0,0.0,0.0,0.0,0.0,0.0,0.0,0.0,0.0,0.0,0.0,0.0,0.0,0.0,0.0,0.0,0.0,0.0,0.0,0.0,0.0,0.0,0.0,0.0,0.0,0.0,0.0,0.0,0.0,0.0,0.0,0.0,0.0,0.0,0.0,0.0,0.0,0.0,0.0,0.0,0.0,0.0,0.0,0.0,0.0,0.0,0.0,0.0,0.0,0.0,-1.282,-1.2808,-1.2838,-1.282,-1.2785,-1.2715,0.0,0.0,0.0,0.0,0.0,0.0,0.0,0.0,0.0,0.0,0.0,0.0,0.0,0.0,0.0,0.0,0.0,0.0,0.0,0.0,0.0,0.0,0.0,0.0,0.0,0.0,0.0,0.0,0.0,0.0,0.0,0.0,0.0,0.0,0.0,0.0,0.0,0.0,0.0,0.0,0.0,0.0,0.0,0.0,0.0,0.0,0.0,0.0,0.0,0.0,0.0,0.0,0.0,0.0,0.0,0.0,0.0,0.0,0.0,0.0,0.0,0.0,0.0,0.0,0.0,0.0,0.0,0.0,0.0,0.0,0.0,0.0,0.0,0.0,0.0,0.0,0.0,0.0,0.0,0.0,0.0,0.0,0.0,0.0,0.0,0.0,0.0,0.0,0.0,0.0,0.0,0.0,0.0,0.0,0.0,0.0,0.0,0.0,0.0,0.0,0.0,0.0,0.0,0.0,0.0,0.0,0.0,0.0,0.0,-1.3022,0.0,-1.2995,-1.3087,-1.2973,-1.2868,0.0,0.0,0.0,0.0,0.0,0.0,0.0,0.0,0.0,0.0,0.0,0.0,0.0,0.0,0.0,0.0,0.0,0.0,0.0,0.0,0.0,0.0,0.0,0.0,0.0,0.0,0.0,0.0,0.0,0.0,0.0,0.0,0.0,0.0,0.0,0.0,0.0,0.0,0.0,0.0,0.0,0.0,0.0,0.0,0.0,0.0,0.0,0.0,0.0,0.0,0.0,0.0,0.0,0.0,0.0,0.0,0.0,0.0,0.0,0.0,0.0,0.0,0.0,0.0,0.0,0.0,0.0,0.0,0.0,0.0,0.0,0.0,0.0,0.0,0.0,0.0,0.0,0.0,0.0,0.0,0.0,0.0,0.0,0.0,0.0,0.0,0.0,0.0,0.0,0.0,0.0,0.0,0.0,0.0,0.0,0.0,0.0,0.0,0.0,0.0,0.0,0.0,0.0,0.0,0.0,0.0,0.0,0.0,-1.3035,-1.3268,-1.3151,-1.3215,-1.3463,-1.3232,-1.3042,0.0,0.0,0.0,0.0,0.0,0.0,0.0,0.0,0.0,0.0,0.0,0.0,0.0,0.0,0.0,0.0,0.0,0.0,0.0,0.0,0.0,0.0,0.0,0.0,0.0,0.0,0.0,0.0,0.0,0.0,0.0,0.0,0.0,0.0,0.0,0.0,0.0,0.0,0.0,0.0,0.0,0.0,0.0,0.0,0.0,0.0,0.0,0.0,0.0,0.0,0.0,0.0,0.0,0.0,0.0,0.0,0.0,0.0,0.0,0.0,0.0,0.0,0.0,0.0,0.0,0.0,0.0,0.0,0.0,0.0,0.0,0.0,0.0,0.0,0.0,0.0,0.0,0.0,0.0,0.0,0.0,0.0,0.0,0.0,0.0,0.0,0.0,0.0,0.0,0.0,0.0,0.0,0.0,0.0,0.0,0.0,0.0,0.0,0.0,0.0,0.0,0.0,0.0,0.0,0.0,0.0,0.0,0.0,0.0,-1.3237,-1.3181,-1.3228,-1.3284,-1.3163,-1.3042,0.0,0.0,0.0,0.0,0.0,0.0,0.0,0.0,0.0,0.0,0.0,0.0,0.0,0.0,0.0,0.0,0.0,0.0,0.0,0.0,0.0,0.0,0.0,0.0,0.0,0.0,0.0,0.0,0.0,0.0,0.0,0.0,0.0,0.0,0.0,0.0,0.0,0.0,0.0,0.0,0.0,0.0,0.0,0.0,0.0,0.0,0.0,0.0,0.0,0.0,0.0,0.0,0.0,0.0,0.0,0.0,0.0,0.0,0.0,0.0,0.0,0.0,0.0,0.0,0.0,0.0,0.0,0.0,0.0,0.0,0.0,0.0,0.0,0.0,0.0,0.0,0.0,0.0,0.0,0.0,0.0,0.0,0.0,0.0,0.0,0.0,0.0,0.0,0.0,0.0,0.0,0.0,0.0,0.0,0.0,0.0,0.0,0.0,0.0,0.0,0.0,0.0,0.0,0.0,0.0,0.0,0.0,0.0,0.0,-1.4446,-1.4128,-1.3978,-1.4062,-1.3717,-1.3311,-1.2913,0.0,0.0,0.0,0.0,0.0,0.0,0.0,0.0,0.0,0.0,0.0,0.0,0.0,0.0,0.0,0.0,0.0,0.0,0.0,0.0,0.0,0.0,0.0,0.0,0.0,0.0,0.0,0.0,0.0,0.0,0.0,0.0,0.0,0.0,0.0,0.0,0.0,0.0,0.0,0.0,0.0,0.0,0.0,0.0,0.0,0.0,0.0,0.0,0.0,0.0,0.0,0.0,0.0,0.0,0.0,0.0,0.0,0.0,0.0,0.0,0.0,0.0,0.0,0.0,0.0,0.0,0.0,0.0,0.0,0.0,0.0,0.0,0.0,0.0,0.0,0.0,0.0,0.0,0.0,0.0,0.0,0.0,0.0,0.0,0.0,0.0,0.0,0.0,0.0,0.0,0.0,0.0,0.0,0.0,0.0,0.0,0.0,0.0,0.0,0.0,0.0,0.0,0.0,0.0,0.0,0.0,0.0,0.0,-1.6725,-1.5892,-1.5484,-1.5526,-1.469,-1.3815,0.0,0.0,0.0,0.0,0.0,0.0,0.0,0.0,0.0,0.0,0.0,0.0,0.0,0.0,0.0,0.0,0.0,0.0,0.0,0.0,0.0,0.0,0.0,0.0,0.0,0.0,0.0,0.0,0.0,0.0,0.0,0.0,0.0,0.0,0.0,0.0,0.0,0.0,0.0,0.0,0.0,0.0,0.0,0.0,0.0,0.0,0.0,0.0,0.0,0.0,0.0,0.0,0.0,0.0,0.0,0.0,0.0,0.0,0.0,0.0,0.0,0.0,0.0,0.0,0.0,0.0,0.0,0.0,0.0,0.0,0.0,0.0,0.0,0.0,0.0,0.0,0.0,0.0,0.0,0.0,0.0,0.0,0.0,0.0,0.0,0.0,0.0,0.0,0.0,0.0,0.0,0.0,0.0,0.0,0.0,0.0,0.0,0.0,0.0,0.0,0.0,0.0,0.0,0.0,0.0,0.0,0.0,0.0,0.0,-1.8442,-1.8535,-1.7763,-1.6205,-1.5267,-1.4273,0.0,0.0,0.0,0.0,0.0,0.0,0.0,0.0,0.0,0.0,0.0,0.0,0.0,0.0,0.0,0.0,0.0,0.0,0.0,0.0,0.0,0.0,0.0,0.0,0.0,0.0,0.0,0.0,0.0,0.0,0.0,0.0,0.0,0.0,0.0,0.0,0.0,0.0,0.0,0.0,0.0,0.0,0.0,0.0,0.0,0.0,0.0,0.0,0.0,0.0,0.0,0.0,0.0,0.0,0.0,0.0,0.0,0.0,0.0,0.0,0.0,0.0,0.0,0.0,0.0,0.0,0.0,0.0,0.0,0.0,0.0,0.0,0.0,0.0,0.0,0.0,0.0,0.0,0.0,0.0,0.0,0.0,0.0,0.0,0.0,0.0,0.0,0.0,0.0,0.0,0.0,0.0,0.0,0.0,0.0,0.0,0.0,0.0,0.0,0.0,0.0,0.0,0.0,0.0,0.0,0.0,0.0,0.0,-1.7615,-1.9949,-2.0407,-2.0074,-1.8894,-1.6957,-1.5259,0.0,0.0,0.0,0.0,0.0,0.0,0.0,0.0,0.0,0.0,0.0,0.0,0.0,0.0,0.0,0.0,0.0,0.0,0.0,0.0,0.0,0.0,0.0,0.0,0.0,0.0,0.0,0.0,0.0,0.0,0.0,0.0,0.0,0.0,0.0,0.0,0.0,0.0,0.0,0.0,0.0,0.0,0.0,0.0,0.0,0.0,0.0,0.0,0.0,0.0,0.0,0.0,0.0,0.0,0.0,0.0,0.0,0.0,0.0,0.0,0.0,0.0,0.0,0.0,0.0,0.0,0.0,0.0,0.0,0.0,0.0,0.0,0.0,0.0,0.0,0.0,0.0,0.0,0.0,0.0,0.0,0.0,0.0,0.0,0.0,0.0,0.0,0.0,0.0,0.0,0.0,0.0,0.0,0.0,0.0,0.0,0.0,0.0,0.0,0.0,0.0,0.0,0.0,0.0,0.0,0.0,0.0,0.0,-1.8282,-2.1087,-2.1777,-2.2192,-2.2217,-1.9169,-1.6593,0.0,0.0,0.0,0.0,0.0,0.0,0.0,0.0,0.0,0.0,0.0,0.0,0.0,0.0,0.0,0.0,0.0,0.0,0.0,0.0,0.0,0.0,0.0,0.0,0.0,0.0,0.0,0.0,0.0,0.0,0.0,0.0,0.0,0.0,0.0,0.0,0.0,0.0,0.0,0.0,0.0,0.0,0.0,0.0,0.0,0.0,0.0,0.0,0.0,0.0,0.0,0.0,0.0,0.0,0.0,0.0,0.0,0.0,0.0,0.0,0.0,0.0,0.0,0.0,0.0,0.0,0.0,0.0,0.0,0.0,0.0,0.0,0.0,0.0,0.0,0.0,0.0,0.0,0.0,0.0,0.0,0.0,0.0,0.0,0.0,0.0,0.0,0.0,0.0,0.0,0.0,0.0,0.0,0.0,0.0,0.0,0.0,0.0,0.0,0.0,0.0,0.0,0.0,0.0,0.0,0.0,0.0,0.0,-1.9258,-2.1298,-2.2787,-2.3233,-2.2536,-2.0352,-1.8031,0.0,0.0,0.0,0.0,0.0,0.0,0.0,0.0,0.0,0.0,0.0,0.0,0.0,0.0,0.0,0.0,0.0,0.0,0.0,0.0,0.0,0.0,0.0,0.0,0.0,0.0,0.0,0.0,0.0,0.0,0.0,0.0,0.0,0.0,0.0,0.0,0.0,0.0,0.0,0.0,0.0,0.0,0.0,0.0,0.0,0.0,0.0,0.0,-1.3846,0.0,0.0,0.0,0.0,0.0,0.0,0.0,0.0,0.0,0.0,0.0,0.0,0.0,0.0,0.0,0.0,0.0,0.0,0.0,0.0,0.0,0.0,0.0,0.0,0.0,0.0,0.0,0.0,0.0,0.0,0.0,0.0,0.0,0.0,0.0,0.0,0.0,0.0,0.0,0.0,0.0,0.0,0.0,0.0,0.0,0.0,0.0,0.0,0.0,0.0,0.0,0.0,0.0,0.0,0.0,0.0,0.0,0.0,0.0,-1.9399,-2.1752,-2.2965,-2.3445,-2.3152,-2.1223,-1.8948,0.0,0.0,0.0,0.0,0.0,0.0,0.0,0.0,0.0,0.0,0.0,0.0,0.0,0.0,0.0,0.0,0.0,0.0,0.0,0.0,0.0,0.0,0.0,0.0,0.0,0.0,0.0,0.0,0.0,0.0,0.0,0.0,0.0,0.0,0.0,0.0,0.0,0.0,0.0,0.0,0.0,0.0,0.0,0.0,0.0,0.0,0.0,0.0,0.0,0.0,0.0,0.0,0.0,0.0,0.0,0.0,0.0,0.0,0.0,0.0,0.0,0.0,0.0,0.0,0.0,0.0,0.0,0.0,0.0,0.0,0.0,0.0,0.0,0.0,0.0,0.0,0.0,0.0,0.0,0.0,0.0,0.0,0.0,0.0,0.0,0.0,0.0,0.0,0.0,0.0,0.0,0.0,0.0,0.0,0.0,0.0,0.0,0.0,0.0,0.0,0.0,0.0,0.0,0.0,0.0,0.0,0.0,-1.7704,-1.936,-2.2105,-2.2935,-2.3477,-2.3759,-2.1793,-1.9535,-1.7019,0.0,0.0,0.0,0.0,0.0,0.0,0.0,0.0,0.0,0.0,0.0,0.0,0.0,0.0,0.0,0.0,0.0,0.0,0.0,0.0,0.0,0.0,0.0,0.0,0.0,0.0,0.0,0.0,0.0,0.0,0.0,0.0,0.0,0.0,0.0,0.0,0.0,0.0,-1.3323,-1.3265,0.0,0.0,0.0,0.0,0.0,0.0,0.0,0.0,-1.3803,0.0,0.0,0.0,0.0,0.0,0.0,0.0,0.0,0.0,0.0,0.0,0.0,0.0,0.0,0.0,0.0,0.0,0.0,0.0,0.0,0.0,0.0,0.0,0.0,0.0,0.0,0.0,0.0,0.0,0.0,0.0,0.0,0.0,0.0,0.0,0.0,0.0,0.0,0.0,0.0,0.0,0.0,0.0,0.0,0.0,0.0,0.0,0.0,0.0,0.0,0.0,0.0,0.0,0.0,0.0,0.0,-1.7399,-1.8652,-2.0125,-2.186,-2.3514,-2.3991,-2.3247,-2.1683,-1.9815,-1.7625,0.0,0.0,0.0,0.0,0.0,0.0,0.0,0.0,0.0,0.0,0.0,0.0,0.0,0.0,0.0,0.0,0.0,0.0,0.0,0.0,0.0,0.0,0.0,0.0,0.0,0.0,0.0,0.0,0.0,0.0,0.0,0.0,0.0,0.0,0.0,0.0,0.0,0.0,0.0,-1.3504,-1.3403,0.0,0.0,0.0,0.0,0.0,0.0,0.0,0.0,-1.4645,0.0,0.0,0.0,0.0,0.0,0.0,0.0,0.0,0.0,0.0,0.0,0.0,0.0,0.0,0.0,0.0,0.0,0.0,0.0,0.0,0.0,0.0,0.0,0.0,0.0,0.0,0.0,0.0,0.0,0.0,0.0,0.0,0.0,0.0,0.0,0.0,0.0,0.0,0.0,0.0,0.0,0.0,0.0,0.0,0.0,0.0,0.0,0.0,0.0,0.0,0.0,0.0,0.0,0.0,0.0,-1.7436,-1.8635,-2.0017,-2.1645,-2.3025,-2.3389,-2.2672,-2.0969,-1.9269,0.0,0.0,0.0,0.0,0.0,0.0,0.0,0.0,0.0,0.0,0.0,0.0,0.0,0.0,0.0,0.0,0.0,0.0,0.0,0.0,0.0,0.0,0.0,0.0,0.0,0.0,0.0,0.0,0.0,0.0,0.0,0.0,0.0,0.0,0.0,0.0,0.0,0.0,0.0,0.0,-1.4016,-1.3979,-1.4808,0.0,0.0,0.0,0.0,0.0,0.0,-1.5072,-1.4984,0.0,0.0,0.0,0.0,0.0,0.0,0.0,0.0,0.0,0.0,0.0,0.0,0.0,0.0,0.0,0.0,0.0,0.0,0.0,0.0,0.0,0.0,0.0,0.0,0.0,0.0,0.0,0.0,0.0,0.0,0.0,0.0,0.0,0.0,0.0,0.0,0.0,0.0,0.0,0.0,0.0,0.0,0.0,0.0,0.0,0.0,0.0,0.0,0.0,0.0,0.0,0.0,0.0,0.0,0.0,-1.7748,-1.8579,-1.9875,-2.1793,-2.2475,-2.2644,-2.2266,-2.0338,-1.8652,0.0,0.0,0.0,0.0,0.0,0.0,0.0,0.0,0.0,0.0,0.0,0.0,0.0,0.0,0.0,0.0,0.0,0.0,0.0,0.0,0.0,0.0,0.0,0.0,0.0,0.0,0.0,0.0,0.0,0.0,0.0,0.0,0.0,0.0,0.0,0.0,0.0,0.0,0.0,0.0,0.0,-1.4488,-1.5583,-1.5268,0.0,0.0,0.0,0.0,-1.5663,-1.5815,0.0,0.0,0.0,0.0,0.0,0.0,0.0,0.0,0.0,0.0,0.0,0.0,0.0,0.0,0.0,0.0,0.0,0.0,0.0,0.0,0.0,0.0,0.0,0.0,0.0,0.0,0.0,0.0,0.0,0.0,0.0,0.0,0.0,0.0,0.0,0.0,0.0,0.0,0.0,0.0,0.0,0.0,0.0,0.0,0.0,0.0,0.0,0.0,0.0,0.0,0.0,0.0,0.0,0.0,0.0,0.0,-1.8606,-1.9128,-2.0445,-2.2599,-2.2628,-2.2475,-2.2287,-2.0304,-1.8619,0.0,0.0,0.0,0.0,0.0,0.0,0.0,0.0,0.0,0.0,0.0,0.0,0.0,0.0,0.0,0.0,0.0,0.0,0.0,0.0,0.0,0.0,0.0,0.0,0.0,0.0,0.0,0.0,0.0,0.0,0.0,0.0,0.0,0.0,0.0,0.0,0.0,0.0,0.0,0.0,0.0,-1.4525,-1.5709,-1.534,-1.4935,0.0,0.0,-1.6183,-1.5756,-1.7729,0.0,0.0,0.0,0.0,0.0,0.0,0.0,0.0,0.0,0.0,0.0,0.0,0.0,0.0,0.0,0.0,0.0,0.0,0.0,0.0,0.0,0.0,0.0,0.0,0.0,0.0,0.0,0.0,0.0,0.0,0.0,0.0,0.0,0.0,0.0,0.0,0.0,0.0,0.0,0.0,0.0,0.0,0.0,0.0,0.0,0.0,0.0,0.0,0.0,0.0,0.0,0.0,0.0,0.0,0.0,-1.5198,-1.8383,-1.9207,-2.0389,-2.1991,-2.242,-2.2226,-2.1416,-1.9757,-1.8234,0.0,0.0,0.0,0.0,0.0,0.0,0.0,0.0,0.0,0.0,0.0,0.0,0.0,0.0,0.0,0.0,0.0,0.0,0.0,0.0,0.0,0.0,0.0,0.0,0.0,0.0,0.0,0.0,0.0,0.0,0.0,0.0,0.0,0.0,0.0,0.0,0.0,0.0,0.0,0.0,0.0,0.0,-1.617,-1.6288,0.0,0.0,0.0,-1.7702,-1.76,0.0,0.0,0.0,0.0,0.0,0.0,0.0,0.0,0.0,0.0,0.0,0.0,0.0,0.0,0.0,0.0,0.0,0.0,0.0,0.0,0.0,0.0,0.0,0.0,0.0,0.0,0.0,0.0,0.0,0.0,0.0,0.0,0.0,0.0,0.0,0.0,0.0,0.0,0.0,0.0,0.0,0.0,0.0,0.0,0.0,0.0,0.0,0.0,0.0,0.0,0.0,0.0,0.0,0.0,0.0,0.0,0.0,-1.8224,-1.9203,-2.0277,-2.1421,-2.2112,-2.1909,-2.0737,-1.9203,0.0,0.0,0.0,0.0,0.0,0.0,0.0,0.0,0.0,0.0,0.0,0.0,0.0,0.0,0.0,0.0,0.0,0.0,0.0,0.0,0.0,0.0,0.0,0.0,0.0,0.0,0.0,-1.0508,0.0,0.0,0.0,0.0,0.0,0.0,0.0,0.0,0.0,0.0,0.0,0.0,0.0,0.0,-1.6624,-1.7008,-1.739,-1.7657,0.0,0.0,-1.8939,-1.875,-1.9476,-1.9722,0.0,0.0,0.0,0.0,0.0,0.0,0.0,0.0,0.0,0.0,0.0,0.0,0.0,0.0,0.0,0.0,0.0,0.0,0.0,0.0,0.0,0.0,0.0,0.0,0.0,0.0,0.0,0.0,0.0,0.0,0.0,0.0,0.0,0.0,0.0,0.0,0.0,0.0,0.0,0.0,0.0,0.0,0.0,0.0,0.0,0.0,0.0,0.0,0.0,0.0,0.0,0.0,0.0,0.0,0.0,-1.8384,-1.9289,-2.0348,-2.1615,-2.1739,-2.1425,-2.0688,-1.8805,-1.7399,0.0,0.0,0.0,0.0,0.0,0.0,0.0,0.0,0.0,0.0,0.0,0.0,0.0,0.0,0.0,0.0,0.0,0.0,0.0,0.0,0.0,0.0,0.0,0.0,0.0,0.0,0.0,0.0,0.0,0.0,0.0,0.0,0.0,0.0,0.0,0.0,0.0,0.0,0.0,0.0,0.0,-1.7021,-1.8448,-1.8345,-1.8399,0.0,0.0,-1.9329,-1.8261,-2.0293,-2.1145,-1.8651,0.0,0.0,0.0,0.0,0.0,0.0,0.0,0.0,0.0,0.0,0.0,0.0,0.0,0.0,0.0,0.0,0.0,0.0,0.0,0.0,0.0,0.0,0.0,0.0,0.0,0.0,0.0,0.0,0.0,0.0,0.0,0.0,0.0,0.0,0.0,0.0,0.0,0.0,0.0,0.0,0.0,0.0,0.0,0.0,0.0,0.0,0.0,0.0,0.0,0.0,0.0,0.0,0.0,-1.6098,-1.904,-1.9498,-2.0367,-2.162,-2.1695,-2.1171,-2.0109,-1.8521,-1.7454,0.0,0.0,0.0,0.0,0.0,0.0,0.0,0.0,0.0,0.0,0.0,0.0,0.0,0.0,0.0,0.0,0.0,0.0,0.0,0.0,0.0,0.0,0.0,0.0,0.0,0.0,0.0,0.0,-1.2077,-1.2601,-1.3135,0.0,0.0,0.0,0.0,0.0,0.0,0.0,0.0,0.0,0.0,-1.8085,-1.8559,-1.9059,0.0,0.0,-2.071,-2.0899,-2.0088,-2.105,-2.1326,-1.9644,-1.9509,0.0,0.0,0.0,0.0,0.0,0.0,0.0,0.0,0.0,0.0,0.0,0.0,0.0,0.0,0.0,0.0,0.0,0.0,0.0,0.0,0.0,0.0,0.0,0.0,0.0,0.0,0.0,0.0,0.0,0.0,0.0,0.0,0.0,0.0,0.0,0.0,0.0,0.0,0.0,0.0,0.0,0.0,0.0,0.0,0.0,0.0,0.0,0.0,0.0,0.0,0.0,0.0,-1.6528,-1.9197,-1.974,-2.0543,-2.1665,-2.1695,-2.1156,-2.0004,-1.8506,-1.752,0.0,0.0,0.0,0.0,0.0,0.0,0.0,0.0,0.0,0.0,0.0,0.0,0.0,0.0,0.0,0.0,0.0,0.0,0.0,0.0,0.0,0.0,0.0,0.0,0.0,0.0,0.0,0.0,-1.23,-1.2772,-1.3148,0.0,0.0,0.0,0.0,0.0,0.0,0.0,0.0,0.0,0.0,-1.883,-1.9193,-1.9773,-2.0395,-2.1001,-2.1643,-2.1806,-2.1052,-2.1233,-2.1109,-1.9981,0.0,0.0,0.0,0.0,0.0,0.0,0.0,0.0,0.0,0.0,0.0,0.0,0.0,0.0,0.0,0.0,0.0,0.0,0.0,0.0,0.0,0.0,0.0,0.0,0.0,0.0,0.0,0.0,0.0,0.0,-1.2829,0.0,0.0,0.0,0.0,0.0,0.0,0.0,0.0,0.0,0.0,0.0,0.0,0.0,0.0,0.0,0.0,0.0,0.0,0.0,0.0,0.0,0.0,-1.7228,-1.8629,-1.9997,-2.1002,-2.1665,-2.1695,-2.1365,-2.0628,-1.876,-1.7504,-1.7079,0.0,0.0,0.0,0.0,0.0,0.0,0.0,0.0,0.0,0.0,0.0,0.0,0.0,0.0,0.0,0.0,0.0,0.0,0.0,0.0,0.0,0.0,0.0,0.0,0.0,0.0,-1.2325,-1.2847,-1.319,0.0,0.0,0.0,0.0,0.0,0.0,0.0,0.0,0.0,0.0,-1.8385,-1.9111,-2.0666,-2.0454,-2.063,-2.2025,-2.2212,-2.1786,-2.0561,-2.0747,-2.0582,0.0,0.0,0.0,0.0,0.0,0.0,0.0,0.0,0.0,0.0,0.0,0.0,0.0,0.0,0.0,0.0,0.0,0.0,0.0,0.0,0.0,0.0,0.0,0.0,0.0,0.0,0.0,-1.3269,-1.3357,0.0,0.0,0.0,0.0,0.0,0.0,0.0,0.0,0.0,0.0,0.0,-2.0724,-2.0579,0.0,0.0,0.0,0.0,0.0,0.0,0.0,0.0,0.0,0.0,0.0,0.0,-1.7688,-1.9819,-2.0445,-2.1021,-2.1665,-2.1695,-2.1171,-2.0064,-1.8957,-1.7581,-1.5953,0.0,0.0,0.0,0.0,0.0,0.0,0.0,0.0,0.0,0.0,0.0,0.0,0.0,0.0,0.0,0.0,0.0,0.0,0.0,0.0,0.0,0.0,0.0,0.0,0.0,-1.2337,0.0,0.0,0.0,0.0,0.0,0.0,0.0,0.0,0.0,0.0,0.0,-1.7337,-1.8125,-1.8665,-1.9253,-2.0102,-2.0726,-2.135,0.0,0.0,0.0,0.0,0.0,0.0,0.0,0.0,0.0,0.0,0.0,0.0,0.0,0.0,-2.1259,-2.0104,-1.9932,-1.9952,-1.9894,0.0,0.0,0.0,0.0,0.0,0.0,0.0,0.0,0.0,0.0,0.0,0.0,0.0,0.0,0.0,0.0,-1.4645,0.0,0.0,0.0,0.0,0.0,0.0,0.0,0.0,-2.099,-2.1766,-2.2928,-2.2581,-2.2085,0.0,-2.0865,-1.9932,0.0,0.0,0.0,0.0,0.0,0.0,0.0,0.0,-1.8748,-2.0884,-2.1256,-2.1829,-2.2652,-2.2263,-2.164,-2.0756,-1.9561,-1.8058,-1.6213,-1.5169,-1.4371,0.0,0.0,0.0,0.0,0.0,0.0,0.0,0.0,0.0,0.0,0.0,0.0,0.0,0.0,0.0,0.0,0.0,0.0,0.0,0.0,0.0,0.0,0.0,-1.3056,0.0,0.0,0.0,0.0,0.0,0.0,0.0,0.0,0.0,-1.6395,-1.7237,-1.8007,-1.8505,-1.89,-1.9409,-2.0168,0.0,0.0,0.0,0.0,0.0,0.0,0.0,-2.2192,-2.1474,-2.1525,-2.1888,-2.2607,-2.333,-2.3691,-2.3296,0.0,0.0,-2.175,-2.1617,-2.18,-2.1786,-2.1425,-2.1203,-2.1425,-2.1064,-2.0828,0.0,0.0,0.0,0.0,0.0,0.0,0.0,0.0,-1.5691,-1.5948,0.0,-1.589,0.0,0.0,0.0,0.0,0.0,0.0,0.0,0.0,-2.3191,-2.3774,-2.4305,-2.3764,-2.3275,-2.2969,-2.2275,-2.1769,-2.1371,-1.9163,0.0,0.0,0.0,0.0,0.0,0.0,-2.0333,-2.1739,-2.2388,-2.331,-2.447,-2.334,-2.2673,-2.2583,-2.0525,-1.8871,-1.777,-1.6104,-1.5268,-1.5374,-1.3556,0.0,0.0,0.0,0.0,0.0,0.0,0.0,0.0,0.0,0.0,0.0,0.0,0.0,0.0,0.0,0.0,0.0,0.0,0.0,0.0,-1.3539,0.0,0.0,0.0,0.0,0.0,0.0,0.0,0.0,0.0,0.0,-1.7648,-1.8356,-1.8979,-1.929,0.0,0.0,0.0,0.0,-2.1284,-2.2692,-2.2931,-2.278,-2.2207,-2.2591,-2.278,-2.2207,0.0,0.0,-2.4011,-2.4701,-2.516,-2.5197,-2.5221,-2.4492,-2.2132,-2.2263,-2.2634,-2.2655,-2.267,-2.2819,-2.3369,-2.3341,-2.3268,-1.6632,0.0,0.0,0.0,0.0,-1.692,-1.7486,-1.8277,-1.8226,-1.8113,-1.7969,-1.7987,0.0,0.0,0.0,0.0,0.0,0.0,-2.4084,-2.5623,-2.6387,-2.7039,-2.7547,-2.7509,-2.6811,-2.5558,-2.5565,-2.4771,-2.3256,-2.2696,-2.1224,-1.8856,0.0,0.0,0.0,0.0,-2.1252,-2.2951,-2.3257,-2.3759,-2.459,-2.3355,-2.2463,-2.2014,-2.0445,-1.9439,-1.9045,-1.7701,-1.6609,-1.5936,-1.4974,0.0,0.0,0.0,0.0,0.0,0.0,0.0,0.0,0.0,0.0,0.0,0.0,0.0,0.0,0.0,0.0,0.0,0.0,0.0,-1.3403,-1.4187,-1.4553,0.0,0.0,0.0,0.0,0.0,0.0,0.0,0.0,0.0,-1.9368,-1.9653,-1.9822,0.0,0.0,-2.0576,-2.1015,-2.1736,-2.2416,-2.283,-2.3693,0.0,0.0,-2.4143,-2.4215,-2.408,-2.4573,-2.5062,-2.5286,-2.5868,-2.6221,-2.5967,-2.6312,-2.611,-2.4682,-2.4431,-2.4587,-2.4694,-2.4716,-2.4738,-2.4825,-2.4739,-2.4661,-2.0125,-1.8693,-1.8151,-1.8442,-1.9259,-1.932,-1.9721,-2.0321,-2.0161,-1.9909,-1.9604,-1.9934,-2.001,-1.9985,-2.1329,0.0,0.0,0.0,-2.6741,-2.8178,-2.8626,-2.9116,-2.9536,-2.935,-2.8756,-2.7829,-2.7496,-2.6718,-2.5598,-2.5043,-2.3809,-2.1882,0.0,0.0,-2.1124,-2.1853,-2.2909,-2.4313,-2.4403,-2.4709,-2.5352,-2.4118,-2.3011,-2.2099,-2.0998,-2.0307,-2.005,-1.8768,-1.7655,-1.6781,-1.6073,-1.518,0.0,0.0,0.0,0.0,0.0,0.0,0.0,0.0,0.0,0.0,0.0,-1.1155,-1.1349,0.0,0.0,0.0,-1.3891,-1.4092,-1.4312,-1.4654,0.0,0.0,0.0,0.0,0.0,0.0,0.0,-1.8245,-1.9128,-1.9932,-2.0587,-2.087,-2.0883,-2.0575,-2.0811,-2.1191,-2.1678,0.0,-2.3076,-2.3606,-2.4346,-2.4839,-2.4839,-2.5042,-2.5313,-2.5604,-2.5923,-2.6195,-2.6276,-2.6637,-2.6791,-2.6641,-2.6854,-2.6894,-2.6189,-2.6027,-2.5972,-2.5872,-2.5884,-2.5959,-2.6124,-2.6086,-2.5948,-2.3614,-2.3619,-2.1687,-2.1468,-2.2293,-2.1957,-2.1919,-2.2117,-2.1739,-2.1507,-2.1391,-2.1815,-2.2514,-2.3483,-2.5018,0.0,-2.7572,-2.8132,-2.905,-3.0251,-3.0282,-3.0463,-3.0778,-3.0021,-2.9707,-2.9875,-2.8631,-2.8087,-2.81,-2.6666,-2.5952,-2.5884,-2.4581,-2.3792,-2.3628,-2.4246,-2.4947,-2.5651,-2.5689,-2.5959,-2.6482,-2.533,-2.4073,-2.2808,-2.1952,-2.1218,-2.0628,-1.9316,-1.8302,-1.7637,-1.6831,-1.581,-1.45,0.0,0.0,0.0,0.0,0.0,0.0,0.0,0.0,0.0,0.0,0.0,0.0,0.0,0.0,0.0,-1.6481,0.0,-1.5834,-1.524,0.0,0.0,0.0,-1.7159,-1.7367,-1.8685,-1.9575,-1.9568,0.0,0.0,-2.1405,-2.1959,-2.2051,-2.1442,-2.1245,-2.1598,-2.2823,-2.296,-2.3461,-2.4733,-2.4965,-2.5019,-2.5154,-2.556,-2.6039,-2.6588,-2.6794,-2.6803,-2.6881,-2.6948,-2.6977,-2.6974,-2.7003,-2.6989,-2.7003,-2.6941,-2.6824,-2.635,-2.6372,-2.6624,-2.7113,-2.7129,-2.7049,-2.7083,-2.7261,-2.6746,-2.5705,-2.4403,-2.4404,-2.4343,-2.4255,-2.4167,-2.3906,-2.3585,-2.4174,-2.5351,-2.692,-2.7365,-2.8348,-2.9767,-3.0503,-3.1142,-3.1719,-3.2476,-3.2758,-3.2657,-3.2447,-3.2127,-3.1665,-3.1088,-3.0474,-2.9828,-2.9184,-2.8815,-2.8618,-2.7788,-2.6359,-2.4448,-2.5,-2.5681,-2.6348,-2.6363,-2.6183,-2.5854,-2.5516,-2.4732,-2.34,-2.2258,-2.1122,-1.9974,-1.9119,-1.8145,-1.7009,-1.7215,-1.6798,-1.5519,-1.5228,0.0,0.0,0.0,0.0,0.0,0.0,0.0,0.0,0.0,-1.2381,-1.2986,0.0,-1.4065,0.0,-1.6213,-1.7082,-1.7199,-1.778,0.0,0.0,-1.8364,-1.871,-1.8858,-1.9742,-2.051,-2.0887,-2.1563,-2.2064,-2.2227,-2.2628,-2.2871,-2.279,-2.26,-2.2751,-2.3557,-2.3673,-2.4109,-2.5255,-2.5531,-2.5789,-2.6141,-2.6471,-2.6588,-2.6777,-2.6779,-2.682,-2.6846,-2.6832,-2.6858,-2.6977,-2.7003,-2.7003,-2.7003,-2.7003,-2.6933,-2.6721,-2.6858,-2.703,-2.7078,-2.7067,-2.7055,-2.8484,-2.8886,-2.8886,-2.826,-2.7251,-2.6895,-2.6566,-2.6266,-2.6131,-2.5761,-2.5302,-2.6375,-2.7955,-2.9793,-2.9965,-3.0632,-3.1662,-3.2296,-3.2624,-3.2756,-3.363,-3.3726,-3.3112,-3.315,-3.2948,-3.2557,-3.1898,-3.1442,-3.1117,-3.0473,-3.0105,-3.0011,-2.9355,-2.8308,-2.6886,-2.6602,-2.6686,-2.7031,-2.7046,-2.6707,-2.6063,-2.5764,-2.4971,-2.364,-2.2353,-2.1085,-1.9738,-1.9061,-1.8039,-1.6708,-1.6976,-1.6709,-1.5684,-1.5507,-1.5125,0.0,0.0,0.0,0.0,0.0,0.0,0.0,0.0,0.0,0.0,0.0,-1.5119,-1.5548,-1.7204,-1.8063,-1.7603,-1.8662,-1.9236,-1.8861,-1.9708,-2.0287,-2.033,-2.1253,-2.1876,-2.1813,-2.2431,-2.2867,-2.2867,-2.3003,-2.3127,-2.3201,-2.3045,-2.3142,-2.3746,-2.39,-2.4278,-2.5212,-2.5386,-2.5502,-2.5879,-2.6155,-2.6329,-2.6384,-2.6617,-2.6794,-2.6794,-2.6794,-2.6846,-2.6899,-2.6925,-2.6925,-2.6899,-2.691,-2.6899,-2.6803,-2.6662,-2.6693,-2.6945,-2.7003,-2.7003,-2.8929,-2.955,-2.9564,-2.9769,-3.0014,-2.9067,-2.846,-2.801,-2.7677,-2.7311,-2.7049,-2.8568,-3.0355,-3.2208,-3.2538,-3.2844,-3.3185,-3.362,-3.3634,-3.334,-3.4085,-3.3939,-3.3068,-3.3054,-3.3023,-3.2956,-3.1898,-3.1611,-3.1966,-3.1067,-3.0642,-3.0597,-2.9998,-2.9726,-2.9666,-2.8483,-2.7854,-2.7854,-2.7854,-2.7525,-2.6856,-2.6108,-2.5046,-2.364,-2.2368,-2.0976,-1.9495,-1.8864,-1.7931,-1.6614,-1.66,-1.6332,-1.5696,-1.5799,-1.5533,0.0,-1.4803,0.0,0.0,0.0,0.0,0.0,0.0,0.0,0.0,-1.6194,-1.6372,-1.7067,-1.8561,-1.9004,-1.7905,-1.901,-1.9808,-1.9908,-2.1059,-2.1803,-2.1733,-2.2744,-2.3221,-2.2515,-2.2958,-2.3282,-2.3268,-2.3179,-2.3097,-2.3105,-2.2978,-2.3099,-2.3615,-2.3717,-2.3992,-2.4733,-2.4892,-2.4979,-2.4984,-2.5357,-2.5691,-2.5821,-2.6253,-2.6704,-2.6806,-2.6794,-2.6794,-2.682,-2.682,-2.682,-2.6794,-2.6779,-2.6794,-2.6779,-2.6399,-2.625,-2.6765,-2.686,-2.689,-3.0262,-3.0349,-3.0364,-3.0423,-3.044,-2.9941,-2.9352,-2.8693,-2.8367,-2.8857,-3.0024,-3.1152,-3.2276,-3.3418,-3.4278,-3.4253,-3.3627,-3.429,-3.4123,-3.334,-3.3787,-3.3956,-3.3862,-3.3509,-3.3409,-3.3482,-3.241,-3.1912,-3.1996,-3.1548,-3.1301,-3.1286,-3.0657,-3.0342,-3.0298,0.0,0.0,0.0,-2.9232,-2.8891,-2.8218,-2.7021,-2.5495,-2.3655,-2.2368,0.0,-1.8138,-1.792,-1.7453,-1.6598,-1.706,0.0,0.0,0.0,0.0,0.0,0.0,0.0,0.0,0.0,0.0,0.0,-1.767,-1.7386,-1.7059,-1.7125,-1.7487,-1.8135,-1.8572,-1.9152,-1.9987,-2.0799,-2.1281,-2.1346,-2.2437,-2.3035,-2.2572,-2.3091,-2.3428,-2.3302,-2.3304,-2.3282,-2.326,-2.3179,-2.3097,-2.3097,-2.2992,-2.2946,-2.3084,-2.3142,-2.3548,-2.4549,-2.4762,-2.4849,-2.4878,-2.4911,-2.5241,-2.5633,-2.5876,-2.621,-2.6675,-2.6765,-2.6806,-2.6779,-2.6794,-2.6794,-2.6794,-2.6794,-2.6779,-2.6779,-2.6689,-2.666,-2.6777,-2.6396,-2.6218,-3.0612,0.0,-3.0612,-3.0612,0.0,-3.0336,-3.005,-2.9674,-2.9301,-2.992,-3.1363,-3.2491,-3.3272,-3.3742,-3.4603,-3.4523,-3.3742,-3.4271,-3.4281,-3.3846,-3.4566,-3.4678,-3.4322,-3.4157,-3.3738,-3.3184,-3.2445,-3.1984,-3.1741,-3.1597,-3.1496,-3.1496,-3.1152,-3.0987,-3.0972,-3.0702,-3.0238,-2.9621,-2.9265,-2.8936,-2.8577,-2.729,-2.5809,-2.4163,0.0,0.0,0.0,0.0,0.0,0.0,0.0,0.0,0.0,0.0,0.0,-1.8382,-1.8714,-1.9317,-2.0176,-2.0038,-2.0013,-2.0235,-1.9763,-1.9004,-1.7981,-1.8305,-1.8864,-1.9533,-1.9916,-2.0415,-2.1107,-2.2069,-2.2503,-2.2278,-2.3041,-2.3417,-2.3108,-2.3221,-2.3319,-2.3223,-2.3135,-2.3112,-2.3112,-2.3045,-2.3,-2.2992,-2.2947,-2.2888,-2.2888,-2.2888,-2.3178,-2.3757,-2.3882,-2.3882,-2.3992,-2.453,-2.4776,-2.4921,-2.5382,-2.5865,-2.6228,-2.6286,-2.6413,-2.6718,-2.6794,-2.6794,-2.6794,-2.6794,-2.6718,-2.637,-2.6039,-2.5865,-2.585,-2.5832,-2.589,-3.0699,-3.0627,-3.0684,-3.0714,-3.0598,-3.0716,-3.0913,-3.1084,0.0,0.0,0.0,-3.3466,-3.4036,-3.411,-3.4712,-3.4664,-3.41,-3.4349,-3.4466,-3.4459,-3.5462,-3.5464,-3.4673,-3.4592,-3.3954,-3.2841,-3.2392,-3.2005,-3.1632,-3.1617,-3.1602,-3.1602,-3.1526,-3.1496,-3.1496,-3.1496,-3.0972,-2.9953,-2.94,-2.9056,-2.8906,-2.7634,-2.6318,-2.4978,-2.3595,-2.1969,-2.0109,-1.9405,-1.8738,-1.8064,-1.8552,-1.862,-1.8132,-1.8744,-1.9133,-1.9184,-1.9342,-2.0154,-2.1809,-2.1436,-2.1535,-2.2483,-2.1421,-2.0213,-1.9066,-1.9537,-2.0154,-2.0808,-2.1395,-2.168,-2.171,-2.2727,-2.3236,-2.2748,-2.3221,-2.3501,-2.3363,-2.3275,-2.3201,-2.2978,-2.2933,-2.2888,-2.291,-2.291,-2.2888,-2.2888,-2.2888,-2.2888,-2.2888,-2.2888,-2.2902,-2.3004,-2.3062,-2.2946,-2.3047,-2.3737,-2.4312,-2.4118,-2.4815,-2.5469,-2.5614,-2.5618,-2.5836,-2.6268,-2.6457,-2.6387,-2.6402,-2.6344,-2.6257,-2.572,-2.5241,-2.4878,-2.4907,-2.5168,-2.5469,-3.1061,-3.0641,-3.1163,-3.1076,-3.0671,-3.1499,-3.2497,-3.3409,-3.2463,-3.2628,-3.3658,-3.4695,-3.5299,-3.5518,-3.5625,-3.5609,-3.5507,-3.5324,-3.5093,0.0,-3.5564,-3.5579,-3.4927,-3.4379,-3.3834,-3.335,-3.2586,-3.2183,-3.2079,-3.2109,-3.2109,-3.2065,-3.1692,-3.1496,-3.1496,-3.1496,-3.1421,-3.1227,-3.1137,-3.0808,-3.0238,-2.8981,-2.7679,-2.6318,-2.4462,-2.2811,-2.1411,-2.0729,-2.0284,-2.0026,-2.0142,-2.034,-2.0651,-2.1399,-2.191,-2.1884,-2.2503,-2.302,-2.3274,-2.3236,-2.302,-2.2667,-2.1974,-2.1211,-2.0494,-2.0509,-2.0842,-2.1485,-2.1665,-2.1695,-2.1739,-2.2413,-2.2847,-2.2778,-2.3202,-2.3509,-2.3429,-2.3246,-2.3105,-2.306,-2.2955,-2.2888,-2.2888,-2.2888,-2.2888,-2.2888,-2.2888,-2.2888,-2.2888,-2.2888,-2.2888,-2.2888,-2.2888,-2.2888,-2.2931,-2.3004,-2.3461,-2.3847,-2.4036,-2.4457,-2.4882,-2.494,-2.5042,-2.5183,-2.527,-2.5187,-2.5172,-2.5071,-2.51,-2.4969,-2.481,-2.4766,-2.4694,-2.4471,-2.437,-3.1351,-3.1192,-3.1787,-3.1764,-3.1438,-3.2229,-3.3426,-3.4728,-3.4294,-3.4116,-3.4348,-3.5448,-3.5799,-3.5637,-3.5955,-3.5991,-3.5806,-3.5714,-3.5671,-3.5734,-3.5903,-3.5768,-3.5457,-3.4808,-3.4178,-3.3585,-3.295,-3.2492,-3.2198,-3.1961,-3.1841,-3.1812,-3.1616,-3.1496,-3.1496,-3.1496,-3.1496,-3.1496,-3.1137,-3.0821,-3.0492,-2.9265,-2.8128,-2.7165,-2.5525,-2.4073,-2.273,-2.2093,-2.1545,-2.103,-2.1441,-2.16,-2.1399,-2.2164,-2.2605,-2.2563,-2.2837,-2.3165,-2.353,-2.348,-2.3212,-2.2748,-2.228,-2.1936,-2.1719,-2.1342,-2.1416,-2.2062,-2.206,-2.2168,-2.253,-2.2842,-2.302,-2.302,-2.3244,-2.3363,-2.329,-2.3194,-2.306,-2.2992,-2.2947,-2.2888,-2.2888,-2.2888,-2.2888,-2.2888,-2.2888,-2.2888,-2.2888,-2.2888,-2.2888,-2.2888,-2.2888,-2.2888,-2.2917,-2.3229,-2.3389,-2.3426,-2.3673,-2.3978,-2.4297,-2.4326,-2.4471,-2.4805,-2.4863,-2.4863,-2.4824,-2.4878,-2.4733,-2.437,-2.4302,-2.4201,-2.3853,-2.3519,-2.349,-3.1495,-3.1553,-3.2205,-3.2484,-3.2505,-3.3096,-3.4212,-3.5554,-3.5507,-3.5213,-3.4918,-3.6009,-3.6243,-3.5846,-3.6206,-3.627,-3.607,-3.594,-3.598,-3.6162,-3.5922,-3.5623,-3.5315,-3.4637,-3.4015,-3.3457,-3.2966,-3.265,-3.2462,-3.1916,-3.1558,-3.1525,-3.1496,-3.1496,-3.1496,-3.1496,-3.1496,-3.1466,-3.0972,-3.0703,-3.0702,-2.9609,-2.8712,-2.8019,-2.6761,-2.5495,-2.4328,-2.3706,-2.2999,-2.2277,-2.2897,-2.2882,-2.2014,-2.2617,-2.2978,-2.2858,-2.275,-2.2952,-2.3413,-2.3363,-2.3156,-2.2852,-2.2645,-2.2566,-2.2621,-2.2206,-2.2138,-2.2619,-2.263,-2.2794,-2.3222,-2.3334,-2.3341,-2.3341,-2.3275,-2.3223,-2.3127,-2.306,-2.3,-2.291,-2.2888,-2.2888,-2.2888,-2.2888,-2.2888,-2.2888,-2.2888,-2.2888,-2.2888,-2.2888,-2.2888,-2.2888,-2.2888,-2.2888,-2.2939,-2.3287,-2.3374,-2.2968,-2.3325,-2.3586,-2.3673,-2.3673,-2.3818,-2.4254,-2.437,-2.4326,-2.4413,-2.4399,-2.4181,-2.376,-2.365,-2.3528,-2.3105,-2.3171,-2.3157,-3.1495,-3.1596,-3.222,-3.301,-3.376,-3.417,-3.489,-3.5779,-3.5631,-3.5491,-3.5444,-3.6489,-3.6872,-3.6824,-3.6495,-3.6495,-3.6743,-3.6171,-3.5773,-3.5566,-3.5263,-3.4606,-3.377,-3.2958,-3.2623,-3.2708,-3.2211,-3.2493,-3.3255,-3.2413,-3.1782,-3.1541,-3.1496,-3.1496,-3.1496,-3.1496,-3.1496,-3.1496,-3.1436,-3.1406,-3.1361,-3.0702,-3.0028,-2.94,-2.8124,-2.7091,-2.6258,-2.5689,-2.4962,-2.435,-2.4743,-2.4512,-2.3363,-2.3725,-2.3799,-2.3312,-2.334,-2.3465,-2.3487,-2.3378,-2.329,-2.3245,-2.3201,-2.3179,-2.3201,-2.3142,-2.3186,-2.3325,-2.3347,-2.3362,-2.3551,-2.348,-2.3429,-2.34,-2.3246,-2.3119,-2.3082,-2.2992,-2.2925,-2.2888,-2.2888,-2.2888,-2.2888,-2.2888,-2.2888,-2.2888,-2.2888,-2.2888,-2.2888,-2.2888,-2.2888,-2.2888,-2.2888,-2.2888,-2.2902,-2.2917,-2.3012,-2.2917,-2.2931,-2.307,-2.3113,-2.3099,-2.3062,-2.3389,-2.3258,-2.3287,-2.3229,-2.3076,-2.3149,-2.32,-2.3113,-2.3004,-2.2975,-2.3331,-2.3673,-3.1495,-3.1569,-3.2205,-3.2962,-3.3657,-3.3637,-3.4182,-3.5064,-3.4984,-3.4905,-3.4981,-3.5525,-3.5871,-3.6014,-3.5513,-3.5631,-3.6197,-3.5439,-3.4993,-3.486,-3.438,-3.3785,-3.3177,-3.2676,-3.2487,-3.2521,-3.2063,-3.205,-3.239,-3.1898,-3.1545,-3.1511,-3.1409,-3.1409,-3.1482,-3.1409,-3.1424,-3.1496,-3.1409,-3.1409,-3.1436,-3.0838,-3.0332,-2.995,-2.9086,-2.8103,-2.718,-2.6678,-2.5997,-2.5035,-2.4875,-2.4688,-2.4448,-2.4353,-2.4161,-2.385,-2.3459,-2.3246,-2.3246,-2.3201,-2.3209,-2.3297,-2.3223,-2.3179,-2.3179,-2.3112,-2.3112,-2.326,-2.3246,-2.3246,-2.3209,-2.3164,-2.3171,-2.3135,-2.3045,-2.2978,-2.2978,-2.2947,-2.2888,-2.2888,-2.2888,-2.2888,-2.2888,-2.2888,-2.2888,-2.2888,-2.2888,-2.2888,-2.2888,-2.2888,-2.2888,-2.2888,-2.2888,-2.2888,-2.2888,-2.2888,-2.2888,-2.2888,-2.2888,-2.2888,-2.2888,-2.2888,-2.2888,-2.2888,-2.2888,-2.2888,-2.2946,-2.2888,-2.2888,-2.2888,-2.2917,-2.3012,-2.3389,-2.3702,-2.4094,-3.1366,-3.1567,-3.2205,-3.2815,-3.3347,-3.3321,-3.3803,-3.4558,-3.4634,-3.4586,-3.4519,-3.4506,-3.4685,-3.493,-3.4802,-3.5052,-3.5319,-3.4864,-3.451,-3.4268,-3.3576,-3.3056,-3.2709,-3.2395,-3.2353,-3.2425,-3.2174,-3.1931,-3.1817,-3.1795,-3.1605,-3.1425,-3.1322,-3.1336,-3.1424,-3.138,-3.138,-3.1438,-3.138,-3.1336,-3.1262,-3.0932,-3.0589,-3.0297,-2.9811,-2.8998,-2.7917,-2.7535,-2.6865,-2.5761,-2.5318,-2.5088,-2.5066,-2.4902,-2.4667,-2.4405,-2.3894,-2.3497,-2.3382,-2.3322,-2.328,-2.3208,-2.309,-2.3037,-2.3023,-2.2992,-2.2992,-2.3037,-2.3068,-2.306,-2.3023,-2.2978,-2.2933,-2.2933,-2.2947,-2.2888,-2.2888,-2.2888,-2.2888,-2.2888,-2.2888,-2.2888,-2.2888,-2.2888,-2.2888,-2.2888,-2.2888,-2.2888,-2.2888,-2.2888,-2.2888,-2.2888,-2.2888,-2.2888,-2.2888,-2.2888,-2.2888,-2.2888,-2.2888,-2.2888,-2.2888,-2.2888,-2.2888,-2.2888,-2.2888,-2.2888,-2.2888,-2.2888,-2.2888,-2.2888,-2.2917,-2.3041,-2.3331,-2.3789,-2.451,-3.0974,-3.1524,-3.2205,-3.2691,-3.3065,-3.3691,-3.4306,-3.4881,-3.4927,-3.4805,-3.4383,-3.3842,-3.3674,-3.4017,-3.4855,-3.5083,-3.4654,-3.4713,-3.441,-3.3834,-3.2976,-3.237,-3.203,-3.1724,-3.1872,-3.2483,-3.244,-3.2201,-3.1845,-3.233,-3.2113,-3.1176,-3.1234,-3.1292,-3.1322,-3.1409,-3.1424,-3.1351,-3.1424,-3.1292,-3.0969,-3.1131,-3.0906,-3.0374,-3.0142,-2.9731,-2.9024,-2.8378,-2.7665,-2.6916,-2.678,-2.6207,-2.5091,-2.5421,-2.5471,-2.5024,-2.4781,-2.449,-2.4084,-2.3897,-2.358,-2.3049,-2.2933,-2.2939,-2.302,-2.3044,-2.3044,-2.2954,-2.3044,-2.3127,-2.3187,-2.309,-2.306,-2.3074,-2.297,-2.2888,-2.2888,-2.2888,-2.2888,-2.2888,-2.2888,-2.2888,-2.2888,-2.2888,-2.2888,-2.2888,-2.2888,-2.2888,-2.2888,-2.2888,-2.2888,-2.2888,-2.2888,-2.2888,-2.2888,-2.2888,-2.2888,-2.2888,-2.2888,-2.2888,-2.2888,-2.2888,-2.2888,-2.2888,-2.2888,-2.2888,-2.2888,-2.2888,-2.2888,-2.2888,-2.2888,-2.3041,-2.3374,-2.4196,-2.4776,-3.0728,-3.1004,-3.1874,-3.2292,-3.246,-3.3529,-3.4106,-3.4319,-3.4575,-3.4356,-3.395,-3.4169,-3.3741,-3.2744,-3.4353,-3.4966,-3.4663,-3.3802,-3.3246,-3.2946,-3.2432,-3.1977,-3.1694,-3.1542,-3.1843,-3.2408,-3.2513,-3.2256,-3.186,-3.2035,-3.1806,-3.1309,-3.1058,-3.1087,-3.1248,-3.1249,-3.1278,-3.1278,-3.1278,-3.122,-3.1087,-3.0925,-3.0793,-3.0646,-3.0573,-3.0279,-2.9634,-2.889,-2.8192,-2.7618,-2.6813,-2.632,-2.621,-2.593,-2.573,-2.5494,-2.5106,-2.4612,-2.4063,-2.3914,-2.3615,-2.3012,-2.2888,-2.3113,-2.336,-2.3231,-2.313,-2.3383,-2.3136,-2.3015,-2.3008,-2.2978,-2.297,-2.297,-2.2933,-2.2888,-2.2888,-2.2888,-2.2888,-2.2888,-2.2888,-2.2888,-2.2888,-2.2888,-2.2888,-2.2888,-2.2888,-2.2888,-2.2888,-2.2888,-2.2888,-2.2888,-2.2888,-2.2888,-2.2888,-2.2888,-2.2888,-2.2888,-2.2888,-2.2888,-2.2888,-2.2888,-2.2888,-2.2888,-2.2888,-2.2888,-2.2888,-2.2888,-2.2888,-2.2888,-2.2888,-2.307,-2.347,-2.4239,-2.466,-3.0698,-3.0991,-3.1627,-3.2088,-3.2446,-3.3529,-3.4106,-3.4288,-3.4759,-3.4648,-3.426,-3.4685,-3.4092,-3.3094,-3.3854,-3.4583,-3.4765,-3.3668,-3.3065,-3.2928,-3.2635,-3.2355,-3.2181,-3.215,-3.2367,-3.2817,-3.305,-3.2853,-3.2382,-3.2134,-3.1788,-3.1367,-3.0998,-3.091,-3.1087,-3.1102,-3.1132,-3.1117,-3.1102,-3.1102,-3.1058,-3.0821,-3.0672,-3.0732,-3.0717,-3.0542,-3.0119,-2.9216,-2.8548,-2.8063,-2.6966,-2.6469,-2.6823,-2.6436,-2.6112,-2.6054,-2.5759,-2.5135,-2.4379,-2.421,-2.3847,-2.3026,-2.3128,-2.3432,-2.3833,-2.365,-2.378,-2.3963,-2.363,-2.3229,-2.3171,-2.3041,-2.2888,-2.2888,-2.2888,-2.2888,-2.2888,-2.2888,-2.2888,-2.2888,-2.2888,-2.2888,-2.2888,-2.2888,-2.2888,-2.2888,-2.2888,-2.2888,-2.2888,-2.2888,-2.2888,-2.2888,-2.2888,-2.2888,-2.2888,-2.2888,-2.2888,-2.2888,-2.2888,-2.2888,-2.2888,-2.2888,-2.2888,-2.2888,-2.2888,-2.2888,-2.2888,-2.2888,-2.2888,-2.2888,-2.2902,-2.2989,-2.3563,-2.4215,-2.4549,-3.0945,-3.1453,-3.154,-3.2194,-3.3031,-3.3856,-3.444,-3.4985,-3.564,-3.5583,-3.5079,-3.5141,-3.4744,-3.424,-3.3742,-3.3918,-3.4604,-3.4369,-3.407,-3.3738,-3.3492,-3.3376,-3.3329,-3.33,-3.3358,-3.3532,-3.4066,-3.3993,-3.3329,-3.2733,-3.2138,-3.1542,-3.1127,-3.0923,-3.0865,-3.1087,-3.1028,-3.0925,-3.0984,-3.0925,-3.0672,-3.0732,-3.0702,-3.0642,-3.0612,-3.0613,-3.0539,-2.9406,-2.8767,-2.8593,-2.7488,-2.6808,-2.682,-2.6707,-2.675,-2.6707,-2.6733,-2.6137,-2.5081,-2.4859,-2.4239,-2.3345,-2.3528,-2.3847,-2.4036,-2.4375,-2.4679,-2.4694,-2.421,-2.3818,-2.3717,-2.3273,-2.2888,-2.2888,-2.2888,-2.2888,-2.2888,-2.2888,-2.2888,-2.2888,-2.2888,-2.2888,-2.2888,-2.2888,-2.2888,-2.2888,-2.2888,-2.2888,-2.2888,-2.2888,-2.2888,-2.2888,-2.2888,-2.2888,-2.2888,-2.2888,-2.2888,-2.2888,-2.2888,-2.2888,-2.2888,-2.2888,-2.2888,-2.2888,-2.2888,-2.2888,-2.2888,-2.2888,-2.2888,-2.2888,-2.2902,-2.2931,-2.3322,-2.3867,-2.4413,-3.1351,-3.1673,-3.2737,-3.3252,-3.353,-3.478,-3.5257,-3.5031,-3.5674,-3.5531,-3.4951,-3.5426,-3.4892,-3.4042,-3.4491,-3.4648,-3.4068,-3.4454,-3.4454,-3.3971,-3.3634,-3.3518,-3.3518,-3.3518,-3.3703,-3.408,-3.4312,-3.4095,-3.3503,-3.2846,-3.2414,-3.2217,-3.1633,-3.1372,-3.145,-3.154,-3.1364,-3.0865,-3.0866,-3.0821,-3.0732,-3.0702,-3.0642,-3.0612,-3.0612,-3.0612,-3.0569,-2.9769,-2.9348,-2.929,-2.8115,-2.7244,-2.6881,-2.6794,-2.6794,-2.6794,-2.6794,-2.6471,-2.5618,-2.5096,-2.4505,-2.3818,-2.3804,-2.4123,-2.45,-2.4723,-2.5042,-2.5284,-2.4544,-2.39,-2.3775,-2.3287,-2.2946,-2.2888,-2.2888,-2.2888,-2.2888,-2.2888,-2.2888,-2.2888,-2.2888,-2.2888,-2.2888,-2.2888,-2.2888,-2.2888,-2.2888,-2.2888,-2.2888,-2.2888,-2.2888,-2.2888,-2.2888,-2.2888,-2.2888,-2.2888,-2.2888,-2.2888,-2.2888,-2.2888,-2.2888,-2.2888,-2.2888,-2.2888,-2.2888,-2.2888,-2.2888,-2.2888,-2.2888,-2.2917,-2.2946,-2.2975,-2.3004,-2.3577,-2.4428,-3.2019,-3.2356,-3.3381,-3.3846,-3.3933,-3.5133,-3.5347,-3.5034,-3.5527,-3.5383,-3.4998,-3.5314,-3.4844,-3.3995,-3.4852,-3.4732,-3.3787,-3.4409,-3.4515,-3.416,-3.3937,-3.3852,-3.3819,-3.3819,-3.3993,-3.4327,-3.438,-3.4211,-3.3819,-3.3209,-3.2893,-3.2873,-3.2239,-3.1774,-3.1724,-3.1665,-3.1359,-3.0819,-3.0732,-3.0732,-3.0702,-3.0642,-3.0612,-3.0612,-3.0612,-3.0612,-3.0569,-3.0176,-2.9856,-2.9436,-2.8377,-2.7521,-2.7157,-2.6939,-2.6794,-2.6794,-2.6736,-2.65,-2.5876,-2.5429,-2.4921,-2.4428,-2.4481,-2.4772,-2.5207,-2.5371,-2.5778,-2.5908,-2.528,-2.4612,-2.45,-2.3775,-2.3316,-2.3273,-2.3033,-2.2902,-2.2888,-2.2888,-2.2888,-2.2888,-2.2888,-2.2888,-2.2888,-2.2888,-2.2888,-2.2888,-2.2888,-2.2888,-2.2888,-2.2888,-2.2888,-2.2888,-2.2888,-2.2888,-2.2888,-2.2888,-2.2888,-2.2888,-2.2888,-2.2888,-2.2888,-2.2888,-2.2888,-2.2888,-2.2888,-2.2888,-2.2888,-2.2888,-2.2888,-2.2931,-2.3018,-2.3316,-2.3563,-2.4297,-2.5009,-3.2919,-3.3474,-3.359,-3.3968,-3.439,-3.4909,-3.5008,-3.4935,-3.5234,-3.532,-3.5222,-3.5055,-3.4741,-3.4436,-3.4552,-3.4361,-3.4032,-3.4243,-3.454,-3.4491,-3.4472,-3.4472,-3.4472,-3.4457,-3.4559,-3.4661,-3.4588,-3.4501,-3.4428,-3.3717,-3.3532,-3.3474,-3.2875,-3.2295,-3.1903,-3.1642,-3.1351,-3.0845,-3.0656,-3.0598,-3.0598,-3.0612,-3.0612,-3.0612,-3.0612,-3.0612,-3.0598,-3.0525,-3.0219,-2.9566,-2.8464,-2.7782,-2.7579,-2.7128,-2.6794,-2.6794,-2.6794,-2.6515,-2.6036,-2.5749,-2.5513,-2.5038,-2.5328,-2.5803,-2.5734,-2.6195,-2.6547,-2.662,-2.601,-2.5618,-2.5357,-2.4515,-2.3891,-2.3789,-2.3374,-2.3099,-2.3055,-2.3047,-2.3084,-2.3026,-2.2946,-2.2888,-2.2888,-2.2888,-2.2888,-2.2888,-2.2888,-2.2888,-2.2888,-2.2888,-2.2888,-2.2888,-2.2888,-2.2888,-2.2888,-2.2888,-2.2888,-2.2888,-2.2888,-2.2888,-2.2888,-2.2888,-2.2888,-2.2888,-2.2888,-2.2888,-2.2888,-2.2888,-2.2888,-2.2902,-2.32,-2.3702,-2.419,-2.4689,-2.528,-3.3344,-3.359,-3.4506,-3.469,-3.4549,-3.5253,-3.5194,-3.4631,-3.4887,-3.492,-3.4721,-3.4854,-3.4699,-3.4449,-3.4633,-3.4599,-3.4345,-3.4375,-3.4704,-3.5067,-3.516,-3.516,-3.5145,-3.5145,-3.5343,-3.5633,-3.5256,-3.5145,-3.5058,-3.4055,-3.3779,-3.4124,-3.3514,-3.3137,-3.2933,-3.2454,-3.1932,-3.1293,-3.0801,-3.0612,-3.0627,-3.0612,-3.0612,-3.0612,-3.0612,-3.0612,-3.0612,-3.0612,-3.0277,-2.961,-2.8884,-2.8202,-2.7753,-2.7157,-2.6794,-2.6794,-2.6779,-2.6736,-2.65,-2.6094,-2.5745,-2.5589,-2.5734,-2.5803,-2.5792,-2.6428,-2.6736,-2.6678,-2.6184,-2.5633,-2.511,-2.4428,-2.3992,-2.39,-2.3804,-2.3809,-2.4056,-2.3911,-2.3644,-2.3615,-2.32,-2.2931,-2.2888,-2.2888,-2.2888,-2.2888,-2.2888,-2.2888,-2.2888,-2.2888,-2.2888,-2.2888,-2.2888,-2.2888,-2.2888,-2.2888,-2.2888,-2.2888,-2.2888,-2.2888,-2.2888,-2.2888,-2.2888,-2.2888,-2.2888,-2.2888,-2.2888,-2.2888,-2.2888,-2.2946,-2.349,-2.4007,-2.4138,-2.4515,-2.5226,-3.4182,-3.469,-3.5218,-3.5189,-3.4898,-3.5453,-3.52,-3.4569,-3.4601,-3.4601,-3.4467,-3.4601,-3.4568,-3.4448,-3.4616,-3.4568,-3.4443,-3.469,-3.5043,-3.5363,-3.5654,-3.577,-3.5749,-3.5799,-3.5952,-3.6185,-3.5726,-3.5421,-3.5218,-3.4361,-3.4138,-3.4269,-3.4051,-3.3779,-3.3416,-3.2846,-3.2353,-3.183,-3.1105,-3.0714,-3.0945,-3.0698,-3.0612,-3.0612,-3.0612,-3.0612,-3.0612,-3.0612,-3.0409,-2.9929,-2.9203,-2.8534,-2.8115,-2.7258,-2.6808,-2.6794,-2.6794,-2.6779,-2.6721,-2.6413,-2.6253,-2.6239,-2.6239,-2.6239,-2.6297,-2.6591,-2.6794,-2.6721,-2.6428,-2.6068,-2.5662,-2.5081,-2.4747,-2.4747,-2.4689,-2.4733,-2.4814,-2.4239,-2.3934,-2.3746,-2.3331,-2.2888,-2.2888,-2.2902,-2.2888,-2.2888,-2.2888,-2.2888,-2.2888,-2.2888,-2.2888,-2.2888,-2.2888,-2.2888,-2.2888,-2.2888,-2.2888,-2.2888,-2.2888,-2.2888,-2.2888,-2.2888,-2.2888,-2.2888,-2.2888,-2.2888,-2.2888,-2.2946,-2.3128,-2.336,-2.3876,-2.4355,-2.4617,-2.4921,-2.5546,-3.5212,-3.6243,-3.5813,-3.5552,-3.5523,-3.5581,-3.5305,-3.4617,-3.4608,-3.4501,-3.4428,-3.4414,-3.4414,-3.438,-3.4448,-3.4457,-3.4559,-3.5087,-3.5479,-3.5872,-3.6257,-3.6591,-3.6606,-3.646,-3.6533,-3.6577,-3.593,-3.5755,-3.5639,-3.5024,-3.4588,-3.4617,-3.4545,-3.4167,-3.3688,-3.3006,-3.264,-3.2425,-3.1555,-3.125,-3.1496,-3.1235,-3.0988,-3.0785,-3.0641,-3.0612,-3.0612,-3.0612,-3.0569,-3.0598,-2.945,-2.8869,-2.8565,-2.7517,-2.691,-2.6794,-2.6794,-2.6794,-2.6794,-2.6736,-2.6736,-2.6707,-2.6721,-2.6794,-2.6721,-2.6765,-2.6794,-2.6794,-2.6794,-2.6591,-2.6358,-2.5995,-2.5676,-2.5575,-2.573,-2.5589,-2.5071,-2.4471,-2.4094,-2.4051,-2.3534,-2.3186,-2.3026,-2.2997,-2.3012,-2.2888,-2.2888,-2.2888,-2.2888,-2.2888,-2.2888,-2.2888,-2.2888,-2.2888,-2.2888,-2.2888,-2.2888,-2.2888,-2.2888,-2.2888,-2.2888,-2.2888,-2.2888,-2.2888,-2.2888,-2.2888,-2.2888,-2.3041,-2.3215,-2.3702,-2.4167,-2.4878,-2.5517,-2.5865,-2.6387,-3.5619,-3.6344,-3.6722,-3.6591,-3.6243,-3.662,-3.6214,-3.516,-3.516,-3.4806,-3.4501,-3.438,-3.438,-3.438,-3.4472,-3.4675,-3.5131,-3.545,-3.5901,-3.6954,-3.752,-3.7767,-3.7665,-3.7302,-3.7346,-3.7447,-3.7157,-3.6867,-3.6678,-3.604,-3.5619,-3.5218,-3.5087,-3.4849,-3.424,-3.3688,-3.33,-3.3169,-3.2469,-3.2135,-3.2222,-3.2075,-3.1743,-3.1308,-3.0858,-3.0627,-3.0612,-3.0612,-3.0612,-3.0423,-2.9871,-2.9232,-2.871,-2.7984,-2.7345,-2.6953,-2.6837,-2.6823,-2.6794,-2.6794,-2.6794,-2.6794,-2.6794,-2.6794,-2.6794,-2.6794,-2.6794,-2.6794,-2.6779,-2.6631,-2.6239,-2.5923,-2.5876,-2.5937,-2.6228,-2.646,-2.6271,-2.5759,-2.5324,-2.5193,-2.4747,-2.4254,-2.3746,-2.3615,-2.3441,-2.3055,-2.2888,-2.2888,-2.2888,-2.2888,-2.2888,-2.2888,-2.2888,-2.2888,-2.2888,-2.2888,-2.2888,-2.2888,-2.2888,-2.2888,-2.2888,-2.2888,-2.2888,-2.2888,-2.2888,-2.2888,-2.2888,-2.2931,-2.3091,-2.3751,-2.4457,-2.5125,-2.5792,-2.6402,-2.6794,-3.638,-3.7186,-3.7288,-3.6925,-3.6431,-3.6664,-3.6112,-3.5082,-3.4922,-3.4733,-3.4472,-3.438,-3.438,-3.4443,-3.4719,-3.5082,-3.5508,-3.6089,-3.6794,-3.7622,-3.8057,-3.8173,-3.8173,-3.7926,-3.7926,-3.8101,-3.7578,-3.7331,-3.707,-3.646,-3.5793,-3.5799,-3.5581,-3.5415,-3.5227,-3.4646,-3.4448,-3.4215,-3.346,-3.2962,-3.2948,-3.2611,-3.2162,-3.1611,-3.1177,-3.0916,-3.0641,-3.0612,-3.0612,-3.051,-3.0263,-2.9769,-2.916,-2.8521,-2.7882,-2.7374,-2.7229,-2.7041,-2.6895,-2.6794,-2.6794,-2.6794,-2.6794,-2.6794,-2.6794,-2.6794,-2.6794,-2.6794,-2.6765,-2.662,-2.6326,-2.6257,-2.6242,-2.6326,-2.6562,-2.6779,-2.6704,-2.6224,-2.5803,-2.5662,-2.5168,-2.4544,-2.4167,-2.4132,-2.3615,-2.3113,-2.2931,-2.2931,-2.2888,-2.2888,-2.2888,-2.2888,-2.2888,-2.2888,-2.2888,-2.2888,-2.2888,-2.2888,-2.2888,-2.2888,-2.2888,-2.2888,-2.2888,-2.2888,-2.2888,-2.2888,-2.2888,-2.2946,-2.3264,-2.4114,-2.4834,-2.5371,-2.5923,-2.6547,-2.6794,-3.7041,-3.813,-3.7447,-3.6881,-3.6475,-3.6373,-3.5706,-3.4704,-3.4559,-3.4603,-3.438,-3.438,-3.4486,-3.4675,-3.5131,-3.5436,-3.6017,-3.6794,-3.7709,-3.8057,-3.8159,-3.8202,-3.8188,-3.8159,-3.813,-3.813,-3.7752,-3.752,-3.7215,-3.646,-3.6373,-3.6359,-3.5996,-3.5909,-3.6083,-3.5712,-3.5232,-3.5043,-3.4172,-3.3616,-3.3572,-3.3151,-3.2643,-3.2092,-3.154,-3.125,-3.0858,-3.0714,-3.0612,-3.0612,-3.0612,-3.0277,-2.9784,-2.916,-2.8536,-2.7913,-2.7868,-2.7592,-2.7171,-2.6997,-2.6953,-2.6837,-2.6794,-2.6794,-2.6794,-2.6794,-2.6794,-2.6794,-2.6779,-2.6779,-2.6806,-2.6692,-2.6721,-2.675,-2.6765,-2.6794,-2.6692,-2.6271,-2.6068,-2.5952,-2.5763,-2.5299,-2.4762,-2.4495,-2.3818,-2.3244,-2.3099,-2.2968,-2.2917,-2.2888,-2.2888,-2.2888,-2.2888,-2.2888,-2.2888,-2.2888,-2.2888,-2.2888,-2.2888,-2.2917,-2.2902,-2.2888,-2.2888,-2.2888,-2.2888,-2.2888,-2.2989,-2.3171,-2.3693,-2.4534,-2.5129,-2.5618,-2.6141,-2.6692,-2.6794,-3.7041,-3.8101,-3.6968,-3.6707,-3.6997,-3.6533,-3.5851,-3.5319,-3.516,-3.4893,-3.4472,-3.4395,-3.4762,-3.5189,-3.5319,-3.5973,-3.691,-3.7651,-3.8057,-3.8202,-3.8202,-3.8202,-3.8202,-3.8202,-3.8202,-3.8188,-3.8028,-3.7984,-3.7984,-3.7825,-3.7244,-3.7143,-3.6939,-3.6794,-3.6315,-3.5749,-3.5639,-3.5566,-3.4791,-3.4385,-3.4211,-3.4008,-3.3601,-3.2919,-3.2179,-3.1627,-3.1277,-3.0872,-3.0612,-3.0612,-3.0612,-3.0525,-3.0277,-2.9769,-2.9189,-2.8695,-2.8521,-2.8245,-2.7694,-2.755,-2.7287,-2.6953,-2.6852,-2.6835,-2.682,-2.6794,-2.6794,-2.6794,-2.6794,-2.6794,-2.6794,-2.6794,-2.6794,-2.6794,-2.6794,-2.6794,-2.6777,-2.6675,-2.6518,-2.6445,-2.6315,-2.6054,-2.5429,-2.4873,-2.4297,-2.3731,-2.3345,-2.3113,-2.2925,-2.2888,-2.2888,-2.2888,-2.2888,-2.2888,-2.2888,-2.2888,-2.2888,-2.2888,-2.2902,-2.2975,-2.296,-2.2902,-2.2888,-2.307,-2.2989,-2.2888,-2.307,-2.3287,-2.3896,-2.4592,-2.5226,-2.5807,-2.6329,-2.6794,-2.6794,-3.6983,-3.7157,-3.6548,-3.6489,-3.6649,-3.6098,-3.5683,-3.5378,-3.5058,-3.4907,-3.4907,-3.4936,-3.5256,-3.5793,-3.6257,-3.6925,-3.7651,-3.8028,-3.8202,-3.8202,-3.8202,-3.8202,-3.8202,-3.8202,-3.8202,-3.8202,-3.8202,-3.8202,-3.8159,-3.781,-3.7781,-3.7738,-3.7491,-3.7259,-3.7259,-3.7085,-3.6591,-3.6286,-3.5706,-3.5198,-3.4864,-3.4632,-3.4095,-3.3441,-3.2919,-3.2411,-3.1915,-3.1395,-3.109,-3.1018,-3.0786,-3.0641,-3.051,-3.0263,-2.9813,-2.9305,-2.9174,-2.8898,-2.8361,-2.8202,-2.7926,-2.7362,-2.7258,-2.7084,-2.6881,-2.6794,-2.6794,-2.6794,-2.6794,-2.6794,-2.6794,-2.6794,-2.6794,-2.6794,-2.6794,-2.6794,-2.6794,-2.6794,-2.6794,-2.6794,-2.6634,-2.6286,-2.5803,-2.5266,-2.4801,-2.4278,-2.3717,-2.3368,-2.307,-2.3012,-2.3041,-2.2917,-2.2931,-2.2946,-2.2975,-2.3026,-2.2917,-2.2888,-2.2931,-2.3018,-2.3157,-2.3157,-2.3287,-2.3461,-2.3302,-2.3134,-2.296,-2.3149,-2.3911,-2.4636,-2.5129,-2.572,-2.6387,-2.6794,-2.6794,-3.6794,-3.6286,-3.604,-3.5996,-3.5996,-3.5479,-3.529,-3.5276,-3.4849,-3.5009,-3.5537,-3.5625,-3.5909,-3.6533,-3.7157,-3.7752,-3.8202,-3.8202,-3.8202,-3.8202,-3.8202,-3.8202,-3.8202,-3.8202,-3.8202,-3.8202,-3.8202,-3.8202,-3.813,-3.7839,-3.7854,-3.7926,-3.7651,-3.768,-3.7984,-3.7738,-3.768,-3.7128,-3.662,-3.6011,-3.5421,-3.4864,-3.4298,-3.3707,-3.3576,-3.3198,-3.2701,-3.2063,-3.1627,-3.1395,-3.1061,-3.0757,-3.0641,-3.0612,-3.0365,-2.9929,-2.9827,-2.9464,-2.9058,-2.8855,-2.8521,-2.7695,-2.7681,-2.7347,-2.6982,-2.6794,-2.6794,-2.6794,-2.6794,-2.6794,-2.6794,-2.6794,-2.6794,-2.6794,-2.6794,-2.6794,-2.6794,-2.6794,-2.6794,-2.6794,-2.6794,-2.6562,-2.6152,-2.5934,-2.5527,-2.4849,-2.4312,-2.3891,-2.3592,-2.3345,-2.3273,-2.307,-2.3012,-2.3033,-2.3099,-2.32,-2.307,-2.2902,-2.2975,-2.3062,-2.3287,-2.3484,-2.3717,-2.3978,-2.3853,-2.367,-2.3337,-2.3395,-2.4404,-2.5085,-2.523,-2.568,-2.6504,-2.6794,-2.6794,-3.6373,-3.6199,-3.5096,-3.4951,-3.5421,-3.4878,-3.4893,-3.5407,-3.5319,-3.5639,-3.6112,-3.6214,-3.6519,-3.7201,-3.7781,-3.8101,-3.8188,-3.8202,-3.8202,-3.8202,-3.8202,-3.8202,-3.8202,-3.8202,-3.8202,-3.8202,-3.8202,-3.8202,-3.8173,-3.8072,-3.8072,-3.8144,-3.8115,-3.813,-3.813,-3.7883,-3.707,-3.6562,-3.6359,-3.6011,-3.5537,-3.527,-3.4849,-3.4356,-3.3833,-3.3499,-3.3296,-3.273,-3.2191,-3.1685,-3.1466,-3.1119,-3.0728,-3.0612,-3.0598,-3.0525,-3.0408,-3.019,-2.9639,-2.9493,-2.8985,-2.8116,-2.7797,-2.7391,-2.6997,-2.6794,-2.6794,-2.6794,-2.6794,-2.6794,-2.6794,-2.6794,-2.6794,-2.6794,-2.6794,-2.6794,-2.6794,-2.6794,-2.6794,-2.6794,-2.6794,-2.6794,-2.6576,-2.6431,-2.6213,-2.5546,-2.4882,-2.4404,-2.394,-2.3548,-2.3514,-2.3316,-2.3345,-2.3389,-2.3606,-2.365,-2.3563,-2.3235,-2.3264,-2.3403,-2.3809,-2.4196,-2.4326,-2.4491,-2.4418,-2.4534,-2.4549,-2.4834,-2.5357,-2.5589,-2.5709,-2.617,-2.6721,-2.6823,-2.6794,-3.5561,-3.5183,-3.4646,-3.4994,-3.5764,-3.5212,-3.5546,-3.617,-3.5726,-3.5755,-3.6214,-3.6301,-3.6852,-3.7694,-3.813,-3.8202,-3.8202,-3.8202,-3.8202,-3.8202,-3.8202,-3.8202,-3.8202,-3.8202,-3.8202,-3.8202,-3.8202,-3.8202,-3.8202,-3.8202,-3.8202,-3.8202,-3.8202,-3.8173,-3.8202,-3.7955,-3.7491,-3.6983,-3.6548,-3.6199,-3.5845,-3.5406,-3.5053,-3.4936,-3.4095,-3.3854,-3.38,-3.3431,-3.2977,-3.2483,-3.2048,-3.1424,-3.1076,-3.0814,-3.0598,-3.0598,-3.0598,-3.0452,-3.0205,-3.0147,-2.9421,-2.8637,-2.8187,-2.7853,-2.7099,-2.6794,-2.6794,-2.6794,-2.6794,-2.6794,-2.6794,-2.6794,-2.6794,-2.6794,-2.6794,-2.6794,-2.6794,-2.6794,-2.6794,-2.6794,-2.6794,-2.6794,-2.6721,-2.6405,-2.6042,-2.5375,-2.4708,-2.4148,-2.3656,-2.3215,-2.3316,-2.3601,-2.3717,-2.3862,-2.4143,-2.4331,-2.4375,-2.4186,-2.4128,-2.4317,-2.4733,-2.5023,-2.5154,-2.5342,-2.5433,-2.5589,-2.5763,-2.5647,-2.5633,-2.5908,-2.6228,-2.6562,-2.6852,-2.6808,-2.6794,-3.4835,-3.4428,-3.4574,-3.5212,-3.6025,-3.5755,-3.6127,-3.6838,-3.604,-3.5981,-3.6475,-3.6765,-3.7375,-3.8014,-3.8188,-3.8202,-3.8202,-3.8202,-3.8202,-3.8202,-3.8202,-3.8202,-3.8202,-3.8202,-3.8202,-3.8202,-3.8202,-3.8202,-3.8202,-3.8202,-3.8202,-3.8202,-3.8202,-3.8202,-3.8202,-3.813,-3.7883,-3.7535,-3.6925,-3.6635,-3.6425,-3.5675,-3.54,-3.5059,-3.46,-3.4094,-3.4274,-3.4008,-3.3736,-3.3227,-3.2396,-3.1772,-3.1424,-3.0901,-3.0641,-3.0612,-3.0612,-3.0598,-3.0525,-3.0423,-2.9973,-2.9275,-2.8477,-2.7926,-2.7287,-2.6939,-2.6794,-2.6794,-2.6794,-2.6794,-2.6794,-2.6794,-2.6794,-2.6794,-2.6794,-2.6794,-2.6794,-2.6794,-2.6794,-2.6794,-2.6794,-2.6794,-2.6622,-2.6237,-2.5774,-2.5201,-2.4554,-2.398,-2.3632,-2.3314,-2.3635,-2.4109,-2.4457,-2.4631,-2.4834,-2.5027,-2.5096,-2.5042,-2.4959,-2.5071,-2.5361,-2.5734,-2.5981,-2.6184,-2.6405,-2.6796,-2.706,-2.6419,-2.5854,-2.6533,-2.6997,-2.6808,-2.6878,-2.6837,-2.6939,-3.4457,-3.4457,-3.5087,-3.5392,-3.5581,-3.604,-3.6301,-3.6548,-3.6344,-3.6591,-3.7172,-3.7709,-3.7912,-3.8188,-3.8202,-3.8202,-3.8202,-3.8202,-3.8202,-3.8202,-3.8202,-3.8202,-3.8202,-3.8202,-3.8202,-3.8202,-3.8202,-3.8202,-3.8202,-3.8202,-3.8202,-3.8202,-3.8202,-3.8202,-3.8159,-3.8086,-3.8115,-3.7839,-3.7389,-3.7186,-3.6961,-3.644,-3.5882,-3.5337,-3.4786,-3.438,-3.438,-3.4283,-3.4066,-3.362,-3.2759,-3.2135,-3.1671,-3.099,-3.0656,-3.0612,-3.0612,-3.0612,-3.0612,-3.0569,-3.0205,-2.945,-2.8609,-2.7998,-2.7694,-2.7128,-2.6895,-2.6924,-2.6968,-2.6878,-2.6837,-2.6794,-2.6794,-2.6794,-2.6794,-2.6794,-2.6794,-2.6794,-2.6794,-2.6794,-2.6794,-2.6794,-2.6753,-2.6425,-2.6046,-2.5491,-2.5011,-2.4428,-2.4331,-2.4115,-2.4438,-2.481,-2.5284,-2.5517,-2.5633,-2.5734,-2.5723,-2.5546,-2.5405,-2.5561,-2.5814,-2.6191,-2.651,-2.7076,-2.7353,-2.7887,-2.8219,-2.7623,-2.7316,-2.7621,-2.7652,-2.7161,-2.7086,-2.7256,-2.736,-3.438,-3.4516,-3.5503,-3.5938,-3.6011,-3.6635,-3.6925,-3.6925,-3.6925,-3.7041,-3.7317,-3.7564,-3.7854,-3.8115,-3.8202,-3.8202,-3.8202,-3.8202,-3.8202,-3.8202,-3.8202,-3.8202,-3.8202,-3.8202,-3.8202,-3.8202,-3.8202,-3.8202,-3.8202,-3.8202,-3.8202,-3.8202,-3.8202,-3.8202,-3.8144,-3.7941,-3.7926,-3.7999,-3.7709,-3.7462,-3.757,-3.662,-3.5985,-3.5938,-3.456,-3.4268,-3.4346,-3.438,-3.4254,-3.3862,-3.3035,-3.2469,-3.1946,-3.1119,-3.067,-3.0612,-3.0612,-3.0612,-3.0612,-3.0569,-3.0277,-2.9639,-2.8855,-2.8318,-2.8318,-2.8028,-2.7708,-2.7563,-2.736,-2.7287,-2.6837,-2.6794,-2.6794,-2.6794,-2.6794,-2.6794,-2.6794,-2.6794,-2.6727,-2.6712,-2.6753,-2.6794,-2.6753,-2.6683,-2.6274,-2.585,-2.5387,-2.4969,-2.4805,-2.4825,-2.5065,-2.5357,-2.5778,-2.6184,-2.6315,-2.6332,-2.6321,-2.6087,-2.5865,-2.594,-2.61,-2.6445,-2.6846,-2.7553,-2.8007,-2.8109,-2.8295,-2.8565,-2.8434,-2.7956,-2.7527,-2.7084,-2.7211,-2.7476,-2.7607,-3.438,-3.4511,-3.5561,-3.6141,-3.6417,-3.7215,-3.7462,-3.7317,-3.7288,-3.7302,-3.7317,-3.7476,-3.7781,-3.8115,-3.8202,-3.8202,-3.8202,-3.8202,-3.8202,-3.8202,-3.8202,-3.8202,-3.8202,-3.8202,-3.8202,-3.8202,-3.8202,-3.8202,-3.8202,-3.8202,-3.8202,-3.8202,-3.8202,-3.8202,-3.8115,-3.7868,-3.7796,-3.797,-3.7897,-3.7723,-3.7962,-3.6815,-3.6029,-3.6033,-3.4811,-3.4234,-3.4346,-3.438,-3.438,-3.3978,-3.3325,-3.2629,-3.2063,-3.1453,-3.0757,-3.0612,-3.0612,-3.0612,-3.0612,-3.0554,-3.0409,-2.9972,-2.9363,-2.9029,-2.8927,-2.8811,-2.8303,-2.8086,-2.7984,-2.7752,-2.7171,-2.7142,-2.6953,-2.6924,-2.6808,-2.6794,-2.6794,-2.6779,-2.6686,-2.6618,-2.6633,-2.6633,-2.6659,-2.659,-2.6298,-2.5959,-2.5655,-2.5283,-2.5095,-2.5214,-2.5524,-2.5821,-2.6155,-2.6588,-2.6924,-2.6616,-2.6354,-2.6576,-2.634,-2.619,-2.6337,-2.6624,-2.6821,-2.723,-2.7626,-2.7997,-2.8125,-2.8124,-2.7977,-2.777,-2.7368,-2.6996,-2.6992,-2.7241,-2.7549,-3.438,-3.4501,-3.5189,-3.5813,-3.6417,-3.7651,-3.781,-3.7331,-3.7302,-3.7346,-3.7462,-3.7883,-3.8115,-3.8202,-3.8202,-3.8202,-3.8202,-3.8202,-3.8202,-3.8202,-3.8202,-3.8202,-3.8202,-3.8202,-3.8202,-3.8202,-3.8202,-3.8202,-3.8202,-3.8202,-3.8202,-3.8165,-3.8127,-3.8165,-3.8202,-3.8188,-3.8188,-3.8202,-3.8144,-3.8084,-3.78,-3.6786,-3.6187,-3.5883,-3.4825,-3.4142,-3.423,-3.4196,-3.4196,-3.4062,-3.3035,-3.2474,-3.2367,-3.1264,-3.067,-3.0612,-3.0612,-3.0612,-3.0612,-3.0612,-3.0539,-3.0393,-2.9827,-2.961,-2.945,-2.9174,-2.8826,-2.871,-2.8652,-2.8347,-2.7956,-2.7652,-2.7403,-2.7229,-2.7142,-2.6968,-2.6997,-2.6779,-2.6686,-2.6525,-2.6404,-2.6351,-2.6445,-2.6441,-2.6234,-2.5983,-2.5789,-2.5622,-2.5454,-2.5632,-2.5999,-2.6052,-2.6341,-2.6479,-2.6671,-2.6463,-2.6385,-2.6701,-2.6691,-2.6313,-2.6287,-2.6498,-2.6722,-2.6962,-2.7216,-2.7583,-2.757,-2.7485,-2.7422,-2.7364,-2.7231,-2.6999,-2.6939,-2.7113,-2.7607,-3.438,-3.4501,-3.5546,-3.6112,-3.6431,-3.7215,-3.7491,-3.7331,-3.7331,-3.752,-3.7868,-3.8159,-3.8202,-3.8202,-3.8202,-3.8202,-3.8202,-3.8202,-3.8202,-3.8202,-3.8202,-3.8202,-3.8202,-3.8202,-3.8202,-3.8202,-3.8202,-3.8202,-3.8202,-3.8202,-3.8202,-3.8165,-3.8014,-3.7991,-3.8142,-3.8202,-3.8202,-3.8165,-3.7976,-3.7734,-3.7605,-3.6439,-3.5674,-3.5827,-3.4511,-3.3876,-3.3991,-3.3874,-3.3908,-3.3916,-3.2867,-3.2407,-3.2275,-3.1322,-3.067,-3.0612,-3.0612,-3.0612,-3.0612,-3.0612,-3.0612,-3.051,-3.0379,-3.019,-3.0176,-3.0118,-2.9769,-2.9421,-2.9319,-2.8971,-2.8536,-2.839,-2.8187,-2.8086,-2.7926,-2.7578,-2.7403,-2.6982,-2.6727,-2.6472,-2.6324,-2.6297,-2.6351,-2.6566,-2.6428,-2.637,-2.6274,-2.6171,-2.6014,-2.6205,-2.648,-2.6282,-2.6332,-2.6369,-2.6374,-2.618,-2.5975,-2.6091,-2.6162,-2.5995,-2.6106,-2.6259,-2.6596,-2.6807,-2.6975,-2.7129,-2.7198,-2.7237,-2.7057,-2.6944,-2.6973,-2.7115,-2.7186,-2.752,-2.8057,-3.438,-3.4516,-3.5299,-3.5923,-3.6402,-3.7244,-3.7622,-3.7622,-3.7622,-3.7854,-3.8144,-3.8202,-3.8202,-3.8202,-3.8202,-3.8202,-3.8202,-3.8202,-3.8202,-3.8202,-3.8202,-3.8202,-3.8202,-3.8202,-3.8202,-3.8202,-3.8202,-3.8202,-3.8202,-3.8202,-3.8202,-3.8127,-3.7938,-3.7915,-3.7953,-3.7877,-3.7711,-3.7634,-3.7443,-3.7366,-3.7044,-3.6307,-3.5511,-3.5184,-3.444,-3.3677,-3.3585,-3.3548,-3.3548,-3.3443,-3.3068,-3.2443,-3.2202,-3.1627,-3.0829,-3.0699,-3.0612,-3.0612,-3.0612,-3.0612,-3.0612,-3.0583,-3.0612,-3.0612,-3.0612,-3.0481,-3.0292,-3.006,-2.9943,-2.9581,-2.916,-2.9044,-2.8898,-2.8782,-2.8463,-2.8115,-2.7681,-2.7302,-2.6767,-2.6537,-2.6258,-2.627,-2.6367,-2.6566,-2.668,-2.6736,-2.675,-2.6633,-2.6472,-2.6606,-2.6633,-2.6392,-2.619,-2.6153,-2.6073,-2.5881,-2.5702,-2.5536,-2.5535,-2.5604,-2.5631,-2.5784,-2.6218,-2.6595,-2.6635,-2.6728,-2.6985,-2.7031,-2.6852,-2.6854,-2.6967,-2.7151,-2.7391,-2.7766,-2.8173,-3.438,-3.438,-3.4428,-3.5198,-3.6344,-3.7447,-3.8014,-3.8115,-3.813,-3.8086,-3.8072,-3.8043,-3.8057,-3.813,-3.8173,-3.8202,-3.8202,-3.8202,-3.8202,-3.8202,-3.8202,-3.8202,-3.8202,-3.8202,-3.8202,-3.8202,-3.8202,-3.8202,-3.8202,-3.8202,-3.8202,-3.8165,-3.8066,-3.7915,-3.7649,-3.7419,-3.725,-3.7173,-3.7173,-3.707,-3.6757,-3.6143,-3.5447,-3.4924,-3.4192,-3.3612,-3.3459,-3.3444,-3.3632,-3.3645,-3.348,-3.3039,-3.2527,-3.1874,-3.1235,-3.0771,-3.0612,-3.0612,-3.0612,-3.0612,-3.0612,-3.0612,-3.0612,-3.0612,-3.0612,-3.0612,-3.051,-3.0467,-3.038,-3.006,-2.9769,-2.961,-2.9464,-2.9189,-2.8912,-2.8492,-2.8058,-2.7557,-2.6993,-2.6587,-2.625,-2.622,-2.6496,-2.6697,-2.6727,-2.6794,-2.6794,-2.6779,-2.6633,-2.6525,-2.6513,-2.6258,-2.6096,-2.5921,-2.5757,-2.555,-2.5467,-2.5313,-2.5201,-2.5213,-2.5241,-2.5409,-2.5828,-2.6133,-2.6168,-2.6329,-2.658,-2.6705,-2.6664,-2.6707,-2.668,-2.6854,-2.7006,-2.7492,-2.7839,-3.438,-3.4457,-3.4907,-3.5348,-3.5755,-3.6519,-3.7099,-3.7535,-3.7564,-3.7331,-3.6881,-3.736,-3.7622,-3.7593,-3.7999,-3.8159,-3.8202,-3.8202,-3.8202,-3.8202,-3.8202,-3.8202,-3.8202,-3.8202,-3.8202,-3.8202,-3.8202,-3.8202,-3.8202,-3.8202,-3.8202,-3.8202,-3.7991,-3.7763,-3.7534,-3.7226,-3.7095,-3.6978,-3.694,-3.6836,-3.6429,-3.5777,-3.5211,-3.4724,-3.3771,-3.3326,-3.3417,-3.3192,-3.3388,-3.3705,-3.3307,-3.2871,-3.251,-3.1857,-3.1235,-3.0714,-3.0612,-3.0612,-3.0612,-3.0612,-3.0612,-3.0612,-3.0612,-3.0612,-3.0612,-3.0612,-3.0612,-3.0612,-3.0612,-3.0336,-3.019,-3.0089,-3.0031,-2.9857,-2.9508,-2.9131,-2.8639,-2.8009,-2.7426,-2.6903,-2.6536,-2.6392,-2.6627,-2.6562,-2.6606,-2.6727,-2.6808,-2.6852,-2.6729,-2.6582,-2.6365,-2.615,-2.5852,-2.5674,-2.5397,-2.5174,-2.5146,-2.509,-2.5033,-2.5033,-2.5187,-2.5369,-2.555,-2.5743,-2.5934,-2.6058,-2.6197,-2.6282,-2.6409,-2.6225,-2.6197,-2.641,-2.6695,-2.7184,-2.7384,-3.438,-3.4472,-3.482,-3.516,-3.5494,-3.604,-3.6446,-3.6591,-3.6794,-3.6649,-3.6402,-3.7041,-3.7302,-3.7433,-3.7926,-3.8202,-3.8202,-3.8202,-3.8202,-3.8202,-3.8202,-3.8202,-3.8202,-3.8202,-3.8202,-3.8202,-3.8202,-3.8202,-3.8202,-3.8202,-3.8202,-3.8202,-3.7915,-3.7763,-3.7572,-3.738,-3.7187,-3.6993,-3.6836,-3.6719,-3.6306,-3.5773,-3.5391,-3.4871,-3.3748,-3.3612,-3.3522,-3.3268,-3.3437,-3.3805,-3.3436,-3.312,-3.2571,-3.1685,-3.109,-3.0627,-3.0612,-3.0612,-3.0612,-3.0612,-3.0612,-3.0612,-3.0612,-3.0612,-3.0612,-3.0612,-3.0612,-3.0612,-3.0612,-3.0583,-3.0598,-3.0598,-3.0583,-3.0554,-3.0175,-2.9797,-2.9203,-2.8541,-2.794,-2.7329,-2.6961,-2.6733,-2.663,-2.6551,-2.6642,-2.7062,-2.7219,-2.7165,-2.6872,-2.6483,-2.6263,-2.6002,-2.5674,-2.537,-2.5118,-2.5005,-2.5103,-2.5131,-2.5061,-2.509,-2.5216,-2.5355,-2.5536,-2.5688,-2.5811,-2.5908,-2.5936,-2.6078,-2.6176,-2.5953,-2.5868,-2.6131,-2.6435,-2.6801,-2.687,-3.438,-3.438,-3.438,-3.4762,-3.5363,-3.5836,-3.5793,-3.5421,-3.588,-3.6141,-3.6199,-3.6823,-3.7056,-3.7157,-3.7709,-3.8086,-3.8159,-3.8202,-3.8202,-3.8202,-3.8202,-3.8202,-3.8202,-3.8202,-3.8202,-3.8202,-3.8202,-3.8202,-3.8202,-3.8202,-3.8202,-3.8202,-3.8165,-3.8014,-3.7763,-3.7687,-3.7534,-3.7327,-3.6954,-3.6693,-3.6808,-3.6579,-3.6295,-3.5871,-3.5223,-3.4759,-3.429,-3.4016,-3.3896,-3.4005,-3.3854,-3.3554,-3.2411,-3.1496,-3.0946,-3.0627,-3.0612,-3.0612,-3.0612,-3.0612,-3.0612,-3.0612,-3.0612,-3.0612,-3.0612,-3.0612,-3.0612,-3.0612,-3.0612,-3.0612,-3.0612,-3.0612,-3.0612,-3.0612,-3.0408,-3.0027,-2.9531,-2.8939,-2.8349,-2.7765,-2.7215,-2.7089,-2.7709,-2.7732,-2.7374,-2.7655,-2.7768,-2.7686,-2.7309,-2.6761,-2.6285,-2.5979,-2.5619,-2.5341,-2.509,-2.5047,-2.5201,-2.5201,-2.5145,-2.5188,-2.5341,-2.5425,-2.5536,-2.5578,-2.5633,-2.5674,-2.5744,-2.5813,-2.5812,-2.573,-2.5716,-2.5911,-2.6218,-2.6568,-2.651,-3.438,-3.438,-3.438,-3.4516,-3.4646,-3.4791,-3.482,-3.4646,-3.4777,-3.4922,-3.4994,-3.5561,-3.617,-3.6693,-3.7317,-3.7767,-3.8159,-3.8202,-3.8202,-3.8202,-3.8202,-3.8202,-3.8202,-3.8202,-3.8202,-3.8202,-3.8202,-3.8202,-3.8202,-3.8202,-3.8202,-3.8202,-3.8202,-3.8089,-3.8028,-3.8028,-3.7863,-3.7634,-3.7226,-3.6875,-3.69,-3.6707,-3.6373,-3.5845,-3.525,-3.4848,-3.4488,-3.4427,-3.4329,-3.4331,-3.3854,-3.3035,-3.183,-3.1422,-3.1047,-3.0698,-3.0612,-3.0612,-3.0612,-3.0612,-3.0612,-3.0612,-3.0612,-3.0612,-3.0612,-3.0612,-3.0612,-3.0612,-3.0612,-3.0612,-3.0612,-3.0612,-3.0612,-3.0612,-3.0538,-3.0166,-2.9795,-2.9227,-2.8663,-2.8197,-2.7576,-2.7853,-2.8512,-2.861,-2.8323,-2.8279,-2.8406,-2.8336,-2.7954,-2.7442,-2.6595,-2.6203,-2.5716,-2.541,-2.5199,-2.5103,-2.5257,-2.534,-2.5311,-2.5368,-2.5466,-2.5369,-2.5313,-2.5369,-2.5425,-2.5549,-2.5535,-2.5353,-2.5352,-2.5562,-2.5965,-2.6326,-2.6187,-2.6384,-2.6218,-3.424,-3.4051,-3.4298,-3.438,-3.438,-3.438,-3.438,-3.438,-3.438,-3.438,-3.4516,-3.5116,-3.5741,-3.6344,-3.6997,-3.7593,-3.8086,-3.8202,-3.8202,-3.8202,-3.8202,-3.8202,-3.8202,-3.8202,-3.8202,-3.8202,-3.8202,-3.8202,-3.8202,-3.8202,-3.8202,-3.8202,-3.8202,-3.8165,-3.8202,-3.8165,-3.8052,-3.7877,-3.7419,-3.712,-3.6964,-3.6652,-3.656,-3.6021,-3.5507,-3.5012,-3.4598,-3.4426,-3.4008,-3.3837,-3.3465,-3.2992,-3.2113,-3.1654,-3.1177,-3.0801,-3.0612,-3.0612,-3.0612,-3.0612,-3.0612,-3.0612,-3.0612,-3.0612,-3.0612,-3.0612,-3.0612,-3.0612,-3.0612,-3.0612,-3.0612,-3.0612,-3.0612,-3.0612,-3.0371,-3.0025,-2.9383,-2.8688,-2.877,-2.9043,-2.8452,-2.8108,-2.8642,-2.8812,-2.8611,-2.8699,-2.8872,-2.8669,-2.8333,-2.8127,-2.7259,-2.657,-2.621,-2.578,-2.558,-2.5432,-2.5341,-2.541,-2.5437,-2.56,-2.5668,-2.5281,-2.5075,-2.5419,-2.5611,-2.5567,-2.5481,-2.5481,-2.5694,-2.6045,-2.6477,-2.6895,-2.663,-2.6506,-2.6749,-3.4022,-3.3736,-3.4182,-3.438,-3.438,-3.438,-3.438,-3.438,-3.438,-3.438,-3.4457,-3.4965,-3.5604,-3.6228,-3.6751,-3.7433,-3.7868,-3.7897,-3.7999,-3.8188,-3.8202,-3.8202,-3.8202,-3.8202,-3.8202,-3.8202,-3.8202,-3.8202,-3.8202,-3.8202,-3.8202,-3.8165,-3.8127,-3.8089,-3.8066,-3.7976,-3.7825,-3.7572,-3.7236,-3.7063,-3.683,-3.6543,-3.6482,-3.6245,-3.5826,-3.5101,-3.461,-3.4169,-3.348,-3.3253,-3.3124,-3.2637,-3.2228,-3.1714,-3.1192,-3.0756,-3.0612,-3.0612,-3.0612,-3.0612,-3.0612,-3.0612,-3.0612,-3.0612,-3.0612,-3.0612,-3.0612,-3.0612,-3.0612,-3.0612,-3.0612,-3.0612,-3.0612,-3.0492,-3.0189,-2.9851,-2.9101,-2.8455,-2.8962,-2.956,-2.9268,-2.8751,-2.89,-2.9059,-2.9103,-2.9199,-2.9075,-2.8788,-2.8574,-2.8455,-2.8039,-2.7446,-2.7015,-2.6594,-2.6056,-2.5873,-2.5729,-2.5494,-2.5577,-2.5805,-2.5934,-2.5767,-2.5724,-2.5902,-2.5982,-2.583,-2.5968,-2.6122,-2.6339,-2.6417,-2.6545,-2.6868,-2.7492,-2.7437,-2.7778,-3.3891,-3.4254,-3.437,-3.438,-3.438,-3.438,-3.438,-3.438,-3.438,-3.438,-3.4443,-3.453,-3.4936,-3.5581,-3.5654,-3.6344,-3.7535,-3.7593,-3.7883,-3.8144,-3.8188,-3.8202,-3.8202,-3.8202,-3.8202,-3.8202,-3.8202,-3.8202,-3.8165,-3.8165,-3.8014,-3.7763,-3.7725,-3.7572,-3.7289,-3.7236,-3.7299,-3.7078,-3.688,-3.6615,-3.6112,-3.5903,-3.5941,-3.5735,-3.5395,-3.4655,-3.413,-3.4024,-3.3697,-3.3395,-3.3007,-3.2467,-3.2081,-3.1685,-3.1221,-3.0858,-3.0699,-3.0612,-3.0612,-3.0612,-3.0612,-3.0612,-3.0612,-3.0612,-3.0612,-3.0612,-3.0612,-3.0612,-3.0612,-3.0612,-3.0612,-3.0612,-3.0582,-3.0326,-3.0021,-2.9727,-2.9178,-2.8996,-2.9174,-2.962,-2.9787,-2.973,-2.997,-3.0016,-2.9882,-2.9843,-2.9616,-2.9324,-2.8879,-2.8795,-2.8638,-2.8208,-2.7691,-2.7083,-2.6469,-2.6403,-2.6257,-2.591,-2.5715,-2.594,-2.6204,-2.643,-2.6467,-2.6475,-2.6259,-2.6042,-2.6264,-2.6565,-2.6497,-2.6493,-2.6432,-2.6744,-2.7607,-2.8275,-2.8559]}]]